[[{"header":{"parameterUnit":"m.s-1","parameterCategory":1,"la1":31.0,"la2":29.5877,"lo1":-88.7671,"lo2":-86.6584,"dy":0.0162,"dx":0.0185,"nx":115,"ny":88,"refTime":"2026-05-17T00:00:00:Z","depth":0,"parameterNumber":2,"parameterNumberName":"U-component_of_WINDS"},"data":[0.0,0.0,0.0,0.0,0.0,0.0,0.0,0.0,0.0,0.0,0.0,0.0,0.0,0.0,0.0,0.0,0.0,0.0,0.0,0.0,0.0,0.0,0.0,0.0,0.0,0.0,0.0,0.0,0.0,0.0,0.0,0.0,0.0,0.0,0.0,0.0,0.0,0.0,0.0,0.0,0.0,0.0,0.0,0.0,0.0,0.0,0.0,0.0,0.0,0.0,0.0,0.0,0.0,0.0,0.0,0.0,0.0,0.0,0.0,0.0,0.0,0.0,0.0,0.0,0.0,0.0,0.0,0.0,0.0,0.0,0.0,0.0,0.0,0.0,0.0,0.0,0.0,0.0,0.0,0.0,0.0,0.0,0.0,0.0,0.0,0.0,0.0,0.0,0.0,0.0,0.0,0.0,0.0,0.0,0.0,0.0,0.0,0.0,0.0,0.0,0.0,0.0,0.0,0.0,0.0,0.0,0.0,0.0,0.0,0.0,0.0,0.0,0.0,0.0,0.0,0.0,0.0,0.0,0.0,0.0,0.0,0.0,0.0,0.0,0.0,0.0,0.0,0.0,0.0,0.0,0.0,0.0,0.0,0.0,0.0,0.0,0.0,0.0,0.0,0.0,0.0,0.0,0.0,0.0,0.0,0.0,0.0,0.0,0.0,0.0,0.0,0.0,0.0,0.0,0.0,0.0,0.0,0.0,0.0,0.0,0.0,0.0,0.0,0.0,0.0,0.0,0.0,0.0,0.0,0.0,0.0,0.0,0.0,0.0,0.0,0.0,0.0,0.0,0.0,0.0,0.0,0.0,0.0,0.0,0.0,0.0,0.0,0.0,0.0,0.0,0.0,0.0,0.0,0.0,0.0,0.0,0.0,0.0,0.0,0.0,0.0,0.0,0.0,0.0,0.0,0.0,0.0,0.0,0.0,0.0,0.0,0.0,0.0,0.0,0.0,0.0,0.0,0.0,0.0,0.0,0.0,0.0,0.0,0.0,0.0,0.0,0.0,0.0,0.0,0.0,0.0,0.0,0.0,0.0,0.0,0.0,0.0,0.0,0.0,0.0,0.0,0.0,0.0,0.0,0.0,0.0,0.0,0.0,0.0,0.0,0.0,0.0,0.0,0.0,0.0,0.0,0.0,0.0,0.0,0.0,0.0,0.0,0.0,0.0,0.0,0.0,0.0,0.0,0.0,0.0,0.0,0.0,0.0,0.0,0.0,0.0,0.0,0.0,0.0,0.0,0.0,0.0,0.0,0.0,0.0,0.0,0.0,0.0,0.0,0.0,0.0,0.0,0.0,0.0,0.0,0.0,0.0,0.0,0.0,0.0,0.0,0.0,0.0,0.0,0.0,0.0,0.0,0.0,0.0,0.0,0.0,0.0,0.0,0.0,0.0,0.0,0.0,0.0,0.0,0.0,0.0,0.0,0.0,0.0,0.0,0.0,0.0,0.0,0.0,0.0,0.0,0.0,0.0,0.0,0.0,0.0,0.0,0.0,0.0,0.0,0.0,0.0,0.0,0.0,0.0,0.0,0.0,0.0,0.0,0.0,0.0,0.0,0.0,0.0,0.0,0.0,0.0,0.0,0.0,0.0,0.0,0.0,0.0,0.0,0.0,0.0,0.0,0.0,0.0,0.0,0.0,0.0,0.0,0.0,0.0,0.0,0.0,0.0,0.0,0.0,0.0,0.0,0.0,0.0,0.0,0.0,0.0,0.0,0.0,0.0,0.0,0.0,0.0,0.0,0.0,0.0,0.0,0.0,0.0,0.0,0.0,0.0,0.0,0.0,0.0,0.0,0.0,0.0,0.0,0.0,0.0,0.0,0.0,0.0,0.0,0.0,0.0,0.0,0.0,0.0,0.0,0.0,0.0,0.0,0.0,0.0,0.0,0.0,0.0,0.0,0.0,0.0,0.0,0.0,0.0,0.0,0.0,0.0,0.0,0.0,0.0,0.0,0.0,0.0,0.0,0.0,0.0,0.0,0.0,0.0,0.0,0.0,0.0,0.0,0.0,0.0,0.0,0.0,0.0,0.0,0.0,0.0,0.0,0.0,0.0,0.0,0.0,0.0,0.0,0.0,0.0,0.0,0.0,0.0,0.0,0.0,0.0,0.0,0.0,0.0,0.0,0.0,0.0,0.0,0.0,0.0,0.0,0.0,0.0,0.0,0.0,0.0,0.0,0.0,0.0,0.0,0.0,0.0,0.0,0.0,0.0,0.0,0.0,0.0,0.0,0.0,0.0,0.0,0.0,0.0,0.0,0.0,0.0,0.0,0.0,0.0,0.0,0.0,0.0,0.0,0.0,0.0,0.0,0.0,0.0,0.0,0.0,0.0,0.0,0.0,0.0,0.0,0.0,0.0,0.0,0.0,0.0,0.0,0.0,0.0,0.0,0.0,0.0,0.0,0.0,0.0,0.0,0.0,0.0,0.0,0.0,0.0,0.0,0.0,0.0,0.0,0.0,0.0,0.0,0.0,0.0,0.0,0.0,0.0,0.0,0.0,0.0,0.0,0.0,0.0,0.0,0.0,0.0,0.0,0.0,0.0,0.0,0.0,0.0,0.0,0.0,0.0,0.0,0.0,0.0,0.0,0.0,0.0,0.0,0.0,0.0,0.0,0.0,0.0,0.0,0.0,0.0,0.0,0.0,0.0,0.0,0.0,0.0,0.0,0.0,0.0,0.0,0.0,0.0,0.0,0.0,0.0,0.0,0.0,0.0,0.0,0.0,0.0,0.0,0.0,0.0,0.0,0.0,0.0,0.0,0.0,0.0,0.0,0.0,0.0,0.0,0.0,0.0,0.0,0.0,0.0,0.0,0.0,0.0,0.0,0.0,0.0,0.0,0.0,0.0,0.0,0.0,0.0,0.0,0.0,0.0,0.0,0.0,0.0,0.0,0.0,0.0,0.0,0.0,0.0,0.0,0.0,0.0,0.0,0.0,0.0,0.0,0.0,0.0,0.0,0.0,0.0,0.0,0.0,0.0,0.0,0.0,0.0,0.0,0.0,0.0,0.0,0.0,0.0,0.0,0.0,0.0,0.0,0.0,0.0,0.0,0.0,0.0,0.0,0.0,0.0,0.0,0.0,0.0,0.0,0.0,0.0,0.0,0.0,0.0,0.0,0.0,0.0,0.0,0.0,0.0,0.0,0.0,0.0,0.0,0.0,0.0,0.0,0.0,0.0,0.0,0.0,0.0,0.0,0.0,0.0,0.0,0.0,0.0,0.0,0.0,0.0,0.0,0.0,0.0,0.0,0.0,0.0,0.0,0.0,0.0,0.0,0.0,0.0,0.0,0.0,0.0,0.0,0.0,0.0,0.0,0.0,0.0,0.0,0.0,0.0,0.0,0.0,0.0,0.0,0.0,0.0,0.0,0.0,0.0,0.0,0.0,0.0,0.0,0.0,0.0,0.0,0.0,0.0,0.0,0.0,0.0,0.0,0.0,0.0,0.0,0.0,0.0,0.0,0.0,0.0,0.0,0.0,0.0,0.0,0.0,0.0,0.0,0.0,0.0,0.0,0.0,0.0,0.0,0.0,0.0,0.0,0.0,0.0,0.0,0.0,0.0,0.0,0.0,0.0,0.0,0.0,0.0,0.0,0.0,0.0,0.0,0.0,0.0,0.0,0.0,0.0,0.0,0.0,0.0,0.0,0.0,0.0,0.0,0.0,0.0,0.0,0.0,0.0,0.0,0.0,0.0,0.0,0.0,0.0,0.0,0.0,0.0,0.0,0.0,0.0,0.0,0.0,0.0,0.0,0.0,0.0,0.0,0.0,0.0,0.0,0.0,0.0,0.0,0.0,0.0,0.0,0.0,0.0,0.0,0.0,0.0,0.0,0.0,0.0,0.0,0.0,0.0,0.0,0.0,0.0,0.0,0.0,0.0,0.0,0.0,0.0,0.0,0.0,0.0,0.0,0.0,0.0,0.0,0.0,0.0,0.0,0.0,0.0,0.0,0.0,0.0,0.0,0.0,0.0,0.0,0.0,0.0,0.0,0.0,0.0,0.0,0.0,0.0,0.0,0.0,0.0,0.0,0.0,0.0,0.0,0.0,0.0,0.0,0.0,0.0,0.0,0.0,0.0,0.0,0.0,0.0,0.0,0.0,0.0,0.0,0.0,0.0,0.0,0.0,0.0,0.0,0.0,0.0,0.0,0.0,0.0,0.0,0.0,0.0,0.0,0.0,0.0,0.0,0.0,0.0,0.0,0.0,0.0,0.0,0.0,0.0,0.0,0.0,0.0,0.0,0.0,0.0,0.0,0.0,0.0,0.0,0.0,0.0,0.0,0.0,0.0,0.0,0.0,0.0,0.0,0.0,0.0,0.0,0.0,0.0,0.0,0.0,0.0,0.0,0.0,0.0,0.0,0.0,0.0,0.0,0.0,0.0,0.0,0.0,0.0,0.0,0.0,0.0,0.0,0.0,0.0,0.0,0.0,0.0,0.0,0.0,0.0,0.0,0.0,0.0,0.0,0.0,0.0,0.0,0.0,0.0,0.0,0.0,0.0,0.0,0.0,0.0,0.0,0.0,0.0,0.0,0.0,0.0,0.0,0.0,0.0,0.0,0.0,0.0,0.0,0.0,0.0,0.0,0.0,0.0,0.0,0.0,0.0,0.0,0.0,0.0,0.0,0.0,0.0,0.0,0.0,0.0,0.0,0.0,0.0,0.0,0.0,0.0,0.0,0.0,0.0,0.0,0.0,0.0,0.0,0.0,0.0,0.0,0.0,0.0,0.0,0.0,0.0,0.0,0.0,0.0,0.0,0.0,0.0,0.0,0.0,0.0,0.0,0.0,0.0,0.0,0.0,0.0,0.0,0.0,0.0,0.0,0.0,0.0,0.0,0.0,0.0,0.0,0.0,0.0,0.0,0.0,0.0,0.0,0.0,0.0,0.0,0.0,0.0,0.0,0.0,0.0,0.0,0.0,0.0,0.0,0.0,0.0,0.0,0.0,0.0,0.0,0.0,0.0,0.0,0.0,0.0,0.0,0.0,0.0,0.0,0.0,0.0,0.0,0.0,0.0,0.0,0.0,0.0,0.0,0.0,0.0,0.0,0.0,0.0,0.0,0.0,0.0,0.0,0.0,0.0,0.0,0.0,0.0,0.0,0.0,0.0,0.0,0.0,0.0,0.0,0.0,0.0,0.0,0.0,0.0,0.0,0.0,0.0,0.0,0.0,0.0,0.0,0.0,0.0,0.0,0.0,0.0,0.0,0.0,0.0,0.0,0.0,0.0,0.0,0.0,0.0,0.0,0.0,0.0,0.0,0.0,0.0,0.0,0.0,0.0,0.0,0.0,0.0,0.0,0.0,0.0,0.0,0.0,0.0,0.0,0.0,0.0,0.0,0.0,0.0,0.0,0.0,0.0,0.0,0.0,0.0,0.0,0.0,0.0,0.0,0.0,0.0,0.0,0.0,0.0,0.0,0.0,0.0,0.0,0.0,0.0,0.0,0.0,0.0,0.0,0.0,0.0,0.0,0.0,0.0,0.0,0.0,0.0,0.0,0.0,0.0,0.0,0.0,0.0,0.0,0.0,0.0,0.0,0.0,0.0,0.0,0.0,0.0,0.0,0.0,0.0,0.0,0.0,0.0,0.0,0.0,0.0,0.0,0.0,0.0,0.0,0.0,0.0,0.0,0.0,0.0,0.0,0.0,0.0,0.0,0.0,0.0,0.0,0.0,0.0,0.0,0.0,0.0,0.0,0.0,0.0,0.0,0.0,0.0,0.0,0.0,0.0,0.0,0.0,0.0,0.0,0.0,0.0,0.0,0.0,0.0,0.0,0.0,0.0,0.0,0.0,0.0,0.0,0.0,0.0,0.0,0.0,0.0,0.0,0.0,0.0,0.0,0.0,0.0,0.0,0.0,0.0,0.0,0.0,0.0,0.0,0.0,0.0,0.0,0.0,0.0,0.0,0.0,0.0,0.0,0.0,0.0,0.0,0.0,0.0,0.0,0.0,0.0,0.0,0.0,0.0,0.0,0.0,0.0,0.0,0.0,0.0,0.0,0.0,0.0,0.0,0.0,0.0,0.0,0.0,0.0,0.0,0.0,0.0,0.0,0.0,0.0,0.0,0.0,0.0,0.0,0.0,0.0,0.0,0.0,0.0,0.0,0.0,0.0,0.0,0.0,0.0,0.0,0.0,0.0,0.0,0.0,0.0,0.0,0.0,0.0,0.0,0.0,0.0,0.0,0.0,0.0,0.0,0.0,0.0,0.0,0.0,0.0,0.0,0.0,0.0,0.0,0.0,0.0,0.0,0.0,0.0,0.0,0.0,0.0,0.0,-0.0529,-0.0192,0.0,0.0,0.0,0.0,0.0,0.0,0.0,0.0,0.0,0.0,0.0,0.0,0.0,0.0,0.0,0.0,0.0,0.0,0.0,0.0,0.0,0.0,0.0,0.0,0.0,0.0,0.0,0.0,0.0,0.0,0.0,0.0,0.0,0.0,0.0,0.0,0.0,0.0,0.0,0.0,0.0,0.0,0.0,0.0,0.0,0.0,0.0,0.0,0.0,0.0,0.0,0.0,0.0,0.0,0.0,0.0,0.0,0.0,0.0,0.0,0.0,0.0,0.0,0.0,0.0,0.0,0.0,0.0,0.0,0.0,0.0,0.0,0.0,0.0,0.0,0.0,0.0,0.0,0.0,0.0,0.0,0.0,0.0,0.0,0.0,0.0,0.0,0.0,0.0,0.0,0.0,0.0,0.0,0.0,0.0,0.0,0.0,0.0,0.0,0.0,0.0,0.0,0.0,0.0,0.0,0.0,0.0,0.0,0.0,0.0,0.0,-0.0865,0.0,-0.0866,-0.0317,0.0,0.0,0.0,0.0,0.0,0.0,0.0,0.0,0.0,0.0,0.0,0.0,0.0,0.0,0.0,0.0,0.0,0.0,0.0,0.0,0.0,0.0,0.0,0.0,0.0,0.0,0.0,0.0,0.0,0.0,0.0,0.0,0.0,0.0,0.0,0.0,0.0,0.0,0.0,0.0,0.0,0.0,0.0,0.0,0.0,0.0,0.0,0.0,0.0,0.0,0.0,0.0,0.0,0.0,0.0,0.0,0.0,0.0,0.0,0.0,0.0,0.0,0.0,0.0,0.0,0.0,0.0,0.0,0.0,0.0,0.0,0.0,0.0,0.0,0.0,0.0,0.0,0.0,0.0,0.0,0.0,0.0,0.0,0.0,0.0,0.0,0.0,0.0,0.0,0.0,0.0,0.0,0.0,0.0,0.0,0.0,0.0,0.0,0.0,0.0,0.0,0.0,0.0,0.0,0.0,0.0,0.0,0.0,0.0,0.0,0.0,-0.0734,-0.0888,-0.0886,-0.0317,0.0,0.0,0.0,0.0,0.0,0.0,0.0,0.0,0.0,0.0,0.0,0.0,0.0,0.0,0.0,0.0,0.0,0.0,0.0,0.0,0.0,0.0,0.0,0.0,0.0,0.0,0.0,0.0,0.0,0.0,0.0,0.0,0.0,0.0,0.0,0.0,0.0,0.0,0.0,0.0,0.0,0.0,0.0,0.0,0.0,0.0,0.0,0.0,0.0,0.0,0.0,0.0,0.0,0.0,0.0,0.0,0.0,0.0,0.0,0.0,0.0,0.0,0.0,0.0,0.0,0.0,0.0,0.0,0.0,0.0,0.0,0.0,0.0,0.0,0.0,0.0,0.0,0.0,0.0,0.0,0.0,0.0,0.0,0.0,0.0,0.0,0.0,0.0,0.0,0.0,0.0,0.0,0.0,0.0,0.0,0.0,0.0,0.0,0.0,0.0,0.0,0.0,0.0,0.0,0.0,0.0,0.0,0.0,0.0,0.0,-0.0702,-0.0831,-0.0888,-0.0886,-0.0689,-0.0404,0.0,0.0,0.0,0.0,0.0,0.0,0.0,0.0,0.0,0.0,0.0,0.0,0.0,0.0,0.0,0.0,0.0,0.0,0.0,0.0,0.0,0.0,0.0,0.0,0.0,0.0,0.0,0.0,0.0,0.0,0.0,0.0,0.0,0.0,0.0,0.0,0.0,0.0,0.0,0.0,0.0,0.0,0.0,0.0,0.0,0.0,0.0,0.0,0.0,0.0,0.0,0.0,0.0,0.0,0.0,0.0,0.0,0.0,0.0,0.0,0.0,0.0,0.0,0.0,0.0,0.0,0.0,0.0,0.0,0.0,0.0,0.0,0.0,0.0,0.0,0.0,0.0,0.0,0.0,0.0,0.0,0.0,0.0,0.0,0.0,0.0,0.0,0.0,0.0,0.0,0.0,0.0,0.0,0.0,0.0,0.0,0.0,0.0,0.0,0.0,0.0,0.0,0.0,0.0,0.0,0.0,0.0,0.0,0.0,-0.0601,0.0,-0.0888,0.0,-0.0713,-0.0417,0.0,0.0,0.0,0.0,0.0,0.0,0.0,0.0,0.0,0.0,0.0,0.0,0.0,0.0,0.0,0.0,0.0,0.0,0.0,0.0,0.0,0.0,0.0,0.0,0.0,0.0,0.0,0.0,0.0,0.0,0.0,0.0,0.0,0.0,0.0,0.0,0.0,0.0,0.0,0.0,0.0,0.0,0.0,0.0,0.0,0.0,0.0,0.0,0.0,0.0,0.0,0.0,0.0,0.0,0.0,0.0,0.0,0.0,0.0,0.0,0.0,0.0,0.0,0.0,0.0,0.0,0.0,0.0,0.0,0.0,0.0,0.0,0.0,0.0,0.0,0.0,0.0,0.0,0.0,0.0,0.0,0.0,0.0,0.0,0.0,0.0,0.0,0.0,0.0,0.0,0.0,0.0,0.0,0.0,0.0,0.0,0.0,0.0,0.0,0.0,0.0,0.0,0.0,0.0,0.0,0.0,0.0,0.0,0.0,-0.0028,-0.0573,-0.0874,-0.0902,-0.0338,0.0,0.0,0.0,0.0,0.0,0.0,0.0,0.0,0.0,0.0,0.0,0.0,0.0,0.0,0.0,0.0,0.0,0.0,0.0,0.0,0.0,0.0,0.0,0.0,0.0,0.0,0.0,0.0,0.0,0.0,0.0,0.0,0.0,0.0,0.0,0.0,0.0,0.0,0.0,0.0,0.0,0.0,0.0,0.0,0.0,0.0,0.0,0.0,0.0,0.0,0.0,0.0,0.0,0.0,0.0,0.0,0.0,0.0,0.0,0.0,0.0,0.0,0.0,0.0,0.0,0.0,0.0,0.0,0.0,0.0,0.0,0.0,0.0,0.0,0.0,0.0,0.0,0.0,0.0,0.0,0.0,0.0,0.0,0.0,0.0,0.0,0.0,0.0,0.0,0.0,0.0,0.0,0.0,0.0,0.0,0.0,0.0,0.0,0.0,0.0,0.0,0.0,0.0,0.0,0.0,0.0,0.0,0.0,0.0,0.0,-0.0046,-0.0185,-0.0682,-0.1438,-0.0533,0.0,0.0,0.0,0.0,0.0,0.0,0.0,0.0,0.0,0.0,0.0,0.0,0.0,0.0,0.0,0.0,0.0,0.0,0.0,0.0,0.0,0.0,0.0,0.0,0.0,0.0,0.0,0.0,0.0,0.0,0.0,0.0,0.0,0.0,0.0,0.0,0.0,0.0,0.0,0.0,0.0,0.0,0.0,0.0,0.0,0.0,0.0,0.0,0.0,0.0,0.0,0.0,0.0,0.0,0.0,0.0,0.0,0.0,0.0,0.0,0.0,0.0,0.0,0.0,0.0,0.0,0.0,0.0,0.0,0.0,0.0,0.0,0.0,0.0,0.0,0.0,0.0,0.0,0.0,0.0,0.0,0.0,0.0,0.0,0.0,0.0,0.0,0.0,0.0,0.0,0.0,0.0,0.0,0.0,0.0,0.0,0.0,0.0,0.0,0.0,0.0,0.0,0.0,0.0,0.0,0.0,0.0,0.0,0.0,0.0,-0.1002,-0.0559,-0.0585,-0.1121,-0.084,-0.0468,0.0,0.0,0.0,0.0,0.0,0.0,0.0,0.0,0.0,0.0,0.0,0.0,0.0,0.0,0.0,0.0,0.0,0.0,0.0,0.0,0.0,0.0,0.0,0.0,0.0,0.0,0.0,0.0,0.0,0.0,0.0,0.0,0.0,0.0,0.0,0.0,0.0,0.0,0.0,0.0,0.0,0.0,0.0,0.0,0.0,0.0,0.0,0.0,0.0,0.0,0.0,0.0,0.0,0.0,0.0,0.0,0.0,0.0,0.0,0.0,0.0,0.0,0.0,0.0,0.0,0.0,0.0,0.0,0.0,0.0,0.0,0.0,0.0,0.0,0.0,0.0,0.0,0.0,0.0,0.0,0.0,0.0,0.0,0.0,0.0,0.0,0.0,0.0,0.0,0.0,0.0,0.0,0.0,0.0,0.0,0.0,0.0,0.0,0.0,0.0,0.0,0.0,0.0,0.0,0.0,0.0,0.0,0.0,0.0,-0.2578,-0.1537,-0.0723,-0.019,-0.1142,-0.1197,0.0,0.0,0.0,0.0,0.0,0.0,0.0,0.0,0.0,0.0,0.0,0.0,0.0,0.0,0.0,0.0,0.0,0.0,0.0,0.0,0.0,0.0,0.0,0.0,0.0,0.0,0.0,0.0,0.0,0.0,0.0,0.0,0.0,0.0,0.0,0.0,0.0,0.0,0.0,0.0,0.0,0.0,0.0,0.0,0.0,0.0,0.0,0.0,0.0,0.0,0.0,0.0,0.0,0.0,0.0,0.0,0.0,0.0,0.0,0.0,0.0,0.0,0.0,0.0,0.0,0.0,0.0,0.0,0.0,0.0,0.0,0.0,0.0,0.0,0.0,0.0,0.0,0.0,0.0,0.0,0.0,0.0,0.0,0.0,0.0,0.0,0.0,0.0,0.0,0.0,0.0,0.0,0.0,0.0,0.0,0.0,0.0,0.0,0.0,0.0,0.0,0.0,0.0,0.0,0.0,0.0,0.0,0.0,0.0,-0.2568,-0.2205,-0.1878,-0.1625,-0.0884,-0.0752,0.0,0.0,0.0,0.0,0.0,0.0,0.0,0.0,0.0,0.0,0.0,0.0,0.0,0.0,0.0,0.0,0.0,0.0,0.0,0.0,0.0,0.0,0.0,0.0,0.0,0.0,0.0,0.0,0.0,0.0,0.0,0.0,0.0,0.0,0.0,0.0,0.0,0.0,0.0,0.0,0.0,0.0,0.0,0.0,0.0,0.0,0.0,0.0,0.0,0.0,0.0,0.0,0.0,0.0,0.0,0.0,0.0,0.0,0.0,0.0,0.0,0.0,0.0,0.0,0.0,0.0,0.0,0.0,0.0,0.0,0.0,0.0,0.0,0.0,0.0,0.0,0.0,0.0,0.0,0.0,0.0,0.0,0.0,0.0,0.0,0.0,0.0,0.0,0.0,0.0,0.0,0.0,0.0,0.0,0.0,0.0,0.0,0.0,0.0,0.0,0.0,0.0,0.0,0.0,0.0,0.0,0.0,0.0,-0.2081,-0.251,-0.2338,-0.2243,-0.2233,-0.112,-0.0663,0.0,0.0,0.0,0.0,0.0,0.0,0.0,0.0,0.0,0.0,0.0,0.0,0.0,0.0,0.0,0.0,0.0,0.0,0.0,0.0,0.0,0.0,0.0,0.0,0.0,0.0,0.0,0.0,0.0,0.0,0.0,0.0,0.0,0.0,0.0,0.0,0.0,0.0,0.0,0.0,0.0,0.0,0.0,0.0,0.0,0.0,0.0,0.0,0.0,0.0,0.0,0.0,0.0,0.0,0.0,0.0,0.0,0.0,0.0,0.0,0.0,0.0,0.0,0.0,0.0,0.0,0.0,0.0,0.0,0.0,0.0,0.0,0.0,0.0,0.0,0.0,0.0,0.0,0.0,0.0,0.0,0.0,0.0,0.0,0.0,0.0,0.0,0.0,0.0,0.0,0.0,0.0,0.0,0.0,0.0,0.0,0.0,0.0,0.0,0.0,0.0,0.0,0.0,0.0,0.0,0.0,0.0,0.0,-0.1472,-0.2331,-0.2149,-0.2102,-0.2235,-0.1606,-0.094,0.0,0.0,0.0,0.0,0.0,0.0,0.0,0.0,0.0,0.0,0.0,0.0,0.0,0.0,0.0,0.0,0.0,0.0,0.0,0.0,0.0,0.0,0.0,0.0,0.0,0.0,0.0,0.0,0.0,0.0,0.0,0.0,0.0,0.0,0.0,0.0,0.0,0.0,0.0,0.0,0.0,0.0,0.0,0.0,0.0,0.0,0.0,0.0,0.0,0.0,0.0,0.0,0.0,0.0,0.0,0.0,0.0,0.0,0.0,0.0,0.0,0.0,0.0,0.0,0.0,0.0,0.0,0.0,0.0,0.0,0.0,0.0,0.0,0.0,0.0,0.0,0.0,0.0,0.0,0.0,0.0,0.0,0.0,0.0,0.0,0.0,0.0,0.0,0.0,0.0,0.0,0.0,0.0,0.0,0.0,0.0,0.0,0.0,0.0,0.0,0.0,0.0,0.0,0.0,0.0,0.0,0.0,0.0,-0.1969,-0.2089,-0.2134,-0.2134,-0.2058,-0.1814,-0.1587,0.0,0.0,0.0,0.0,0.0,0.0,0.0,0.0,0.0,0.0,0.0,0.0,0.0,0.0,0.0,0.0,0.0,0.0,0.0,0.0,0.0,0.0,0.0,0.0,0.0,0.0,0.0,0.0,0.0,0.0,0.0,0.0,0.0,0.0,0.0,0.0,0.0,0.0,0.0,0.0,0.0,0.0,0.0,0.0,0.0,0.0,0.0,0.0,0.2745,0.0,0.0,0.0,0.0,0.0,0.0,0.0,0.0,0.0,0.0,0.0,0.0,0.0,0.0,0.0,0.0,0.0,0.0,0.0,0.0,0.0,0.0,0.0,0.0,0.0,0.0,0.0,0.0,0.0,0.0,0.0,0.0,0.0,0.0,0.0,0.0,0.0,0.0,0.0,0.0,0.0,0.0,0.0,0.0,0.0,0.0,0.0,0.0,0.0,0.0,0.0,0.0,0.0,0.0,0.0,0.0,0.0,0.0,0.0,-0.202,-0.2015,-0.2015,-0.193,-0.1782,-0.1698,-0.1661,0.0,0.0,0.0,0.0,0.0,0.0,0.0,0.0,0.0,0.0,0.0,0.0,0.0,0.0,0.0,0.0,0.0,0.0,0.0,0.0,0.0,0.0,0.0,0.0,0.0,0.0,0.0,0.0,0.0,0.0,0.0,0.0,0.0,0.0,0.0,0.0,0.0,0.0,0.0,0.0,0.0,0.0,0.0,0.0,0.0,0.0,0.0,0.0,0.0,0.0,0.0,0.0,0.0,0.0,0.0,0.0,0.0,0.0,0.0,0.0,0.0,0.0,0.0,0.0,0.0,0.0,0.0,0.0,0.0,0.0,0.0,0.0,0.0,0.0,0.0,0.0,0.0,0.0,0.0,0.0,0.0,0.0,0.0,0.0,0.0,0.0,0.0,0.0,0.0,0.0,0.0,0.0,0.0,0.0,0.0,0.0,0.0,0.0,0.0,0.0,0.0,0.0,0.0,0.0,0.0,0.0,0.0,-0.1557,-0.1844,-0.1953,-0.1865,-0.1713,-0.1502,-0.1486,-0.1453,-0.1453,0.0,0.0,0.0,0.0,0.0,0.0,0.0,0.0,0.0,0.0,0.0,0.0,0.0,0.0,0.0,0.0,0.0,0.0,0.0,0.0,0.0,0.0,0.0,0.0,0.0,0.0,0.0,0.0,0.0,0.0,0.0,0.0,0.0,0.0,0.0,0.0,0.0,0.0,0.0,0.0,0.0,0.0,0.0,0.0,0.0,0.0,0.0,0.0,0.1771,0.0,0.0,0.0,0.0,0.0,0.0,0.0,0.0,0.0,0.0,0.0,0.0,0.0,0.0,0.0,0.0,0.0,0.0,0.0,0.0,0.0,0.0,0.0,0.0,0.0,0.0,0.0,0.0,0.0,0.0,0.0,0.0,0.0,0.0,0.0,0.0,0.0,0.0,0.0,0.0,0.0,0.0,0.0,0.0,0.0,0.0,0.0,0.0,0.0,0.0,0.0,0.0,0.0,0.0,0.0,0.0,-0.1799,-0.1805,-0.1803,-0.1836,-0.1813,-0.1713,-0.1507,-0.1394,-0.1307,-0.1254,0.0,0.0,0.0,0.0,0.0,0.0,0.0,0.0,0.0,0.0,0.0,0.0,0.0,0.0,0.0,0.0,0.0,0.0,0.0,0.0,0.0,0.0,0.0,0.0,0.0,0.0,0.0,0.0,0.0,0.0,0.0,0.0,0.0,0.0,0.0,0.0,0.0,0.0,0.0,0.0,0.0,0.0,0.0,0.0,0.0,0.0,0.0,0.0,0.0,0.2522,0.0,0.0,0.0,0.0,0.0,0.0,0.0,0.0,0.0,0.0,0.0,0.0,0.0,0.0,0.0,0.0,0.0,0.0,0.0,0.0,0.0,0.0,0.0,0.0,0.0,0.0,0.0,0.0,0.0,0.0,0.0,0.0,0.0,0.0,0.0,0.0,0.0,0.0,0.0,0.0,0.0,0.0,0.0,0.0,0.0,0.0,0.0,0.0,0.0,0.0,0.0,0.0,0.0,0.0,0.0,-0.1593,-0.1746,-0.1836,-0.1907,-0.1836,-0.1678,-0.1394,-0.1405,-0.1281,0.0,0.0,0.0,0.0,0.0,0.0,0.0,0.0,0.0,0.0,0.0,0.0,0.0,0.0,0.0,0.0,0.0,0.0,0.0,0.0,0.0,0.0,0.0,0.0,0.0,0.0,0.0,0.0,0.0,0.0,0.0,0.0,0.0,0.0,0.0,0.0,0.0,0.0,0.0,0.0,0.0857,0.0491,0.1828,0.0,0.0,0.0,0.0,0.0,0.0,0.3089,0.3011,0.0,0.0,0.0,0.0,0.0,0.0,0.0,0.0,0.0,0.0,0.0,0.0,0.0,0.0,0.0,0.0,0.0,0.0,0.0,0.0,0.0,0.0,0.0,0.0,0.0,0.0,0.0,0.0,0.0,0.0,0.0,0.0,0.0,0.0,0.0,0.0,0.0,0.0,0.0,0.0,0.0,0.0,0.0,0.0,0.0,0.0,0.0,0.0,0.0,0.0,0.0,0.0,0.0,0.0,0.0,-0.1274,-0.169,-0.1935,-0.1982,-0.1875,-0.1646,-0.1367,-0.1432,-0.1313,0.0,0.0,0.0,0.0,0.0,0.0,0.0,0.0,0.0,0.0,0.0,0.0,0.0,0.0,0.0,0.0,0.0,0.0,0.0,0.0,0.0,0.0,0.0,0.0,0.0,0.0,0.0,0.0,0.0,0.0,0.0,0.0,0.0,0.0,0.0,0.0,0.0,0.0,0.0,0.0,0.0,0.1533,0.3593,0.4185,0.0,0.0,0.0,0.0,0.3594,0.3951,0.0,0.0,0.0,0.0,0.0,0.0,0.0,0.0,0.0,0.0,0.0,0.0,0.0,0.0,0.0,0.0,0.0,0.0,0.0,0.0,0.0,0.0,0.0,0.0,0.0,0.0,0.0,0.0,0.0,0.0,0.0,0.0,0.0,0.0,0.0,0.0,0.0,0.0,0.0,0.0,0.0,0.0,0.0,0.0,0.0,0.0,0.0,0.0,0.0,0.0,0.0,0.0,0.0,0.0,0.0,0.0,-0.1282,-0.1862,-0.2109,-0.1992,-0.186,-0.1703,-0.148,-0.1496,-0.1319,0.0,0.0,0.0,0.0,0.0,0.0,0.0,0.0,0.0,0.0,0.0,0.0,0.0,0.0,0.0,0.0,0.0,0.0,0.0,0.0,0.0,0.0,0.0,0.0,0.0,0.0,0.0,0.0,0.0,0.0,0.0,0.0,0.0,0.0,0.0,0.0,0.0,0.0,0.0,0.0,0.0,0.3545,0.3864,0.3945,0.3952,0.0,0.0,0.0,0.3921,0.4195,0.0,0.0,0.0,0.0,0.0,0.0,0.0,0.0,0.0,0.0,0.0,0.0,0.0,0.0,0.0,0.0,0.0,0.0,0.0,0.0,0.0,0.0,0.0,0.0,0.0,0.0,0.0,0.0,0.0,0.0,0.0,0.0,0.0,0.0,0.0,0.0,0.0,0.0,0.0,0.0,0.0,0.0,0.0,0.0,0.0,0.0,0.0,0.0,0.0,0.0,0.0,0.0,0.0,0.0,0.0,-0.1035,-0.1096,-0.1673,-0.1982,-0.1992,-0.187,-0.1708,-0.1496,-0.1618,-0.1416,0.0,0.0,0.0,0.0,0.0,0.0,0.0,0.0,0.0,0.0,0.0,0.0,0.0,0.0,0.0,0.0,0.0,0.0,0.0,0.0,0.0,0.0,0.0,0.0,0.0,0.0,0.0,0.0,0.0,0.0,0.0,0.0,0.0,0.0,0.0,0.0,0.0,0.0,0.0,0.0,0.0,0.0,0.3926,0.3913,0.0,0.0,0.0,0.4087,0.3934,0.0,0.0,0.0,0.0,0.0,0.0,0.0,0.0,0.0,0.0,0.0,0.0,0.0,0.0,0.0,0.0,0.0,0.0,0.0,0.0,0.0,0.0,0.0,0.0,0.0,0.0,0.0,0.0,0.0,0.0,0.0,0.0,0.0,0.0,0.0,0.0,0.0,0.0,0.0,0.0,0.0,0.0,0.0,0.0,0.0,0.0,0.0,0.0,0.0,0.0,0.0,0.0,0.0,0.0,0.0,0.0,0.0,-0.1142,-0.158,-0.187,-0.1982,-0.187,-0.1713,-0.1576,-0.1729,0.0,0.0,0.0,0.0,0.0,0.0,0.0,0.0,0.0,0.0,0.0,0.0,0.0,0.0,0.0,0.0,0.0,0.0,0.0,0.0,0.0,0.0,0.0,0.0,0.0,0.0,0.0,0.0,0.0,0.0,0.0,0.0,0.0,0.0,0.0,0.0,0.0,0.0,0.0,0.0,0.0,0.0,0.4327,0.3818,0.3755,0.4028,0.0,0.0,0.4133,0.4798,0.4323,0.3913,0.0,0.0,0.0,0.0,0.0,0.0,0.0,0.0,0.0,0.0,0.0,0.0,0.0,0.0,0.0,0.0,0.0,0.0,0.0,0.0,0.0,0.0,0.0,0.0,0.0,0.0,0.0,0.0,0.0,0.0,0.0,0.0,0.0,0.0,0.0,0.0,0.0,0.0,0.0,0.0,0.0,0.0,0.0,0.0,0.0,0.0,0.0,0.0,0.0,0.0,0.0,0.0,0.0,0.0,0.0,-0.1742,-0.1782,-0.1865,-0.1982,-0.1865,-0.1797,-0.1787,-0.1803,-0.1687,0.0,0.0,0.0,0.0,0.0,0.0,0.0,0.0,0.0,0.0,0.0,0.0,0.0,0.0,0.0,0.0,0.0,0.0,0.0,0.0,0.0,0.0,0.0,0.0,0.0,0.0,0.0,0.0,0.0,0.0,0.0,0.0,0.0,0.0,0.0,0.0,0.0,0.0,0.0,0.0,0.0,0.4217,0.3448,0.3332,0.4371,0.0,0.0,0.4749,0.7233,0.5516,0.3913,0.3913,0.0,0.0,0.0,0.0,0.0,0.0,0.0,0.0,0.0,0.0,0.0,0.0,0.0,0.0,0.0,0.0,0.0,0.0,0.0,0.0,0.0,0.0,0.0,0.0,0.0,0.0,0.0,0.0,0.0,0.0,0.0,0.0,0.0,0.0,0.0,0.0,0.0,0.0,0.0,0.0,0.0,0.0,0.0,0.0,0.0,0.0,0.0,0.0,0.0,0.0,0.0,0.0,0.0,-0.1056,-0.1794,-0.1803,-0.1836,-0.187,-0.1836,-0.1803,-0.1803,-0.1803,-0.165,0.0,0.0,0.0,0.0,0.0,0.0,0.0,0.0,0.0,0.0,0.0,0.0,0.0,0.0,0.0,0.0,0.0,0.0,0.0,0.0,0.0,0.0,0.0,0.0,0.0,0.0,0.0,0.0,0.0,0.0,0.0,0.0,0.0,0.0,0.0,0.0,0.0,0.0,0.0,0.0,0.0,0.3653,0.334,0.4463,0.0,0.0,0.7023,0.614,0.5536,0.4585,0.3913,0.3913,0.41,0.0,0.0,0.0,0.0,0.0,0.0,0.0,0.0,0.0,0.0,0.0,0.0,0.0,0.0,0.0,0.0,0.0,0.0,0.0,0.0,0.0,0.0,0.0,0.0,0.0,0.0,0.0,0.0,0.0,0.0,0.0,0.0,0.0,0.0,0.0,0.0,0.0,0.0,0.0,0.0,0.0,0.0,0.0,0.0,0.0,0.0,0.0,0.0,0.0,0.0,0.0,0.0,-0.0671,-0.1532,-0.1701,-0.1803,-0.1803,-0.1803,-0.1803,-0.1803,-0.1734,-0.1577,0.0,0.0,0.0,0.0,0.0,0.0,0.0,0.0,0.0,0.0,0.0,0.0,0.0,0.0,0.0,0.0,0.0,0.0,0.0,0.0,0.0,0.0,0.0,0.0,0.0,0.0,0.0,0.0,0.0,0.0,0.0,0.0,0.0,0.0,0.0,0.0,0.0,0.0,0.0,0.0,0.0,0.4274,0.4312,0.5617,0.6903,0.779,0.7906,0.7248,0.5381,0.433,0.3773,0.3884,0.0,0.0,0.0,0.0,0.0,0.0,0.0,0.0,0.0,0.0,0.0,0.0,0.0,0.0,0.0,0.0,0.0,0.0,0.0,0.0,0.0,0.0,0.0,0.0,0.0,0.0,0.0,0.0,0.0,0.0,0.0,0.0,0.0,0.0,0.0,0.0,0.0,0.0,0.0,0.0,0.0,0.0,0.0,0.0,0.0,0.0,0.0,0.0,0.0,0.0,0.0,0.0,0.0,0.0,-0.0945,-0.152,-0.1803,-0.1803,-0.1803,-0.1803,-0.1792,-0.1613,-0.1491,-0.1485,0.0,0.0,0.0,0.0,0.0,0.0,0.0,0.0,0.0,0.0,0.0,0.0,0.0,0.0,0.0,0.0,0.0,0.0,0.0,0.0,0.0,0.0,0.0,0.0,0.0,0.0,0.0,0.0,0.0,0.0,0.0,0.0,0.0,0.0,0.0,0.0,0.0,0.0,0.0,0.5172,0.6503,0.6486,0.6561,0.6886,0.7753,0.7885,0.7855,0.7742,0.527,0.3444,0.0,0.0,0.0,0.0,0.0,0.0,0.0,0.0,0.0,0.0,0.0,0.0,0.0,0.0,0.0,0.0,0.0,0.0,0.0,0.0,0.0,0.0,0.0,0.0,0.0,0.0,0.0,-0.1792,-0.1088,0.0,0.0,0.0,0.0,0.0,0.0,0.0,0.0,0.0,0.0,0.0,-0.284,-0.2601,0.0,0.0,0.0,0.0,0.0,0.0,0.0,0.0,0.0,0.0,0.0,0.0,-0.1507,-0.1509,-0.1689,-0.1803,-0.1803,-0.1803,-0.1724,-0.1613,-0.1533,-0.1443,-0.1298,0.0,0.0,0.0,0.0,0.0,0.0,0.0,0.0,0.0,0.0,0.0,0.0,0.0,0.0,0.0,0.0,0.0,0.0,0.0,0.0,0.0,0.0,0.0,0.0,0.0,0.0,0.0,0.0,0.0,0.0,0.0,0.0,0.0,0.0,0.0,0.0,0.0,0.3987,0.5324,0.6144,0.659,0.659,0.659,0.6794,0.0,0.0,0.0,0.0,0.0,0.0,0.0,0.0,0.0,0.0,0.0,0.0,0.0,0.0,0.6123,0.4658,0.4383,0.4023,0.2837,0.0,0.0,0.0,0.0,0.0,0.0,0.0,0.0,0.0,0.0,0.0,0.0,0.0,0.0,-0.3826,0.0,-0.2234,0.0,0.0,0.0,0.0,0.0,0.0,0.0,0.0,-0.3092,-0.3135,-0.3291,-0.3138,-0.2974,0.0,-0.2815,-0.212,0.0,0.0,0.0,0.0,0.0,0.0,0.0,0.0,-0.1803,-0.1803,-0.1803,-0.1803,-0.1803,-0.1803,-0.1708,-0.1513,-0.1405,-0.1275,-0.1089,-0.0638,-0.0284,0.0,0.0,0.0,0.0,0.0,0.0,0.0,0.0,0.0,0.0,0.0,0.0,0.0,0.0,0.0,0.0,0.0,0.0,0.0,0.0,0.0,0.0,0.0,0.0,0.0,0.0,0.0,0.0,0.0,0.0,0.0,0.0,0.0,0.3684,0.4137,0.4978,0.6411,0.659,0.659,0.659,0.0,0.0,0.0,0.0,0.0,0.0,0.0,0.5348,0.6811,0.6791,0.659,0.659,0.562,0.5226,0.6406,0.0,0.0,0.659,0.6723,0.6493,0.5495,0.6568,0.7249,0.5949,0.6858,0.7906,0.0,0.0,0.0,0.0,0.0,0.0,0.0,0.0,-0.5277,-0.591,0.0,-0.5412,0.0,0.0,0.0,0.0,0.0,-0.4554,0.0,0.0,-0.3995,-0.3899,-0.3909,-0.3882,-0.3892,-0.3896,-0.3457,-0.2916,-0.2305,-0.1672,0.0,0.0,0.0,0.0,0.0,0.0,-0.1803,-0.1803,-0.1803,-0.1803,-0.1803,-0.1803,-0.1703,-0.1507,-0.1238,-0.1035,-0.0899,-0.0709,-0.0422,0.0,0.0,0.0,0.0,0.0,0.0,0.0,0.0,0.0,0.0,0.0,0.0,0.0,0.0,0.0,0.0,0.0,0.0,0.0,0.0,0.0,0.0,0.0027,0.0,0.0,0.0,0.0,0.0,0.0,0.0,0.0,0.0,0.0,0.3407,0.522,0.659,0.6599,0.0,0.0,0.0,0.0,0.659,0.6616,0.659,0.6748,0.713,0.683,0.6873,0.7694,0.0,0.0,0.659,0.6586,0.6545,0.659,0.659,0.659,0.659,0.6909,0.7298,0.7686,0.7437,0.7349,0.7695,0.7678,0.7848,-0.7734,0.0,0.0,0.0,0.0,-0.6315,-0.6553,-0.7181,-0.694,-0.6757,-0.6586,-0.6282,0.0,0.0,0.0,0.0,0.0,0.0,-0.4149,-0.4007,-0.3938,-0.4058,-0.4307,-0.4029,-0.4056,-0.4297,-0.3896,-0.3447,-0.2945,-0.2745,-0.2477,-0.2121,0.0,0.0,0.0,0.0,-0.1907,-0.1803,-0.1803,-0.1803,-0.1803,-0.1803,-0.1662,-0.1373,-0.1105,-0.0945,-0.0904,-0.0751,-0.0529,-0.0227,-0.0086,0.0,0.0,0.0,0.0,0.0,0.0,0.0,0.0,0.0,0.0,0.0,0.0,0.0,0.0,0.0,0.0,0.0,0.0,0.0,0.1738,0.0739,0.0,0.0,0.0,0.0,0.0,0.0,0.0,0.0,0.0,0.0,0.4489,0.575,0.659,0.0,0.0,0.659,0.659,0.659,0.659,0.659,0.0,0.0,0.0,0.6672,0.6681,0.6927,0.677,0.659,0.659,0.659,0.659,0.659,0.659,0.659,0.6616,0.6939,0.7342,0.7739,0.7284,0.6815,0.6944,0.7189,0.7501,-0.9316,-0.8616,-0.7673,-0.7463,-0.7716,-0.7423,-0.7661,-0.8286,-0.7914,-0.7586,-0.7272,-0.7272,-0.6887,-0.6232,-0.6043,0.0,0.0,0.0,-0.4886,-0.4541,-0.4415,-0.4512,-0.4718,-0.4475,-0.4502,-0.4718,-0.4316,-0.3962,-0.3643,-0.3521,-0.3334,-0.3037,0.0,0.0,-0.1958,-0.2028,-0.2015,-0.1886,-0.1881,-0.1844,-0.1803,-0.1713,-0.156,-0.1302,-0.1089,-0.0951,-0.0893,-0.0773,-0.0593,-0.0351,-0.0133,0.0,0.0,0.0,0.0,0.0,0.0,0.0,0.0,0.0,0.0,0.0,0.0,0.0208,0.0,0.0,0.0,0.0,0.0,0.0703,0.2441,0.1654,0.0,0.0,0.0,0.0,0.0,0.0,0.0,0.2637,0.2849,0.3547,0.491,0.5621,0.5998,0.6018,0.6351,0.659,0.659,0.0,0.6538,0.636,0.6486,0.659,0.659,0.659,0.659,0.659,0.659,0.659,0.659,0.659,0.659,0.659,0.659,0.659,0.659,0.6803,0.7023,0.7314,0.6982,0.6616,0.659,0.6803,0.7039,-1.0756,-1.0657,-0.919,-0.8512,-0.8437,-0.8424,-0.8437,-0.8426,-0.8437,-0.8411,-0.8361,-0.8385,-0.8037,-0.7468,-0.7436,0.0,-0.6352,-0.6624,-0.635,-0.5645,-0.5342,-0.5186,-0.5176,-0.5137,-0.5098,-0.5098,-0.4727,-0.4471,-0.4303,-0.4072,-0.3879,-0.3711,-0.2926,-0.2448,-0.232,-0.2324,-0.2261,-0.2121,-0.2074,-0.1975,-0.1803,-0.1609,-0.1437,-0.1313,-0.1177,-0.1041,-0.091,-0.079,-0.062,-0.0429,-0.0183,-0.0022,0.0,0.0,0.0,0.0,0.0,0.0,0.0,0.0,0.0,0.0,0.0,0.0,0.0,0.0,0.0,0.0,0.013,0.0,0.2391,0.2573,0.0,0.0,0.0,0.277,0.3199,0.2995,0.2808,0.2793,0.0,0.0,0.4894,0.0,0.5098,0.5098,0.5898,0.6478,0.6474,0.6439,0.6334,0.59,0.6189,0.6491,0.6564,0.659,0.659,0.659,0.659,0.659,0.659,0.659,0.659,0.659,0.659,0.659,0.659,0.6616,0.659,0.6642,0.6608,0.659,0.6599,0.6612,0.6651,-1.1374,-1.1362,-1.0987,-1.0307,-0.9516,-0.9541,-0.9516,-0.9516,-0.9516,-0.9302,-0.8913,-0.89,-0.86,-0.8089,-0.787,-0.7678,-0.7484,-0.7367,-0.7213,-0.6979,-0.6339,-0.6013,-0.5982,-0.5393,-0.5098,-0.5098,-0.501,-0.4778,-0.446,-0.4388,-0.4182,-0.3862,-0.3655,-0.3474,-0.3358,-0.3344,-0.329,-0.3137,-0.2679,-0.2243,-0.1822,-0.1603,-0.1496,-0.1459,-0.1222,-0.1091,-0.1058,-0.0918,-0.0779,-0.0632,-0.0418,-0.0222,0.0,0.0,0.0,0.0,0.0,0.0,0.0,0.0,0.0,0.0,0.0,0.0502,0.1693,0.0,0.0985,0.0,0.1208,0.1975,0.1999,0.2361,0.0,0.0,0.2666,0.2632,0.2748,0.3804,0.4496,0.4523,0.4506,0.4651,0.5049,0.5098,0.5098,0.5108,0.53,0.5471,0.5462,0.5461,0.5424,0.5358,0.5425,0.5721,0.6448,0.659,0.659,0.659,0.659,0.659,0.659,0.659,0.659,0.659,0.659,0.659,0.659,0.659,0.659,0.659,0.659,0.659,0.659,0.659,0.659,-1.1952,-1.1939,-1.1688,-1.1224,-1.0621,-1.0383,-1.0256,-1.0257,-1.0006,-0.973,-0.9441,-0.9466,-0.929,-0.9014,-0.886,-0.8653,-0.8398,-0.8005,-0.7667,-0.7372,-0.6668,-0.6249,-0.6064,-0.5621,-0.5292,-0.5098,-0.5098,-0.4981,-0.4758,-0.4757,-0.4659,-0.4434,-0.4434,-0.44,-0.4297,-0.3852,-0.3525,-0.3367,-0.286,-0.2457,-0.2177,-0.1933,-0.1792,-0.1709,-0.1391,-0.1156,-0.1097,-0.0978,-0.0834,-0.0698,-0.0659,-0.044,0.0,0.0,0.0,0.0,0.0,0.0,0.0,0.0,0.0,0.0,0.0,0.0,0.0,0.0,0.1514,0.0862,0.1685,0.212,0.1829,0.2064,0.2336,0.2578,0.3259,0.37,0.3721,0.4543,0.5098,0.5098,0.5098,0.5098,0.5098,0.5098,0.5098,0.5098,0.5098,0.5098,0.5098,0.5098,0.5234,0.5604,0.5341,0.5442,0.6439,0.659,0.6439,0.607,0.6316,0.659,0.659,0.659,0.659,0.659,0.659,0.659,0.659,0.659,0.659,0.659,0.659,0.659,0.659,0.659,0.659,-1.2517,-1.245,-1.2002,-1.1789,-1.1766,-1.1186,-1.0883,-1.0769,-1.0231,-0.9943,-0.9893,-0.9893,-0.9893,-0.9893,-0.9893,-0.9642,-0.9165,-0.8667,-0.8114,-0.7551,-0.6917,-0.6407,-0.6026,-0.5922,-0.5625,-0.5205,-0.5185,-0.5156,-0.5098,-0.5098,-0.5098,-0.5098,-0.5098,-0.5098,-0.5049,-0.4143,-0.3525,-0.3272,-0.291,-0.2672,-0.259,-0.2397,-0.2204,-0.2013,-0.1608,-0.1326,-0.1161,-0.0997,-0.0871,-0.0765,-0.0854,-0.0637,-0.0083,-0.0022,0.0,0.0,0.0,0.0,0.0,0.0,0.0,0.0,0.0,0.0,0.0,0.1786,0.1803,0.1803,0.1941,0.2007,0.2007,0.2026,0.2207,0.2704,0.4019,0.4893,0.4903,0.4903,0.4903,0.4893,0.4893,0.4903,0.4853,0.4883,0.4893,0.4844,0.501,0.5243,0.5447,0.5545,0.5818,0.6484,0.5839,0.5612,0.6175,0.636,0.609,0.5405,0.5778,0.6448,0.6561,0.659,0.659,0.659,0.6517,0.6457,0.6422,0.6483,0.659,0.659,0.659,0.659,0.659,0.659,0.659,-1.3065,-1.3035,-1.2952,-1.2897,-1.2864,-1.2312,-1.1823,-1.1387,-1.0795,-1.0306,-0.9905,-0.9893,-0.9893,-0.9893,-0.9893,-0.9855,-0.9742,-0.9628,-0.9374,-0.897,-0.8222,-0.7648,-0.7229,-0.6589,-0.6074,-0.5685,-0.5665,-0.5468,-0.5098,-0.5098,-0.5098,-0.5098,-0.5098,-0.5098,-0.5088,0.0,0.0,0.0,-0.3489,-0.3082,-0.2619,-0.2727,-0.2574,-0.2171,-0.1983,0.0,-0.1432,-0.1184,-0.1052,-0.1015,-0.094,0.0,0.0,0.0,0.0,0.0,0.0,0.0,0.0,0.0,0.0,0.0,0.101,0.1165,0.1379,0.1644,0.1803,0.1825,0.2634,0.3174,0.3183,0.3174,0.3212,0.3341,0.3612,0.3807,0.3807,0.38,0.3807,0.3796,0.3807,0.3807,0.3848,0.3814,0.3828,0.3911,0.4557,0.5659,0.6942,0.7071,0.7248,0.7374,0.6677,0.5953,0.546,0.5497,0.5599,0.5166,0.5214,0.575,0.6469,0.6615,0.659,0.6564,0.6298,0.5881,0.5508,0.6025,0.6564,0.659,0.6582,0.659,0.659,0.659,0.659,-1.321,0.0,-1.321,-1.321,0.0,-1.2897,-1.2638,-1.2325,-1.1512,-1.0985,-1.0748,-1.0748,-1.0583,-1.0307,-1.0294,-1.0064,-0.9659,-0.9437,-0.917,-0.883,-0.8219,-0.7738,-0.7336,-0.6936,-0.6526,-0.6095,-0.589,-0.5675,-0.5439,-0.5215,-0.5098,-0.5098,-0.5098,-0.5098,-0.5098,-0.4844,-0.444,-0.3908,-0.3834,-0.355,-0.3074,-0.3151,-0.3019,-0.266,0.0,0.0,0.0,0.0,0.0,0.0,0.0,0.0,0.0,0.0,0.0,0.0,0.0,0.0,0.0,0.0295,0.0453,0.046,0.0634,0.0978,0.1508,0.1942,0.2325,0.262,0.3183,0.3506,0.3506,0.3506,0.3506,0.3506,0.3506,0.3506,0.3453,0.2998,0.2912,0.34,0.3506,0.3506,0.3506,0.3506,0.3506,0.3527,0.3942,0.4878,0.6246,0.722,0.7681,0.7695,0.7374,0.6911,0.6511,0.6392,0.6363,0.6392,0.6392,0.6587,0.7061,0.6843,0.6444,0.6,0.5649,0.5405,0.5243,0.5732,0.6242,0.6227,0.6045,0.587,0.5898,0.6233,0.6443,-1.3303,-1.321,-1.321,-1.321,-1.321,-1.321,-1.321,-1.3135,0.0,0.0,0.0,-1.1603,-1.1339,-1.0858,-1.0744,-1.0279,-0.9525,-0.9108,-0.869,-0.828,-0.7947,-0.7582,-0.7217,-0.7203,-0.695,-0.6523,-0.6182,-0.5939,-0.5782,-0.541,-0.5166,-0.5098,-0.5098,-0.5098,-0.5078,-0.4874,-0.4527,-0.405,-0.4004,-0.3869,-0.3573,-0.3527,-0.3377,-0.3116,-0.2516,-0.217,-0.21,-0.1611,-0.1305,-0.1246,-0.1055,-0.093,-0.0908,-0.0888,-0.0632,0.0,0.0,0.0,0.0,0.0,0.0,0.0,0.0368,0.0935,0.1748,0.2207,0.2668,0.317,0.3207,0.3202,0.3207,0.3191,0.3207,0.3185,0.3196,0.3185,0.315,0.2521,0.2342,0.3049,0.3351,0.3506,0.3502,0.3732,0.3705,0.3586,0.3801,0.4123,0.5212,0.6565,0.7486,0.7642,0.7608,0.7637,0.7666,0.7598,0.7695,0.7549,0.7598,0.7695,0.7609,0.72,0.6397,0.5359,0.5108,0.5098,0.5117,0.5453,0.5754,0.5773,0.5424,0.5098,0.5166,0.5741,0.6036,-1.369,-1.321,-1.321,-1.321,-1.321,-1.321,-1.321,-1.316,-1.2551,-1.2027,-1.1603,-1.1603,-1.1553,-1.145,-1.0946,-1.0488,-1.0066,-0.9556,-0.8937,0.0,-0.8248,-0.8003,-0.7622,-0.7608,-0.7384,-0.7021,-0.6934,-0.6536,-0.5851,-0.5724,-0.5497,-0.5146,-0.5098,-0.5098,-0.5098,-0.5078,-0.4893,-0.4577,-0.3931,-0.3668,-0.3838,-0.3605,-0.3363,-0.3125,-0.3004,-0.2803,-0.2522,-0.2318,-0.2111,-0.1878,-0.1426,-0.1079,-0.0912,-0.0903,-0.0637,0.0,0.0,0.0,0.0,0.0,0.0,0.0,0.038,0.0935,0.1714,0.1862,0.1951,0.2029,0.2095,0.204,0.204,0.2088,0.211,0.2099,0.2055,0.2051,0.2111,0.2375,0.2413,0.2211,0.2923,0.3475,0.3534,0.433,0.4576,0.3936,0.4335,0.5079,0.5346,0.6068,0.6904,0.751,0.7695,0.7695,0.7695,0.7695,0.7695,0.7695,0.7695,0.7695,0.7695,0.7566,0.6948,0.545,0.5194,0.5097,0.5078,0.5146,0.5262,0.5272,0.5146,0.5098,0.5098,0.53,0.5309,-1.3934,-1.3677,-1.3323,-1.321,-1.321,-1.321,-1.321,-1.3185,-1.2935,-1.2701,-1.2475,-1.2479,-1.2316,-1.1989,-1.1435,-1.0823,-1.0173,-0.9634,-0.9006,-0.8333,-0.8305,-0.8091,-0.771,-0.7695,-0.7608,-0.7404,-0.7207,-0.6768,-0.6164,-0.5921,-0.5557,-0.5137,-0.5098,-0.5098,-0.5098,-0.5098,-0.503,-0.4912,-0.4547,-0.4211,-0.3914,-0.3636,-0.344,-0.3313,-0.3177,-0.3033,-0.2884,-0.2572,-0.2332,-0.2228,-0.1678,-0.1289,-0.1132,-0.1289,-0.1263,-0.0979,-0.0361,0.0,0.0,0.0,0.0,0.0,0.0168,0.0424,0.0793,0.1424,0.1803,0.1803,0.1803,0.1803,0.1803,0.1803,0.1803,0.1803,0.1803,0.1803,0.1836,0.216,0.2388,0.2325,0.2568,0.286,0.3032,0.4364,0.5159,0.4589,0.5032,0.5309,0.5309,0.5601,0.596,0.6382,0.7086,0.7637,0.7666,0.7695,0.7695,0.7695,0.7695,0.7695,0.7695,0.7681,0.7317,0.6636,0.5843,0.5081,0.4787,0.4922,0.5049,0.5098,0.5098,0.5098,0.5098,0.5098,0.5098,-1.4299,-1.4053,-1.3735,-1.3516,-1.3391,-1.3265,-1.321,-1.321,-1.3198,-1.321,-1.321,-1.321,-1.296,-1.2551,-1.2027,-1.127,-1.0382,-0.9813,-0.9131,-0.8347,-0.8305,-0.808,-0.7739,-0.7695,-0.7695,-0.7666,-0.7379,-0.7012,-0.655,-0.6144,-0.5645,-0.5156,-0.5098,-0.5098,-0.5098,-0.5098,-0.5098,-0.5098,-0.5098,-0.4745,-0.4017,-0.3678,-0.3506,-0.3493,-0.3313,-0.3183,-0.3161,-0.2844,-0.2587,-0.2456,-0.207,-0.1731,-0.1446,-0.1655,-0.1803,-0.1714,-0.0936,-0.028,0.0,0.0,0.0,0.0,0.0,0.0,0.0,0.0836,0.1383,0.1391,0.1336,0.1458,0.1725,0.1803,0.1803,0.1803,0.1803,0.1803,0.1822,0.2093,0.2388,0.2611,0.2457,0.2447,0.2853,0.3865,0.4748,0.5159,0.5309,0.5309,0.5309,0.5309,0.5309,0.5545,0.6382,0.7011,0.7151,0.7116,0.7071,0.716,0.7116,0.7002,0.7026,0.7101,0.7121,0.6789,0.6045,0.52,0.4673,0.4685,0.494,0.505,0.5134,0.5298,0.5779,0.536,0.5127,-1.4991,-1.4242,-1.4532,-1.4462,-1.3972,-1.3441,-1.3235,-1.3223,-1.321,-1.321,-1.321,-1.321,-1.3185,-1.3048,-1.2551,-1.1801,-1.09,-1.0379,-0.9483,-0.8411,-0.8305,-0.8076,-0.7739,-0.7695,-0.7695,-0.7686,-0.7637,-0.7398,-0.6982,-0.6533,-0.5926,-0.5185,-0.5098,-0.5098,-0.5098,-0.5098,-0.5098,-0.5098,-0.5098,-0.4824,-0.4273,-0.3762,-0.3506,-0.3506,-0.3479,-0.3466,-0.3453,-0.3419,-0.3165,-0.2741,-0.2825,-0.2577,-0.189,-0.1789,-0.1803,-0.1792,-0.167,-0.1181,0.0,0.0,0.0,0.0,0.0,0.0,0.0,0.0,0.0,0.0,0.0,0.068,0.1626,0.1736,0.167,0.1648,0.177,0.1803,0.1902,0.2307,0.2669,0.2669,0.2652,0.2652,0.2719,0.299,0.3626,0.4874,0.4985,0.5119,0.5309,0.5309,0.5309,0.5309,0.5545,0.5601,0.5663,0.5545,0.5742,0.5671,0.5592,0.571,0.5804,0.5742,0.5554,0.5952,0.5591,0.5261,0.5068,0.4845,0.4642,0.4969,0.5235,0.5665,0.6766,0.629,0.5436,-1.5449,-1.5054,-1.4934,-1.479,-1.4513,-1.3966,-1.3727,-1.3697,-1.3353,-1.321,-1.321,-1.321,-1.321,-1.316,-1.2638,-1.2008,-1.1339,-1.0769,-0.9927,-0.8985,-0.8703,-0.8407,-0.8062,-0.7797,-0.7695,-0.7695,-0.7695,-0.7505,-0.7051,-0.6387,-0.587,-0.5528,-0.5244,-0.5098,-0.5098,-0.5098,-0.5098,-0.5098,-0.5098,-0.4912,-0.4555,-0.4099,-0.3814,-0.3731,-0.359,-0.3506,-0.3506,-0.3506,-0.333,-0.2971,-0.2896,-0.2848,-0.2816,-0.2161,-0.1803,-0.1803,-0.1803,-0.1604,-0.1105,-0.0725,-0.0392,-0.0034,0.0,0.0,0.0,0.0,0.0,0.0,0.0,0.0247,0.0,0.0,0.0747,0.0836,0.1361,0.1916,0.2307,0.2539,0.2679,0.2679,0.2679,0.2679,0.2679,0.2679,0.299,0.367,0.3784,0.4145,0.5023,0.5309,0.5309,0.5309,0.5309,0.5309,0.5309,0.5309,0.5309,0.5309,0.5309,0.5309,0.5309,0.5309,0.5325,0.5309,0.5309,0.5309,0.5293,0.5124,0.4946,0.5033,0.5118,0.5561,0.6183,0.6491,0.6563,-1.5831,-1.5618,-1.5123,-1.4997,-1.506,-1.4551,-1.4223,-1.4047,-1.3639,-1.3366,-1.321,-1.321,-1.321,-1.3148,-1.2789,-1.2205,-1.1454,-1.0976,-1.0169,-0.9172,-0.88,-0.8481,-0.8134,-0.7846,-0.7695,-0.7695,-0.7695,-0.7496,-0.7051,-0.6338,-0.591,-0.5753,-0.5331,-0.5098,-0.5098,-0.5098,-0.5098,-0.5098,-0.504,-0.4893,-0.4666,-0.4262,-0.4004,-0.389,-0.3647,-0.3506,-0.3506,-0.3506,-0.3379,-0.3111,-0.2907,-0.2859,-0.2993,-0.2394,-0.1978,-0.1814,-0.1803,-0.1803,-0.1803,-0.138,-0.0814,-0.0134,-0.018,-0.0235,0.0,0.0,0.0,0.0,0.0,0.0,0.0,0.0,0.0,0.0,0.0845,0.1499,0.1837,0.1956,0.2109,0.258,0.2679,0.2679,0.2679,0.2679,0.2762,0.2795,0.2795,0.3023,0.4355,0.4922,0.5309,0.5309,0.5309,0.5309,0.5309,0.5309,0.5309,0.5309,0.5309,0.5309,0.5309,0.5309,0.5309,0.5309,0.5309,0.5309,0.5309,0.5257,0.521,0.4904,0.4992,0.5309,0.5514,0.6357,0.6802,-1.6183,-1.5655,-1.5123,-1.5248,-1.5638,-1.5097,-1.4595,-1.4154,-1.4065,-1.3709,-1.3235,-1.321,-1.3198,-1.3181,-1.3106,-1.2395,-1.1202,-1.1015,-1.0096,-0.8606,-0.8389,-0.8119,-0.7725,-0.7695,-0.7695,-0.7695,-0.7695,-0.7491,-0.7096,-0.6599,-0.616,-0.5802,-0.5341,-0.5098,-0.5098,-0.5088,-0.5098,-0.5049,-0.4853,-0.4696,-0.4626,-0.4163,-0.3921,-0.388,-0.3654,-0.3506,-0.3506,-0.3506,-0.3383,-0.3121,-0.3079,-0.2751,-0.2055,-0.235,-0.2328,-0.1891,-0.1803,-0.1803,-0.1803,-0.1748,-0.1269,-0.0359,-0.0672,-0.0816,-0.0247,0.0,0.0,0.0,0.0,0.0,0.0,0.0,0.0,0.0,0.0,0.0,0.0,0.0,0.0,0.2175,0.2613,0.2679,0.2679,0.2679,0.2679,0.2679,0.2679,0.2812,0.3134,0.4285,0.4969,0.5081,0.5119,0.5252,0.5261,0.5309,0.5309,0.5309,0.5309,0.5309,0.5309,0.5309,0.5293,0.5293,0.5309,0.5309,0.5309,0.5302,0.5289,0.5172,0.5152,0.5309,0.5309,0.5309,0.5679,-1.6387,-1.6187,-1.6007,-1.6045,-1.6145,-1.563,-1.513,-1.4601,-1.4254,-1.3752,-1.329,-1.321,-1.303,-1.2756,-1.3077,-1.2735,-1.1881,-1.1282,-1.0456,-0.9483,-0.8688,-0.8233,-0.8076,-0.7827,-0.7695,-0.7695,-0.7695,-0.7627,-0.7418,-0.6755,-0.6326,-0.6084,-0.5448,-0.5098,-0.5078,-0.4922,-0.4834,-0.4824,-0.4577,-0.4446,-0.4414,-0.4089,-0.3911,-0.389,-0.3647,-0.3506,-0.3506,-0.3506,-0.3372,-0.3121,-0.3111,-0.2708,-0.1946,-0.1997,-0.2044,-0.1825,-0.1803,-0.1803,-0.1803,-0.1803,-0.1637,-0.1225,-0.1027,-0.1103,-0.1005,0.0,0.0,0.0,0.0,0.0,0.0,0.0,0.0,0.0,0.0,0.0,0.0,0.0,0.0285,0.1004,0.1892,0.2679,0.2663,0.2679,0.2679,0.2679,0.2679,0.2679,0.2746,0.3331,0.3735,0.367,0.3642,0.3642,0.3642,0.4708,0.5293,0.5309,0.5309,0.5284,0.5268,0.5119,0.5055,0.4985,0.5065,0.5309,0.5309,0.5198,0.523,0.5309,0.5309,0.5309,0.5309,0.5309,0.5309,-1.6513,-1.6513,-1.6513,-1.6513,-1.645,-1.6132,-1.5643,-1.5135,-1.4777,-1.4192,-1.3596,-1.3496,-1.3221,-1.2827,-1.306,-1.2925,-1.2369,-1.1616,-1.0746,-0.983,-0.8956,-0.8398,-0.8097,-0.7817,-0.7695,-0.7695,-0.7695,-0.7695,-0.7618,-0.6979,-0.6572,-0.6345,-0.5652,-0.5234,-0.5088,-0.4913,-0.4795,-0.4675,-0.4426,-0.4254,-0.4171,-0.3903,-0.3765,-0.3751,-0.3584,-0.3506,-0.3506,-0.3506,-0.3432,-0.3245,-0.3153,-0.2697,-0.1924,-0.1803,-0.1803,-0.1803,-0.1803,-0.1803,-0.1803,-0.1803,-0.1803,-0.1792,-0.1458,-0.1391,-0.1692,-0.1036,-0.0648,-0.0537,0.0,0.0,0.0,0.0,0.0,0.0,0.0,0.0,0.0,0.0,0.0,0.0,0.1022,0.1923,0.2577,0.2663,0.2679,0.2679,0.2679,0.2679,0.2679,0.2679,0.2679,0.2696,0.2812,0.2861,0.294,0.3735,0.414,0.4188,0.4382,0.4596,0.4944,0.481,0.4628,0.4628,0.4836,0.5151,0.523,0.5119,0.5135,0.5214,0.5309,0.5309,0.5309,0.5309,0.5309,-1.6513,-1.6513,-1.6513,-1.6513,-1.65,-1.645,-1.6162,-1.5668,-1.5605,-1.4959,-1.4047,-1.4053,-1.3649,-1.3221,-1.3146,-1.2936,-1.2406,-1.1971,-1.0895,-0.9416,-0.908,-0.8545,-0.7847,-0.7729,-0.7695,-0.7695,-0.7695,-0.7695,-0.7656,-0.7242,-0.6846,-0.6426,-0.5977,-0.5537,-0.5117,-0.5078,-0.4922,-0.4675,-0.4396,-0.415,-0.39,-0.3657,-0.3538,-0.3527,-0.3506,-0.3506,-0.3506,-0.3506,-0.3485,-0.3446,-0.3245,-0.2697,-0.2066,-0.1858,-0.1803,-0.1803,-0.1803,-0.1803,-0.1803,-0.1803,-0.1803,-0.1792,-0.177,-0.1752,-0.1857,-0.1734,-0.1615,-0.1446,-0.0819,0.0,0.0,0.0,0.0,0.0,0.0,0.0,0.0,0.0,0.0,0.0,0.0,0.0,0.2075,0.2377,0.2344,0.2596,0.2679,0.2679,0.2679,0.2679,0.2679,0.2679,0.2679,0.2679,0.2679,0.2729,0.2762,0.2828,0.3072,0.3331,0.4,0.4097,0.3609,0.3556,0.4108,0.4436,0.4542,0.4446,0.459,0.4708,0.4953,0.5198,0.5309,0.5309,0.5309,-1.6513,-1.6513,-1.6513,-1.6513,-1.6513,-1.6513,-1.6208,-1.5718,-1.5693,-1.5097,-1.4242,-1.4103,-1.3573,-1.2959,-1.303,-1.2785,-1.2072,-1.213,-1.1451,-1.0037,-0.9064,-0.8514,-0.8175,-0.7846,-0.7695,-0.7695,-0.7695,-0.7695,-0.7627,-0.7301,-0.7012,-0.6777,-0.6154,-0.5753,-0.5566,-0.5102,-0.4696,-0.4435,-0.416,-0.389,-0.3647,-0.3559,-0.3506,-0.3506,-0.3506,-0.3506,-0.3506,-0.3506,-0.3506,-0.3506,-0.3404,-0.3245,-0.2902,-0.2226,-0.1825,-0.1803,-0.1803,-0.1803,-0.1803,-0.1806,-0.1813,-0.1803,-0.1803,-0.2017,-0.2304,-0.2046,-0.1844,-0.1863,-0.1763,-0.1456,0.0,0.0,0.0,0.0,0.0,0.0,0.0,0.0,0.0,0.0,0.0,0.0,0.0,0.0,0.1438,0.2394,0.2563,0.258,0.2679,0.2679,0.2679,0.2679,0.2679,0.2679,0.2679,0.2679,0.2679,0.2679,0.2729,0.2746,0.3266,0.3462,0.2924,0.2828,0.338,0.3653,0.3751,0.3876,0.4027,0.4156,0.4333,0.4708,0.5166,0.5309,0.5309,-1.6513,-1.6513,-1.6513,-1.6513,-1.6513,-1.6513,-1.6312,-1.6032,-1.6007,-1.5399,-1.4551,-1.44,-1.3796,-1.2983,-1.3077,-1.2756,-1.212,-1.2222,-1.166,-1.0563,-0.9439,-0.8728,-0.8397,-0.7924,-0.7695,-0.7695,-0.7695,-0.7695,-0.7686,-0.7457,-0.7228,-0.7002,-0.6533,-0.6182,-0.5996,-0.5426,-0.4982,-0.4694,-0.4273,-0.3921,-0.3689,-0.3559,-0.3506,-0.3506,-0.3506,-0.3506,-0.3506,-0.3506,-0.3506,-0.3506,-0.3506,-0.3506,-0.3442,-0.2805,-0.2248,-0.1869,-0.1803,-0.1803,-0.1809,-0.1882,-0.1875,-0.1827,-0.1803,-0.207,-0.2493,-0.2304,-0.2143,-0.2201,-0.2408,-0.2225,-0.1268,0.0,-0.0748,0.0,0.0,0.0,0.0,0.0,0.0,0.0,0.0,0.0,0.0,0.0,0.0,0.1488,0.169,0.2159,0.2377,0.2679,0.2646,0.2646,0.2679,0.2679,0.2679,0.2679,0.2679,0.2679,0.2696,0.2696,0.2924,0.299,0.2679,0.2679,0.3056,0.3105,0.32,0.3364,0.3507,0.3621,0.3767,0.4205,0.4676,0.5214,0.5309,-1.6513,-1.6513,-1.6513,-1.6513,-1.6513,-1.6513,-1.6475,-1.6475,-1.6463,-1.5881,-1.5085,-1.4865,-1.4262,-1.3406,-1.3248,-1.2908,-1.2478,-1.212,-1.1623,-1.0861,-0.9981,-0.9151,-0.8299,-0.7876,-0.7705,-0.7695,-0.7695,-0.7695,-0.7695,-0.7647,-0.7525,-0.7184,-0.7051,-0.6875,-0.6445,-0.6035,-0.5639,-0.5242,-0.4677,-0.4226,-0.3884,-0.3678,-0.3526,-0.3513,-0.3506,-0.3506,-0.3506,-0.3506,-0.3506,-0.3506,-0.3506,-0.3506,-0.3506,-0.3485,-0.2923,-0.1924,-0.1803,-0.1803,-0.1833,-0.1979,-0.2042,-0.1955,-0.1974,-0.2077,-0.2585,-0.2628,-0.2576,-0.2571,-0.2645,-0.2663,-0.2527,-0.246,-0.1701,0.0,0.0,0.0,0.0,0.0,0.0,0.0,0.0,0.0,0.0,0.0,0.0,0.0,0.0,0.0987,0.1723,0.2075,0.2414,0.2414,0.2261,0.2679,0.2679,0.2679,0.2686,0.2751,0.2788,0.2846,0.2727,0.2679,0.2679,0.2679,0.2679,0.2679,0.2746,0.2973,0.3023,0.3056,0.3331,0.3735,0.4172,0.4676,0.5231,-1.6513,-1.6513,-1.6513,-1.6513,-1.6513,-1.6513,-1.6513,-1.6513,-1.6513,-1.6086,-1.5492,-1.5072,-1.4525,-1.3858,-1.3378,-1.2943,-1.2579,-1.2354,-1.1818,-1.0965,-1.0109,-0.9008,-0.8068,-0.7763,-0.7695,-0.7695,-0.7695,-0.7695,-0.7695,-0.7695,-0.7637,-0.752,-0.7242,-0.707,-0.6855,-0.6475,-0.5957,-0.5445,-0.5039,-0.4522,-0.4021,-0.3922,-0.3734,-0.3519,-0.3519,-0.3526,-0.3513,-0.3506,-0.3506,-0.3506,-0.3506,-0.3506,-0.3506,-0.3495,-0.3036,-0.2143,-0.1828,-0.1803,-0.1846,-0.2038,-0.2231,-0.245,-0.2396,-0.2529,-0.2662,-0.2679,-0.2679,-0.2679,-0.2679,-0.2679,-0.2679,-0.2679,-0.1807,0.0,0.0,0.0,0.0,0.0,0.0,0.0,0.0,0.0,0.0,0.0,0.0,0.0,0.0,0.0,0.0,0.1039,0.1191,0.1392,0.1492,0.2261,0.2679,0.2679,0.2727,0.2798,0.2928,0.314,0.2925,0.2679,0.2679,0.2679,0.2679,0.2679,0.2679,0.2795,0.2696,0.271,0.2967,0.3401,0.3622,0.4032,0.4828,-1.6513,-1.6513,-1.6513,-1.6513,-1.6513,-1.6513,-1.6513,-1.6513,-1.65,-1.6187,-1.5668,-1.5123,-1.4601,-1.406,-1.3466,-1.3064,-1.2791,-1.2579,-1.2174,-1.154,-1.0321,-0.8998,-0.7985,-0.7695,-0.7695,-0.7695,-0.7695,-0.7695,-0.7695,-0.7695,-0.7695,-0.7647,-0.7476,-0.7349,-0.732,-0.6911,-0.6507,-0.6106,-0.5658,-0.5117,-0.4579,-0.445,-0.4224,-0.3941,-0.3823,-0.381,-0.3963,-0.3936,-0.3778,-0.3586,-0.3506,-0.3506,-0.3506,-0.3506,-0.3191,-0.2513,-0.2099,-0.1803,-0.1846,-0.2053,-0.2335,-0.2605,-0.2679,-0.2679,-0.2679,-0.2679,-0.2679,-0.2679,-0.2679,-0.2679,-0.2679,-0.2679,-0.2208,0.0,-0.1139,-0.082,-0.0134,0.0,0.0,0.0,0.0,0.0,0.0,0.0,0.0,0.0,0.0,0.0,0.0,0.0,0.0171,0.0663,0.0801,0.134,0.2195,0.2424,0.2904,0.3,0.3119,0.3337,0.3088,0.2788,0.2737,0.274,0.2706,0.2703,0.2751,0.2774,0.2781,0.2849,0.2931,0.3029,0.3256,0.3526,0.4308,-1.6513,-1.6513,-1.6513,-1.6513,-1.6513,-1.6513,-1.6513,-1.6513,-1.6513,-1.6237,-1.5756,-1.5173,-1.4664,-1.4123,-1.344,-1.3116,-1.3146,-1.2697,-1.2401,-1.1675,-1.0498,-0.9029,-0.7954,-0.7739,-0.7705,-0.7695,-0.7695,-0.7695,-0.7695,-0.7695,-0.7695,-0.7686,-0.7676,-0.7686,-0.754,-0.7259,-0.7118,-0.6848,-0.6124,-0.5599,-0.5199,-0.4965,-0.4637,-0.4333,-0.4168,-0.4275,-0.4462,-0.4442,-0.4123,-0.3632,-0.3535,-0.3513,-0.3506,-0.3506,-0.3637,-0.3595,-0.2975,-0.2462,-0.222,-0.2473,-0.2383,-0.2645,-0.2679,-0.2679,-0.2679,-0.2679,-0.2679,-0.2679,-0.2679,-0.2679,-0.2679,-0.2679,-0.2613,-0.2361,-0.253,-0.184,-0.072,0.0,0.0,0.0,0.0,0.0,0.0,0.0,0.0,0.0,0.0,0.0,0.0,0.0,0.0,0.07,0.0635,0.0366,0.1267,0.2121,0.2805,0.3285,0.3394,0.3464,0.3211,0.2983,0.2897,0.288,0.3027,0.303,0.2959,0.2965,0.2893,0.2968,0.3059,0.3,0.2975,0.3235,0.3819,-1.6513,-1.6513,-1.6513,-1.6513,-1.6513,-1.6513,-1.6513,-1.6513,-1.6513,-1.6412,-1.6132,-1.5324,-1.4833,-1.4645,-1.3398,-1.2855,-1.3129,-1.2708,-1.2166,-1.1251,-1.0282,-0.9221,-0.8316,-0.7924,-0.7715,-0.7695,-0.7695,-0.7695,-0.7695,-0.7695,-0.7695,-0.7695,-0.7695,-0.7695,-0.7637,-0.7328,-0.7116,-0.6935,-0.6101,-0.5597,-0.5415,-0.5105,-0.4768,-0.4476,-0.4395,-0.4476,-0.4596,-0.4523,-0.4342,-0.4129,-0.3811,-0.3645,-0.3586,-0.3592,-0.3976,-0.4541,-0.4651,-0.4443,-0.4284,-0.3284,-0.2598,-0.2672,-0.2679,-0.2679,-0.2679,-0.2679,-0.2679,-0.2679,-0.2679,-0.2679,-0.2679,-0.2679,-0.2679,-0.2679,-0.2679,-0.256,-0.1973,0.0,0.0,0.0,0.0,0.0,0.0,0.0,0.0,0.0,0.0,0.0,0.0,0.0,0.0,0.0,0.0,0.0,0.0,0.0,0.2238,0.3176,0.3534,0.359,0.3337,0.3259,0.3208,0.3286,0.3433,0.3368,0.3211,0.2993,0.2914,0.3049,0.3195,0.313,0.3126,0.3225,0.33,-1.6513,-1.6513,-1.6513,-1.6513,-1.6513,-1.6513,-1.6513,-1.6513,-1.6513,-1.6513,-1.6262,-1.5374,-1.4896,-1.4777,-1.3508,-1.3007,-1.3042,-1.2703,-1.1982,-1.1109,-1.0294,-0.9565,-0.8767,-0.8242,-0.7959,-0.7744,-0.7695,-0.7695,-0.7695,-0.7695,-0.7695,-0.7695,-0.7695,-0.7695,-0.7627,-0.7305,-0.7126,-0.6983,-0.6344,-0.5834,-0.5612,-0.5429,-0.5131,-0.4887,-0.4831,-0.4891,-0.4957,-0.489,-0.4844,-0.475,-0.4502,-0.4183,-0.403,-0.4183,-0.4676,-0.5126,-0.5309,-0.5309,-0.4893,-0.3767,-0.2673,-0.2696,-0.2696,-0.2679,-0.2679,-0.2679,-0.2679,-0.2679,-0.2679,-0.2679,-0.2679,-0.2679,-0.2679,-0.2679,-0.2679,-0.2679,-0.2411,0.0,0.0,0.0,0.0,0.0,0.0,0.0,0.0,0.0,0.0,0.0,0.0,0.0,0.0,0.0,0.0,0.0,0.0,0.0,0.0,0.2593,0.3556,0.36,0.3501,0.3512,0.3556,0.3583,0.3566,0.358,0.3419,0.318,0.3075,0.3286,0.3406,0.3344,0.3341,0.3413,0.3464,-1.6513,-1.6513,-1.6513,-1.6445,-1.638,-1.6457,-1.6436,-1.6358,-1.6479,-1.6423,-1.6184,-1.5296,-1.4819,-1.4498,-1.3527,-1.3066,-1.2873,-1.2685,-1.1949,-1.1031,-1.0534,-0.978,-0.9044,-0.8532,-0.8121,-0.7734,-0.7695,-0.7695,-0.7695,-0.7695,-0.7695,-0.7695,-0.7695,-0.7695,-0.7598,-0.7314,-0.7115,-0.7025,-0.6527,-0.612,-0.5861,-0.5738,-0.5482,-0.5297,-0.5228,-0.5228,-0.5233,-0.5242,-0.5269,-0.5309,-0.5309,-0.5025,-0.4831,-0.4958,-0.5309,-0.5309,-0.5309,-0.5309,-0.5135,-0.4075,-0.3167,-0.2861,-0.2895,-0.2812,-0.2779,-0.2679,-0.2679,-0.2679,-0.2679,-0.2679,-0.2679,-0.2679,-0.2679,-0.2679,-0.2679,-0.2679,-0.2443,-0.1312,0.0,0.0,0.0,0.0,0.0,0.0,0.0,0.0,0.0,0.0,0.0,0.0,0.0,0.0,0.0,0.0,0.0,0.0,0.0,0.1744,0.2996,0.3401,0.3445,0.36,0.36,0.36,0.3597,0.36,0.36,0.3457,0.344,0.3593,0.357,0.3484,0.3515,0.359,0.36,-1.6513,-1.6513,-1.6513,-1.6216,-1.5864,-1.6259,-1.6194,-1.5898,-1.6259,-1.6194,-1.568,-1.5109,-1.4589,-1.3982,-1.3031,-1.2374,-1.2201,-1.2156,-1.1854,-1.1002,-1.0534,-0.9878,-0.9148,-0.8678,-0.8209,-0.7817,-0.7695,-0.7695,-0.7695,-0.7695,-0.7695,-0.7695,-0.7695,-0.7695,-0.7583,-0.7329,-0.7065,-0.6916,-0.6412,-0.6006,-0.582,-0.5601,-0.5435,-0.5309,-0.5309,-0.5309,-0.5309,-0.5309,-0.5309,-0.5309,-0.5309,-0.5248,-0.5139,-0.5226,-0.5302,-0.5309,-0.5309,-0.5309,-0.5182,-0.5033,-0.4032,-0.3319,-0.3224,-0.3237,-0.2895,-0.2679,-0.2679,-0.2679,-0.2679,-0.2679,-0.2679,-0.2679,-0.2679,-0.2679,-0.2754,-0.2761,-0.2752,-0.2597,-0.1757,0.0,0.0,0.0,0.0,0.0,0.0,0.0,0.0,0.0,0.0,0.0,0.0,0.0,0.0,0.0,0.0,0.0,0.0,0.0,0.1878,0.2884,0.3084,0.3467,0.36,0.36,0.36,0.36,0.36,0.36,0.36,0.36,0.36,0.3604,0.36,0.36,0.36,-1.6513,-1.6513,-1.6513,-1.6151,-1.5698,-1.5898,-1.5688,-1.5265,-1.5754,-1.571,-1.5224,-1.4883,-1.4345,-1.3567,-1.2794,-1.205,-1.1603,-1.1579,-1.129,-1.0663,-1.0397,-1.0011,-0.9307,-0.8887,-0.8493,-0.8115,-0.7856,-0.7695,-0.7695,-0.7695,-0.7695,-0.7695,-0.7695,-0.7695,-0.7598,-0.7314,-0.7005,-0.6736,-0.6244,-0.5797,-0.5625,-0.5379,-0.5325,-0.5309,-0.5309,-0.5309,-0.5309,-0.5309,-0.5309,-0.5309,-0.5309,-0.5309,-0.5309,-0.5309,-0.5309,-0.5309,-0.5309,-0.5309,-0.5309,-0.5277,-0.4666,-0.363,-0.3467,-0.3155,-0.2828,-0.2679,-0.2679,-0.2679,-0.2679,-0.2679,-0.2679,-0.2679,-0.2679,-0.274,-0.2942,-0.3119,-0.3215,-0.3443,-0.2154,0.0,0.0,0.0,0.0,0.0,0.0,0.0,0.0,0.0,0.0,0.0,0.0,0.0,0.0,0.0,0.0,0.0,0.0,0.0,0.0,0.0,0.2348,0.2593,0.3198,0.36,0.36,0.36,0.36,0.36,0.36,0.3607,0.3624,0.3634,0.361,0.36,0.36,-1.6513,-1.6513,-1.6513,-1.6151,-1.5654,-1.5598,-1.5276,-1.488,-1.5208,-1.5073,-1.4584,-1.4506,-1.4041,-1.3216,-1.2591,-1.1896,-1.104,-1.1046,-1.0791,-1.0448,-1.0321,-1.0029,-0.9601,-0.9192,-0.875,-0.8316,-0.7905,-0.7695,-0.7695,-0.7695,-0.7695,-0.7695,-0.7695,-0.7695,-0.7613,-0.7427,-0.6984,-0.6624,-0.6229,-0.5828,-0.5435,-0.5309,-0.5309,-0.5309,-0.5309,-0.5309,-0.5309,-0.5309,-0.5309,-0.5309,-0.5309,-0.5309,-0.5309,-0.5309,-0.5309,-0.5309,-0.5309,-0.5309,-0.5309,-0.5293,-0.489,-0.3945,-0.3335,-0.2994,-0.2696,-0.2679,-0.2679,-0.2679,-0.2679,-0.2679,-0.2679,-0.2679,-0.2679,-0.2812,-0.3194,-0.358,-0.3532,-0.3265,-0.2326,0.0,0.0,0.0,0.0,0.0,0.0,0.0,0.0,0.0,0.0,0.0,0.0,0.0,0.0,0.0,0.0,0.0,0.0,0.0,0.0,0.0,0.0,0.15,0.2281,0.3106,0.36,0.36,0.36,0.36,0.36,0.3617,0.3651,0.3658,0.3628,0.3607,0.36,-1.6513,-1.6513,-1.6513,-1.6151,-1.5654,-1.5588,-1.5231,-1.4721,-1.4766,-1.4445,-1.3909,-1.3918,-1.3619,-1.2987,-1.2518,-1.1811,-1.1232,-1.0905,-1.0706,-1.0341,-1.0283,-1.0078,-0.963,-0.9182,-0.8857,-0.8473,-0.7998,-0.7725,-0.7695,-0.7695,-0.7695,-0.7695,-0.7695,-0.7695,-0.7681,-0.7583,-0.7417,-0.7029,-0.6594,-0.6021,-0.546,-0.5325,-0.5309,-0.5309,-0.5309,-0.5309,-0.5309,-0.5309,-0.5309,-0.5309,-0.5309,-0.5309,-0.5309,-0.5309,-0.5309,-0.5309,-0.5309,-0.5309,-0.5309,-0.5293,-0.4922,-0.4188,-0.3733,-0.3401,-0.2924,-0.2679,-0.2679,-0.2679,-0.2679,-0.2764,-0.2791,-0.2751,-0.272,-0.2918,-0.3276,-0.3539,-0.36,-0.3556,-0.2526,0.0,0.0,0.0,0.0,0.0,0.0,0.0,0.0,0.0,0.0,0.0,0.0,0.0,0.0,0.0,0.0,0.0,0.0,0.0,0.0,0.0,0.0,0.0,0.1588,0.2346,0.2973,0.3537,0.36,0.36,0.36,0.3658,0.3714,0.3683,0.3641,0.3631,0.3672,-1.6513,-1.6513,-1.6513,-1.6139,-1.5588,-1.5253,-1.4755,-1.4283,-1.4167,-1.3849,-1.3443,-1.3684,-1.3341,-1.2601,-1.1871,-1.1337,-1.0954,-1.0722,-1.0525,-1.0361,-1.0283,-1.0176,-0.9942,-0.9542,-0.9141,-0.8737,-0.8301,-0.7949,-0.7817,-0.7705,-0.7695,-0.7695,-0.7695,-0.7695,-0.7695,-0.7695,-0.7456,-0.6969,-0.632,-0.5797,-0.5617,-0.5435,-0.5309,-0.5309,-0.5309,-0.5309,-0.5309,-0.5309,-0.5309,-0.5309,-0.5309,-0.5309,-0.5309,-0.5309,-0.5309,-0.5309,-0.5309,-0.5309,-0.5309,-0.5261,-0.473,-0.407,-0.3581,-0.3043,-0.2746,-0.271,-0.271,-0.2679,-0.2679,-0.2836,-0.3112,-0.3204,-0.3211,-0.3293,-0.3423,-0.3491,-0.36,-0.3556,-0.3062,-0.1945,0.0,0.0,0.0,0.0,0.0,0.0,0.0,0.0,0.0,0.0,0.0,0.0,0.0,0.0,0.0,0.0,0.0,0.0,0.0,0.0,0.0,0.0,0.0,0.0,0.2498,0.3013,0.342,0.3655,0.3706,0.3748,0.3816,0.3863,0.3931,0.3863,0.3931,-1.6259,-1.6281,-1.6423,-1.6238,-1.5742,-1.5017,-1.4479,-1.405,-1.3695,-1.3324,-1.3113,-1.3338,-1.3034,-1.223,-1.1508,-1.1129,-1.0869,-1.0498,-1.0342,-1.0322,-1.0322,-1.0312,-1.0098,-0.9796,-0.9435,-0.9141,-0.8555,-0.8223,-0.7963,-0.7763,-0.7695,-0.7695,-0.7695,-0.7695,-0.7695,-0.7666,-0.75,-0.7074,-0.6496,-0.6091,-0.5843,-0.5475,-0.5356,-0.5309,-0.5309,-0.5309,-0.5309,-0.5309,-0.5309,-0.5309,-0.5309,-0.5309,-0.5309,-0.5309,-0.5309,-0.5309,-0.5309,-0.4953,-0.466,-0.4371,-0.4258,-0.3723,-0.322,-0.2799,-0.2743,-0.2733,-0.2884,-0.2979,-0.2989,-0.3218,-0.346,-0.3566,-0.3522,-0.3505,-0.3573,-0.3593,-0.36,-0.3578,-0.3442,-0.266,0.0,0.0,0.0,0.0,0.0,0.0,0.0,0.0,0.0,0.0,0.0,0.0,0.0,0.0,0.0,0.0,0.0,0.0,0.0,0.0,0.0,0.0,0.0,0.0,0.0,0.2846,0.3478,0.3652,0.3836,0.401,0.4163,0.4252,0.4283,0.4182,0.4161,-1.5654,-1.5698,-1.6238,-1.6423,-1.6293,-1.5175,-1.4652,-1.4445,-1.3454,-1.3002,-1.2905,-1.2958,-1.2756,-1.2217,-1.1777,-1.133,-1.0888,-1.0498,-1.0361,-1.0342,-1.0322,-1.0322,-1.0156,-0.9903,-0.9601,-0.9406,-0.8926,-0.8535,-0.8271,-0.8032,-0.7841,-0.7695,-0.7725,-0.7705,-0.7622,-0.751,-0.7353,-0.7142,-0.7032,-0.6656,-0.6052,-0.5531,-0.5325,-0.5309,-0.5309,-0.5309,-0.5309,-0.5309,-0.5309,-0.5309,-0.5309,-0.5309,-0.5309,-0.5309,-0.5309,-0.5309,-0.5309,-0.4794,-0.4092,-0.3446,-0.299,-0.2828,-0.276,-0.2716,-0.2719,-0.2944,-0.3171,-0.3389,-0.3358,-0.344,-0.357,-0.36,-0.36,-0.36,-0.36,-0.36,-0.36,-0.36,-0.3423,-0.3087,0.0,0.0,0.0,0.0,0.0,0.0,0.0,0.0,0.0,0.0,0.0,0.0,0.0,0.0,0.0,0.0,0.0,0.0,0.0,0.0,0.0,0.0,0.0,0.0,0.0,0.0,0.3477,0.3736,0.4017,0.4308,0.4464,0.4436,0.4433,0.4341,0.4338,-1.5062,-1.5062,-1.531,-1.5599,-1.5852,-1.4664,-1.4352,-1.4468,-1.343,-1.2915,-1.2915,-1.2895,-1.2793,-1.2539,-1.2168,-1.1751,-1.1289,-1.0859,-1.0586,-1.0361,-1.0322,-1.0322,-1.0215,-1.0098,-0.9902,-0.9611,-0.9231,-0.8958,-0.875,-0.849,-0.833,-0.8174,-0.7915,-0.7529,-0.7388,-0.7196,-0.6933,-0.6993,-0.724,-0.7077,-0.6083,-0.5522,-0.5309,-0.5309,-0.5309,-0.5309,-0.5309,-0.5309,-0.5309,-0.5309,-0.5309,-0.5309,-0.5309,-0.5309,-0.5309,-0.5309,-0.5309,-0.489,-0.4156,-0.3352,-0.2696,-0.2706,-0.2771,-0.2798,-0.2781,-0.2961,-0.3253,-0.3474,-0.36,-0.36,-0.36,-0.36,-0.36,-0.36,-0.36,-0.36,-0.36,-0.36,-0.3556,-0.3287,-0.2796,0.0,0.0,0.0,0.0,0.0,0.0,0.0,0.0,0.0,0.0,0.0,0.0,0.0,0.0,0.0,0.0,0.0,0.0,0.0,0.0,0.0,0.0,0.0,0.0,0.0,0.0,0.0,0.415,0.437,0.4457,0.4481,0.4484,0.4491,0.4491,-1.4445,-1.4399,-1.4224,-1.4629,-1.5163,-1.4226,-1.4037,-1.419,-1.3358,-1.2915,-1.2915,-1.2915,-1.2915,-1.2764,-1.2412,-1.209,-1.165,-1.1182,-1.0791,-1.0557,-1.04,-1.0342,-1.0322,-1.0254,-1.0098,-0.9815,-0.9602,-0.9378,-0.9182,-0.9072,-0.8818,-0.8535,-0.8246,-0.7883,-0.7314,-0.6895,-0.6639,-0.67,-0.6874,-0.6985,-0.6018,-0.5549,-0.5387,-0.538,-0.5383,-0.5309,-0.5309,-0.5309,-0.5309,-0.5309,-0.5309,-0.5309,-0.5309,-0.5309,-0.5309,-0.5309,-0.5309,-0.5309,-0.4892,-0.3901,-0.2826,-0.2737,-0.2879,-0.2937,-0.2998,-0.3073,-0.3253,-0.3546,-0.36,-0.36,-0.36,-0.36,-0.36,-0.36,-0.36,-0.36,-0.36,-0.36,-0.36,-0.349,-0.3065,-0.2729,0.0,0.0,0.0,0.0,0.0,0.0,0.0,0.0,0.0,0.0,0.0,0.0,0.0,0.0,0.0,0.0,0.0,0.0,0.0,0.0,0.0,0.0,0.0,0.0,0.0,0.0,0.3204,0.4346,0.4432,0.4491,0.4491,0.4491,0.4491,-1.3826,-1.3755,-1.3224,-1.3658,-1.4537,-1.405,-1.3815,-1.3826,-1.32,-1.2915,-1.2915,-1.2915,-1.2915,-1.2793,-1.2447,-1.2233,-1.196,-1.1316,-1.0878,-1.0771,-1.0449,-1.0332,-1.0322,-1.0283,-1.0254,-1.0185,-0.9941,-0.9698,-0.9591,-0.9385,-0.9141,-0.8994,-0.8799,-0.8387,-0.7714,-0.7246,-0.6871,-0.6548,-0.6582,-0.6348,-0.6188,-0.5724,-0.5712,-0.5538,-0.551,-0.543,-0.5306,-0.5316,-0.5309,-0.5309,-0.5309,-0.5309,-0.5309,-0.5309,-0.5309,-0.5309,-0.5309,-0.5309,-0.5193,-0.3877,-0.3311,-0.2944,-0.3082,-0.3181,-0.3392,-0.3364,-0.3266,-0.358,-0.36,-0.36,-0.36,-0.36,-0.36,-0.36,-0.36,-0.36,-0.36,-0.36,-0.36,-0.36,-0.3581,-0.3363,-0.257,0.0,0.0,0.0,0.0,0.0,0.0,0.0,0.0,0.0,0.0,0.0,0.0,0.0,0.0,0.0,0.0,0.0,0.0,0.0,0.0,0.0,0.0,0.0,0.0,0.0,0.2148,0.4012,0.4377,0.4491,0.4491,0.4491,0.4491,-1.319,-1.3176,-1.2992,-1.3138,-1.3454,-1.332,-1.342,-1.3637,-1.32,-1.2915,-1.2915,-1.2915,-1.2915,-1.2837,-1.2725,-1.25,-1.2125,-1.1721,-1.1291,-1.0879,-1.0508,-1.0352,-1.0322,-1.0322,-1.0322,-1.0273,-1.0117,-1.0039,-1.0068,-0.9823,-0.9619,-0.9473,-0.9133,-0.8536,-0.7702,-0.6983,-0.6261,-0.6259,-0.6029,-0.5828,-0.6197,-0.6292,-0.6179,-0.5792,-0.5719,-0.5578,-0.5387,-0.5403,-0.541,-0.539,-0.5373,-0.5347,-0.5329,-0.5309,-0.5309,-0.53,-0.5306,-0.5309,-0.5401,-0.4916,-0.4553,-0.3877,-0.3336,-0.3458,-0.3542,-0.3522,-0.351,-0.3563,-0.3597,-0.36,-0.36,-0.36,-0.36,-0.36,-0.36,-0.36,-0.36,-0.36,-0.36,-0.36,-0.3581,-0.2656,-0.1818,-0.1957,0.0,0.0,0.0,0.0,0.0,0.0,0.0,0.0,0.0,0.0,0.0,0.0,0.0,0.0,0.0,0.0,0.0,0.0,0.0,0.0,0.0,0.0,0.0,0.0616,0.2287,0.3652,0.4181,0.4491,0.4491,0.4491,0.4491,-1.2915,-1.2915,-1.2915,-1.2915,-1.2915,-1.2915,-1.3128,-1.3372,-1.3065,-1.2915,-1.2915,-1.2915,-1.2915,-1.2915,-1.2876,-1.2807,-1.2402,-1.1839,-1.1538,-1.1055,-1.0537,-1.0381,-1.0322,-1.0332,-1.0322,-1.0322,-1.0322,-1.0283,-1.0263,-1.0312,-1.0126,-0.9805,-0.9416,-0.9029,-0.8283,-0.7607,-0.6794,-0.6618,-0.6173,-0.5957,-0.6363,-0.6573,-0.6647,-0.6218,-0.5936,-0.5806,-0.5692,-0.5652,-0.5665,-0.5608,-0.5574,-0.5487,-0.541,-0.5322,-0.5316,-0.5306,-0.5718,-0.5812,-0.6049,-0.6182,-0.5728,-0.5107,-0.4269,-0.3741,-0.3646,-0.3573,-0.358,-0.3597,-0.36,-0.36,-0.36,-0.36,-0.36,-0.36,-0.3641,-0.3645,-0.3672,-0.3679,-0.372,-0.3706,-0.352,-0.2403,-0.1781,-0.1743,0.0,0.0,0.0,0.0,0.0,0.0,0.0,0.0,0.0,0.0,0.0,0.0,0.0,0.0,0.0,0.0,0.0,0.0,0.0,0.0,0.0,0.0,0.0,0.1146,0.251,0.3594,0.4294,0.4491,0.4491,0.4491,0.4491,-1.2915,-1.2915,-1.2915,-1.2915,-1.2915,-1.2915,-1.2929,-1.2929,-1.2905,-1.2915,-1.2915,-1.2915,-1.2915,-1.2915,-1.2915,-1.2886,-1.2709,-1.2005,-1.1731,-1.1369,-1.0802,-1.0547,-1.0371,-1.0342,-1.0312,-1.0322,-1.0322,-1.0322,-1.0322,-1.0322,-1.0273,-1.0175,-0.9824,-0.9556,-0.9183,-0.8737,-0.7894,-0.7203,-0.6421,-0.6312,-0.6607,-0.682,-0.678,-0.6472,-0.6251,-0.6117,-0.6102,-0.6208,-0.6196,-0.6169,-0.6122,-0.5813,-0.5564,-0.5356,-0.5342,-0.5668,-0.644,-0.6667,-0.6787,-0.684,-0.6838,-0.6176,-0.5089,-0.4347,-0.377,-0.36,-0.36,-0.36,-0.36,-0.36,-0.36,-0.36,-0.36,-0.3645,-0.3706,-0.374,-0.3781,-0.3822,-0.388,-0.387,-0.3802,-0.3386,-0.357,-0.3481,-0.2649,0.0,0.0,0.0,0.0,0.0,0.0,0.0,0.0,0.0,0.0,0.0,0.0,0.0,0.0,0.0,0.0,0.0,0.0,0.0,0.0,0.0,0.0,0.0,0.2425,0.34,0.4349,0.4491,0.4491,0.4491,0.4491,-1.2915,-1.2915,-1.2915,-1.2915,-1.2915,-1.2915,-1.2915,-1.2915,-1.2915,-1.2915,-1.2915,-1.2915,-1.2915,-1.2915,-1.2915,-1.2915,-1.2666,-1.2373,-1.2129,-1.1689,-1.1123,-1.084,-1.0625,-1.0459,-1.0361,-1.0322,-1.0322,-1.0322,-1.0322,-1.0322,-1.0322,-1.0244,-1.0126,-1.0068,-0.9934,-0.9829,-0.8796,-0.7795,-0.6783,-0.6682,-0.6774,-0.6946,-0.6847,-0.664,-0.664,-0.6486,-0.6371,-0.6445,-0.6411,-0.6277,-0.6216,-0.6053,-0.6001,-0.5961,-0.6035,-0.648,-0.6853,-0.6973,-0.6993,-0.6993,-0.6993,-0.674,-0.5578,-0.4447,-0.384,-0.36,-0.36,-0.36,-0.36,-0.36,-0.36,-0.36,-0.3679,-0.3785,-0.3901,-0.4068,-0.4105,-0.4119,-0.417,-0.415,-0.4078,-0.4129,-0.446,-0.4349,-0.3566,-0.3317,-0.3065,-0.2871,-0.2093,-0.0923,0.0,0.0,0.0,0.0,0.0,0.0,0.0,0.0,0.0,0.0,0.0,0.0,0.0,0.0,0.0,0.0,0.0,0.0,0.0,0.3398,0.4405,0.446,0.446,0.4349,0.4405,-1.2915,-1.2915,-1.2915,-1.2915,-1.2915,-1.2915,-1.2915,-1.2915,-1.2915,-1.2915,-1.2915,-1.2915,-1.2915,-1.2915,-1.2915,-1.2905,-1.2832,-1.2408,-1.2164,-1.1979,-1.1504,-1.1123,-1.085,-1.0664,-1.0459,-1.0391,-1.0332,-1.0322,-1.0283,-1.0303,-1.0322,-1.0322,-1.0322,-1.0137,-0.9962,-0.9711,-0.9129,-0.8169,-0.7381,-0.7069,-0.6977,-0.6993,-0.6873,-0.6813,-0.6967,-0.6754,-0.6553,-0.664,-0.6593,-0.6526,-0.6519,-0.6519,-0.6519,-0.6539,-0.6573,-0.6913,-0.696,-0.6993,-0.6993,-0.6993,-0.6993,-0.6782,-0.6097,-0.5005,-0.4078,-0.36,-0.36,-0.36,-0.36,-0.36,-0.36,-0.3628,-0.3791,-0.3952,-0.4197,-0.4447,-0.4467,-0.4467,-0.4467,-0.4464,-0.445,-0.444,-0.4491,-0.4491,-0.4432,-0.4098,-0.3959,-0.3901,-0.2815,-0.1312,0.0,0.0,0.0,0.0,0.0,0.0,0.0,0.0,0.0,0.0,0.0,0.0,0.0,0.0,0.0,0.0,0.0,0.0,0.0783,0.2369,0.3511,0.3511,0.3566,0.3873,0.4042,-1.2915,-1.2915,-1.2915,-1.2915,-1.2915,-1.2915,-1.2915,-1.2915,-1.2915,-1.2915,-1.2915,-1.2915,-1.2915,-1.2915,-1.2915,-1.2915,-1.2803,-1.2529,-1.2369,-1.2209,-1.1846,-1.1475,-1.124,-1.0967,-1.086,-1.0557,-1.0361,-1.0341,-1.0215,-1.0118,-1.0079,-1.0205,-1.0059,-0.9795,-0.9478,-0.9439,-0.8887,-0.81,-0.7769,-0.7568,-0.7092,-0.6993,-0.6993,-0.698,-0.6993,-0.6953,-0.696,-0.698,-0.6993,-0.6986,-0.6973,-0.6933,-0.692,-0.6913,-0.696,-0.6973,-0.6993,-0.6993,-0.6993,-0.6993,-0.6993,-0.6993,-0.6909,-0.5905,-0.5026,-0.3818,-0.3622,-0.36,-0.36,-0.36,-0.36,-0.3836,-0.4047,-0.4177,-0.4368,-0.4491,-0.4491,-0.4491,-0.4491,-0.4491,-0.4491,-0.4491,-0.4491,-0.4491,-0.4491,-0.4491,-0.4491,-0.4491,-0.368,-0.198,0.0,0.0,0.0,0.0,0.0,0.0,0.0,0.0,0.0,0.0,0.0,0.0,0.0,0.0,0.0,0.0,0.0,0.0,0.0,0.0727,0.1675,0.2148,0.0,0.0,0.2815,-1.2915,-1.2915,-1.2915,-1.2915,-1.2915,-1.2915,-1.2915,-1.2915,-1.2915,-1.2915,-1.2915,-1.2915,-1.2915,-1.2915,-1.2915,-1.2915,-1.2846,-1.2734,-1.2725,-1.2568,-1.2236,-1.1963,-1.1807,-1.1504,-1.1349,-1.1203,-1.0927,-1.0374,-1.0001,-0.9789,-0.9506,-0.9194,-0.9229,-0.92,-0.8987,-0.8967,-0.8605,-0.7934,-0.7885,-0.7701,-0.7199,-0.7026,-0.6993,-0.6993,-0.6993,-0.6993,-0.6993,-0.6993,-0.6993,-0.6993,-0.6993,-0.6986,-0.6993,-0.6993,-0.6993,-0.6993,-0.6993,-0.6993,-0.6993,-0.6993,-0.6993,-0.6993,-0.693,-0.6698,-0.5905,-0.4443,-0.3685,-0.3667,-0.36,-0.36,-0.3699,-0.4003,-0.4272,-0.4392,-0.4491,-0.4491,-0.4491,-0.4491,-0.4491,-0.4491,-0.4491,-0.4491,-0.4491,-0.4491,-0.4491,-0.4491,-0.4491,-0.4405,-0.4125,-0.2926,-0.134,0.0,0.0,0.0,0.0,0.0,0.0,0.0,0.0,0.0,0.0,0.0,0.0,0.0,0.0,0.0,0.0,0.0,0.0,0.0,0.0,0.0,0.0,0.0,0.0,-1.2915,-1.2915,-1.2915,-1.2915,-1.2915,-1.2915,-1.2915,-1.2915,-1.2915,-1.2915,-1.2915,-1.2915,-1.2915,-1.2915,-1.2915,-1.2915,-1.2915,-1.2905,-1.2866,-1.2754,-1.2646,-1.2402,-1.2187,-1.1982,-1.1721,-1.1543,-1.1025,-1.0444,-0.9903,-0.9589,-0.9337,-0.9014,-0.9001,-0.8886,-0.8735,-0.8651,-0.8419,-0.793,-0.7909,-0.7682,-0.7313,-0.7171,-0.7026,-0.6993,-0.7,-0.7,-0.6993,-0.6993,-0.6993,-0.6993,-0.6993,-0.6993,-0.6993,-0.6993,-0.6993,-0.6993,-0.6993,-0.6993,-0.6993,-0.6993,-0.6993,-0.6993,-0.6993,-0.6782,-0.6789,-0.5454,-0.4508,-0.436,-0.3711,-0.3604,-0.3761,-0.4023,-0.429,-0.4464,-0.4491,-0.4491,-0.4491,-0.4491,-0.4491,-0.4491,-0.4491,-0.4491,-0.4491,-0.4491,-0.407,-0.2093,-0.2426,0.0,0.0,0.0,0.0,0.0,0.0,0.0,0.0,0.0,0.0,0.0,0.0,0.0,0.0,0.0,0.0,0.0,0.0,0.0,0.0,0.0,0.0,0.0,0.0,0.0,0.0,0.0,0.0,-1.2915,-1.2915,-1.2915,-1.2915,-1.2915,-1.2915,-1.2915,-1.2915,-1.2915,-1.2915,-1.2915,-1.2915,-1.2915,-1.2915,-1.2915,-1.2915,-1.2915,-1.2915,-1.2915,-1.2915,-1.2886,-1.2656,-1.248,-1.2281,-1.2061,-1.1634,-1.1096,-1.0673,-1.0219,-0.9698,-0.927,-0.9335,-0.9221,-0.9067,-0.8749,-0.8547,-0.8289,-0.8012,-0.7896,-0.791,-0.7666,-0.7404,-0.7259,-0.7153,-0.704,-0.7026,-0.7033,-0.7013,-0.7013,-0.6993,-0.6993,-0.6993,-0.6993,-0.6993,-0.6993,-0.6993,-0.6993,-0.6993,-0.6993,-0.6993,-0.6993,-0.6993,-0.6993,-0.7032,-0.705,-0.66,-0.5646,-0.5173,-0.4503,-0.3785,-0.3945,-0.4071,-0.4337,-0.4491,-0.4491,-0.4491,-0.4491,-0.4491,-0.4491,-0.4491,-0.4491,-0.4491,-0.4491,-0.4491,-0.3345,-0.1202,0.0,0.0,0.0,0.0,0.0,0.0,0.0,0.0,0.0,0.0,0.0,0.0,0.0,0.0,0.0,0.0,0.0,0.0,0.0,0.0,0.0,0.0,0.0,0.0,0.0,0.0,0.0,0.0,0.0,-1.2915,-1.2915,-1.2915,-1.2915,-1.2925,-1.2915,-1.2915,-1.2915,-1.2915,-1.2915,-1.2915,-1.2915,-1.2915,-1.2915,-1.2915,-1.2915,-1.2915,-1.2915,-1.2915,-1.2915,-1.2915,-1.2837,-1.2758,-1.2617,-1.2441,-1.1958,-1.1334,-1.0663,-1.0229,-0.9385,-0.8677,-0.8398,-0.8343,-0.8265,-0.8187,-0.8112,-0.8167,-0.8019,-0.8012,-0.8012,-0.7972,-0.7812,-0.7779,-0.7566,-0.7253,-0.7253,-0.7248,-0.7128,-0.7033,-0.6993,-0.6993,-0.6993,-0.6993,-0.6993,-0.6993,-0.6993,-0.6993,-0.6993,-0.6993,-0.706,-0.7086,-0.6993,-0.7106,-0.7466,-0.7479,-0.7443,-0.6953,-0.7118,-0.6207,-0.4529,-0.4324,-0.4324,-0.4491,-0.4491,-0.4491,-0.4491,-0.4491,-0.4491,-0.4491,-0.4491,-0.4491,-0.4491,-0.4491,-0.4491,-0.4432,-0.2538,-0.1202,0.0,0.0,0.0,0.0,0.0,0.0,0.0,0.0,0.0,0.0,0.0,0.0,0.0,0.0,0.0,0.0,0.0,0.0,0.0,0.0,0.0,0.0,0.0,0.0,0.0,0.0,0.0,0.0]},{"header":{"parameterUnit":"m.s-1","parameterCategory":1,"la1":31.0,"la2":29.5877,"lo1":-88.7671,"lo2":-86.6584,"dy":0.0162,"dx":0.0185,"nx":115,"ny":88,"refTime":"2026-05-17T00:00:00:Z","depth":0,"parameterNumber":3,"parameterNumberName":"V-component_of_WINDS"},"data":[0.0,0.0,0.0,0.0,0.0,0.0,0.0,0.0,0.0,0.0,0.0,0.0,0.0,0.0,0.0,0.0,0.0,0.0,0.0,0.0,0.0,0.0,0.0,0.0,0.0,0.0,0.0,0.0,0.0,0.0,0.0,0.0,0.0,0.0,0.0,0.0,0.0,0.0,0.0,0.0,0.0,0.0,0.0,0.0,0.0,0.0,0.0,0.0,0.0,0.0,0.0,0.0,0.0,0.0,0.0,0.0,0.0,0.0,0.0,0.0,0.0,0.0,0.0,0.0,0.0,0.0,0.0,0.0,0.0,0.0,0.0,0.0,0.0,0.0,0.0,0.0,0.0,0.0,0.0,0.0,0.0,0.0,0.0,0.0,0.0,0.0,0.0,0.0,0.0,0.0,0.0,0.0,0.0,0.0,0.0,0.0,0.0,0.0,0.0,0.0,0.0,0.0,0.0,0.0,0.0,0.0,0.0,0.0,0.0,0.0,0.0,0.0,0.0,0.0,0.0,0.0,0.0,0.0,0.0,0.0,0.0,0.0,0.0,0.0,0.0,0.0,0.0,0.0,0.0,0.0,0.0,0.0,0.0,0.0,0.0,0.0,0.0,0.0,0.0,0.0,0.0,0.0,0.0,0.0,0.0,0.0,0.0,0.0,0.0,0.0,0.0,0.0,0.0,0.0,0.0,0.0,0.0,0.0,0.0,0.0,0.0,0.0,0.0,0.0,0.0,0.0,0.0,0.0,0.0,0.0,0.0,0.0,0.0,0.0,0.0,0.0,0.0,0.0,0.0,0.0,0.0,0.0,0.0,0.0,0.0,0.0,0.0,0.0,0.0,0.0,0.0,0.0,0.0,0.0,0.0,0.0,0.0,0.0,0.0,0.0,0.0,0.0,0.0,0.0,0.0,0.0,0.0,0.0,0.0,0.0,0.0,0.0,0.0,0.0,0.0,0.0,0.0,0.0,0.0,0.0,0.0,0.0,0.0,0.0,0.0,0.0,0.0,0.0,0.0,0.0,0.0,0.0,0.0,0.0,0.0,0.0,0.0,0.0,0.0,0.0,0.0,0.0,0.0,0.0,0.0,0.0,0.0,0.0,0.0,0.0,0.0,0.0,0.0,0.0,0.0,0.0,0.0,0.0,0.0,0.0,0.0,0.0,0.0,0.0,0.0,0.0,0.0,0.0,0.0,0.0,0.0,0.0,0.0,0.0,0.0,0.0,0.0,0.0,0.0,0.0,0.0,0.0,0.0,0.0,0.0,0.0,0.0,0.0,0.0,0.0,0.0,0.0,0.0,0.0,0.0,0.0,0.0,0.0,0.0,0.0,0.0,0.0,0.0,0.0,0.0,0.0,0.0,0.0,0.0,0.0,0.0,0.0,0.0,0.0,0.0,0.0,0.0,0.0,0.0,0.0,0.0,0.0,0.0,0.0,0.0,0.0,0.0,0.0,0.0,0.0,0.0,0.0,0.0,0.0,0.0,0.0,0.0,0.0,0.0,0.0,0.0,0.0,0.0,0.0,0.0,0.0,0.0,0.0,0.0,0.0,0.0,0.0,0.0,0.0,0.0,0.0,0.0,0.0,0.0,0.0,0.0,0.0,0.0,0.0,0.0,0.0,0.0,0.0,0.0,0.0,0.0,0.0,0.0,0.0,0.0,0.0,0.0,0.0,0.0,0.0,0.0,0.0,0.0,0.0,0.0,0.0,0.0,0.0,0.0,0.0,0.0,0.0,0.0,0.0,0.0,0.0,0.0,0.0,0.0,0.0,0.0,0.0,0.0,0.0,0.0,0.0,0.0,0.0,0.0,0.0,0.0,0.0,0.0,0.0,0.0,0.0,0.0,0.0,0.0,0.0,0.0,0.0,0.0,0.0,0.0,0.0,0.0,0.0,0.0,0.0,0.0,0.0,0.0,0.0,0.0,0.0,0.0,0.0,0.0,0.0,0.0,0.0,0.0,0.0,0.0,0.0,0.0,0.0,0.0,0.0,0.0,0.0,0.0,0.0,0.0,0.0,0.0,0.0,0.0,0.0,0.0,0.0,0.0,0.0,0.0,0.0,0.0,0.0,0.0,0.0,0.0,0.0,0.0,0.0,0.0,0.0,0.0,0.0,0.0,0.0,0.0,0.0,0.0,0.0,0.0,0.0,0.0,0.0,0.0,0.0,0.0,0.0,0.0,0.0,0.0,0.0,0.0,0.0,0.0,0.0,0.0,0.0,0.0,0.0,0.0,0.0,0.0,0.0,0.0,0.0,0.0,0.0,0.0,0.0,0.0,0.0,0.0,0.0,0.0,0.0,0.0,0.0,0.0,0.0,0.0,0.0,0.0,0.0,0.0,0.0,0.0,0.0,0.0,0.0,0.0,0.0,0.0,0.0,0.0,0.0,0.0,0.0,0.0,0.0,0.0,0.0,0.0,0.0,0.0,0.0,0.0,0.0,0.0,0.0,0.0,0.0,0.0,0.0,0.0,0.0,0.0,0.0,0.0,0.0,0.0,0.0,0.0,0.0,0.0,0.0,0.0,0.0,0.0,0.0,0.0,0.0,0.0,0.0,0.0,0.0,0.0,0.0,0.0,0.0,0.0,0.0,0.0,0.0,0.0,0.0,0.0,0.0,0.0,0.0,0.0,0.0,0.0,0.0,0.0,0.0,0.0,0.0,0.0,0.0,0.0,0.0,0.0,0.0,0.0,0.0,0.0,0.0,0.0,0.0,0.0,0.0,0.0,0.0,0.0,0.0,0.0,0.0,0.0,0.0,0.0,0.0,0.0,0.0,0.0,0.0,0.0,0.0,0.0,0.0,0.0,0.0,0.0,0.0,0.0,0.0,0.0,0.0,0.0,0.0,0.0,0.0,0.0,0.0,0.0,0.0,0.0,0.0,0.0,0.0,0.0,0.0,0.0,0.0,0.0,0.0,0.0,0.0,0.0,0.0,0.0,0.0,0.0,0.0,0.0,0.0,0.0,0.0,0.0,0.0,0.0,0.0,0.0,0.0,0.0,0.0,0.0,0.0,0.0,0.0,0.0,0.0,0.0,0.0,0.0,0.0,0.0,0.0,0.0,0.0,0.0,0.0,0.0,0.0,0.0,0.0,0.0,0.0,0.0,0.0,0.0,0.0,0.0,0.0,0.0,0.0,0.0,0.0,0.0,0.0,0.0,0.0,0.0,0.0,0.0,0.0,0.0,0.0,0.0,0.0,0.0,0.0,0.0,0.0,0.0,0.0,0.0,0.0,0.0,0.0,0.0,0.0,0.0,0.0,0.0,0.0,0.0,0.0,0.0,0.0,0.0,0.0,0.0,0.0,0.0,0.0,0.0,0.0,0.0,0.0,0.0,0.0,0.0,0.0,0.0,0.0,0.0,0.0,0.0,0.0,0.0,0.0,0.0,0.0,0.0,0.0,0.0,0.0,0.0,0.0,0.0,0.0,0.0,0.0,0.0,0.0,0.0,0.0,0.0,0.0,0.0,0.0,0.0,0.0,0.0,0.0,0.0,0.0,0.0,0.0,0.0,0.0,0.0,0.0,0.0,0.0,0.0,0.0,0.0,0.0,0.0,0.0,0.0,0.0,0.0,0.0,0.0,0.0,0.0,0.0,0.0,0.0,0.0,0.0,0.0,0.0,0.0,0.0,0.0,0.0,0.0,0.0,0.0,0.0,0.0,0.0,0.0,0.0,0.0,0.0,0.0,0.0,0.0,0.0,0.0,0.0,0.0,0.0,0.0,0.0,0.0,0.0,0.0,0.0,0.0,0.0,0.0,0.0,0.0,0.0,0.0,0.0,0.0,0.0,0.0,0.0,0.0,0.0,0.0,0.0,0.0,0.0,0.0,0.0,0.0,0.0,0.0,0.0,0.0,0.0,0.0,0.0,0.0,0.0,0.0,0.0,0.0,0.0,0.0,0.0,0.0,0.0,0.0,0.0,0.0,0.0,0.0,0.0,0.0,0.0,0.0,0.0,0.0,0.0,0.0,0.0,0.0,0.0,0.0,0.0,0.0,0.0,0.0,0.0,0.0,0.0,0.0,0.0,0.0,0.0,0.0,0.0,0.0,0.0,0.0,0.0,0.0,0.0,0.0,0.0,0.0,0.0,0.0,0.0,0.0,0.0,0.0,0.0,0.0,0.0,0.0,0.0,0.0,0.0,0.0,0.0,0.0,0.0,0.0,0.0,0.0,0.0,0.0,0.0,0.0,0.0,0.0,0.0,0.0,0.0,0.0,0.0,0.0,0.0,0.0,0.0,0.0,0.0,0.0,0.0,0.0,0.0,0.0,0.0,0.0,0.0,0.0,0.0,0.0,0.0,0.0,0.0,0.0,0.0,0.0,0.0,0.0,0.0,0.0,0.0,0.0,0.0,0.0,0.0,0.0,0.0,0.0,0.0,0.0,0.0,0.0,0.0,0.0,0.0,0.0,0.0,0.0,0.0,0.0,0.0,0.0,0.0,0.0,0.0,0.0,0.0,0.0,0.0,0.0,0.0,0.0,0.0,0.0,0.0,0.0,0.0,0.0,0.0,0.0,0.0,0.0,0.0,0.0,0.0,0.0,0.0,0.0,0.0,0.0,0.0,0.0,0.0,0.0,0.0,0.0,0.0,0.0,0.0,0.0,0.0,0.0,0.0,0.0,0.0,0.0,0.0,0.0,0.0,0.0,0.0,0.0,0.0,0.0,0.0,0.0,0.0,0.0,0.0,0.0,0.0,0.0,0.0,0.0,0.0,0.0,0.0,0.0,0.0,0.0,0.0,0.0,0.0,0.0,0.0,0.0,0.0,0.0,0.0,0.0,0.0,0.0,0.0,0.0,0.0,0.0,0.0,0.0,0.0,0.0,0.0,0.0,0.0,0.0,0.0,0.0,0.0,0.0,0.0,0.0,0.0,0.0,0.0,0.0,0.0,0.0,0.0,0.0,0.0,0.0,0.0,0.0,0.0,0.0,0.0,0.0,0.0,0.0,0.0,0.0,0.0,0.0,0.0,0.0,0.0,0.0,0.0,0.0,0.0,0.0,0.0,0.0,0.0,0.0,0.0,0.0,0.0,0.0,0.0,0.0,0.0,0.0,0.0,0.0,0.0,0.0,0.0,0.0,0.0,0.0,0.0,0.0,0.0,0.0,0.0,0.0,0.0,0.0,0.0,0.0,0.0,0.0,0.0,0.0,0.0,0.0,0.0,0.0,0.0,0.0,0.0,0.0,0.0,0.0,0.0,0.0,0.0,0.0,0.0,0.0,0.0,0.0,0.0,0.0,0.0,0.0,0.0,0.0,0.0,0.0,0.0,0.0,0.0,0.0,0.0,0.0,0.0,0.0,0.0,0.0,0.0,0.0,0.0,0.0,0.0,0.0,0.0,0.0,0.0,0.0,0.0,0.0,0.0,0.0,0.0,0.0,0.0,0.0,0.0,0.0,0.0,0.0,0.0,0.0,0.0,0.0,0.0,0.0,0.0,0.0,0.0,0.0,0.0,0.0,0.0,0.0,0.0,0.0,0.0,0.0,0.0,0.0,0.0,0.0,0.0,0.0,0.0,0.0,0.0,0.0,0.0,0.0,0.0,0.0,0.0,0.0,0.0,0.0,0.0,0.0,0.0,0.0,0.0,0.0,0.0,0.0,0.0,0.0,0.0,0.0,0.0,0.0,0.0,0.0,0.0,0.0,0.0,0.0,0.0,0.0,0.0,0.0,0.0,0.0,0.0,0.0,0.0,0.0,0.0,0.0,0.0,0.0,0.0,0.0,0.0,0.0,0.0,0.0,0.0,0.0,0.0,0.0,0.0,0.0,0.0,0.0,0.0,0.0,0.0,0.0,0.0,0.0,0.0,0.0,0.0,0.0,0.0,0.0,0.0,0.0,0.0,0.0,0.0,0.0,0.0,0.0,0.0,0.0,0.0,0.0,0.0,0.0,0.0,0.0,0.0,0.0,0.0,0.0,0.0,0.0,0.0,0.0,0.0,0.0,0.0,0.0,0.0,0.0,0.0,0.0,0.0,0.0,0.0,0.0,0.0,0.0,0.0,0.0,0.0,0.0,0.0,0.0,0.0,0.0,0.0,0.0,0.0,0.0,0.0,0.0,0.0,0.0,0.0,0.0,0.0,0.0,0.0,0.0,0.0,0.0,0.0,0.0,0.0,0.0,0.0,0.0,0.0,0.0,0.0,0.0,0.0,0.0,0.0,0.0,0.0,0.0,0.0,0.0,0.0,0.0,0.0,0.0,0.0,0.0,0.0,0.0,0.0,0.0,0.0,0.0,0.0,0.0,0.0,0.0,0.0,0.0,0.0,0.0,0.0,0.0,0.302,0.1057,0.0,0.0,0.0,0.0,0.0,0.0,0.0,0.0,0.0,0.0,0.0,0.0,0.0,0.0,0.0,0.0,0.0,0.0,0.0,0.0,0.0,0.0,0.0,0.0,0.0,0.0,0.0,0.0,0.0,0.0,0.0,0.0,0.0,0.0,0.0,0.0,0.0,0.0,0.0,0.0,0.0,0.0,0.0,0.0,0.0,0.0,0.0,0.0,0.0,0.0,0.0,0.0,0.0,0.0,0.0,0.0,0.0,0.0,0.0,0.0,0.0,0.0,0.0,0.0,0.0,0.0,0.0,0.0,0.0,0.0,0.0,0.0,0.0,0.0,0.0,0.0,0.0,0.0,0.0,0.0,0.0,0.0,0.0,0.0,0.0,0.0,0.0,0.0,0.0,0.0,0.0,0.0,0.0,0.0,0.0,0.0,0.0,0.0,0.0,0.0,0.0,0.0,0.0,0.0,0.0,0.0,0.0,0.0,0.0,0.0,0.0,0.4845,0.0,0.4944,0.1788,0.0,0.0,0.0,0.0,0.0,0.0,0.0,0.0,0.0,0.0,0.0,0.0,0.0,0.0,0.0,0.0,0.0,0.0,0.0,0.0,0.0,0.0,0.0,0.0,0.0,0.0,0.0,0.0,0.0,0.0,0.0,0.0,0.0,0.0,0.0,0.0,0.0,0.0,0.0,0.0,0.0,0.0,0.0,0.0,0.0,0.0,0.0,0.0,0.0,0.0,0.0,0.0,0.0,0.0,0.0,0.0,0.0,0.0,0.0,0.0,0.0,0.0,0.0,0.0,0.0,0.0,0.0,0.0,0.0,0.0,0.0,0.0,0.0,0.0,0.0,0.0,0.0,0.0,0.0,0.0,0.0,0.0,0.0,0.0,0.0,0.0,0.0,0.0,0.0,0.0,0.0,0.0,0.0,0.0,0.0,0.0,0.0,0.0,0.0,0.0,0.0,0.0,0.0,0.0,0.0,0.0,0.0,0.0,0.0,0.0,0.0,0.4273,0.5099,0.506,0.1808,0.0,0.0,0.0,0.0,0.0,0.0,0.0,0.0,0.0,0.0,0.0,0.0,0.0,0.0,0.0,0.0,0.0,0.0,0.0,0.0,0.0,0.0,0.0,0.0,0.0,0.0,0.0,0.0,0.0,0.0,0.0,0.0,0.0,0.0,0.0,0.0,0.0,0.0,0.0,0.0,0.0,0.0,0.0,0.0,0.0,0.0,0.0,0.0,0.0,0.0,0.0,0.0,0.0,0.0,0.0,0.0,0.0,0.0,0.0,0.0,0.0,0.0,0.0,0.0,0.0,0.0,0.0,0.0,0.0,0.0,0.0,0.0,0.0,0.0,0.0,0.0,0.0,0.0,0.0,0.0,0.0,0.0,0.0,0.0,0.0,0.0,0.0,0.0,0.0,0.0,0.0,0.0,0.0,0.0,0.0,0.0,0.0,0.0,0.0,0.0,0.0,0.0,0.0,0.0,0.0,0.0,0.0,0.0,0.0,0.0,0.4061,0.4772,0.5099,0.506,0.3885,0.2249,0.0,0.0,0.0,0.0,0.0,0.0,0.0,0.0,0.0,0.0,0.0,0.0,0.0,0.0,0.0,0.0,0.0,0.0,0.0,0.0,0.0,0.0,0.0,0.0,0.0,0.0,0.0,0.0,0.0,0.0,0.0,0.0,0.0,0.0,0.0,0.0,0.0,0.0,0.0,0.0,0.0,0.0,0.0,0.0,0.0,0.0,0.0,0.0,0.0,0.0,0.0,0.0,0.0,0.0,0.0,0.0,0.0,0.0,0.0,0.0,0.0,0.0,0.0,0.0,0.0,0.0,0.0,0.0,0.0,0.0,0.0,0.0,0.0,0.0,0.0,0.0,0.0,0.0,0.0,0.0,0.0,0.0,0.0,0.0,0.0,0.0,0.0,0.0,0.0,0.0,0.0,0.0,0.0,0.0,0.0,0.0,0.0,0.0,0.0,0.0,0.0,0.0,0.0,0.0,0.0,0.0,0.0,0.0,0.0,0.3385,0.0,0.5099,0.0,0.4019,0.2366,0.0,0.0,0.0,0.0,0.0,0.0,0.0,0.0,0.0,0.0,0.0,0.0,0.0,0.0,0.0,0.0,0.0,0.0,0.0,0.0,0.0,0.0,0.0,0.0,0.0,0.0,0.0,0.0,0.0,0.0,0.0,0.0,0.0,0.0,0.0,0.0,0.0,0.0,0.0,0.0,0.0,0.0,0.0,0.0,0.0,0.0,0.0,0.0,0.0,0.0,0.0,0.0,0.0,0.0,0.0,0.0,0.0,0.0,0.0,0.0,0.0,0.0,0.0,0.0,0.0,0.0,0.0,0.0,0.0,0.0,0.0,0.0,0.0,0.0,0.0,0.0,0.0,0.0,0.0,0.0,0.0,0.0,0.0,0.0,0.0,0.0,0.0,0.0,0.0,0.0,0.0,0.0,0.0,0.0,0.0,0.0,0.0,0.0,0.0,0.0,0.0,0.0,0.0,0.0,0.0,0.0,0.0,0.0,0.0,0.0173,0.329,0.4923,0.5017,0.1904,0.0,0.0,0.0,0.0,0.0,0.0,0.0,0.0,0.0,0.0,0.0,0.0,0.0,0.0,0.0,0.0,0.0,0.0,0.0,0.0,0.0,0.0,0.0,0.0,0.0,0.0,0.0,0.0,0.0,0.0,0.0,0.0,0.0,0.0,0.0,0.0,0.0,0.0,0.0,0.0,0.0,0.0,0.0,0.0,0.0,0.0,0.0,0.0,0.0,0.0,0.0,0.0,0.0,0.0,0.0,0.0,0.0,0.0,0.0,0.0,0.0,0.0,0.0,0.0,0.0,0.0,0.0,0.0,0.0,0.0,0.0,0.0,0.0,0.0,0.0,0.0,0.0,0.0,0.0,0.0,0.0,0.0,0.0,0.0,0.0,0.0,0.0,0.0,0.0,0.0,0.0,0.0,0.0,0.0,0.0,0.0,0.0,0.0,0.0,0.0,0.0,0.0,0.0,0.0,0.0,0.0,0.0,0.0,0.0,0.0,0.0086,0.1038,0.2648,0.4666,0.1696,0.0,0.0,0.0,0.0,0.0,0.0,0.0,0.0,0.0,0.0,0.0,0.0,0.0,0.0,0.0,0.0,0.0,0.0,0.0,0.0,0.0,0.0,0.0,0.0,0.0,0.0,0.0,0.0,0.0,0.0,0.0,0.0,0.0,0.0,0.0,0.0,0.0,0.0,0.0,0.0,0.0,0.0,0.0,0.0,0.0,0.0,0.0,0.0,0.0,0.0,0.0,0.0,0.0,0.0,0.0,0.0,0.0,0.0,0.0,0.0,0.0,0.0,0.0,0.0,0.0,0.0,0.0,0.0,0.0,0.0,0.0,0.0,0.0,0.0,0.0,0.0,0.0,0.0,0.0,0.0,0.0,0.0,0.0,0.0,0.0,0.0,0.0,0.0,0.0,0.0,0.0,0.0,0.0,0.0,0.0,0.0,0.0,0.0,0.0,0.0,0.0,0.0,0.0,0.0,0.0,0.0,0.0,0.0,0.0,0.0,0.1722,0.1162,0.1554,0.298,0.2209,0.1222,0.0,0.0,0.0,0.0,0.0,0.0,0.0,0.0,0.0,0.0,0.0,0.0,0.0,0.0,0.0,0.0,0.0,0.0,0.0,0.0,0.0,0.0,0.0,0.0,0.0,0.0,0.0,0.0,0.0,0.0,0.0,0.0,0.0,0.0,0.0,0.0,0.0,0.0,0.0,0.0,0.0,0.0,0.0,0.0,0.0,0.0,0.0,0.0,0.0,0.0,0.0,0.0,0.0,0.0,0.0,0.0,0.0,0.0,0.0,0.0,0.0,0.0,0.0,0.0,0.0,0.0,0.0,0.0,0.0,0.0,0.0,0.0,0.0,0.0,0.0,0.0,0.0,0.0,0.0,0.0,0.0,0.0,0.0,0.0,0.0,0.0,0.0,0.0,0.0,0.0,0.0,0.0,0.0,0.0,0.0,0.0,0.0,0.0,0.0,0.0,0.0,0.0,0.0,0.0,0.0,0.0,0.0,0.0,0.0,0.4465,0.3205,0.1835,0.045,0.3014,0.3181,0.0,0.0,0.0,0.0,0.0,0.0,0.0,0.0,0.0,0.0,0.0,0.0,0.0,0.0,0.0,0.0,0.0,0.0,0.0,0.0,0.0,0.0,0.0,0.0,0.0,0.0,0.0,0.0,0.0,0.0,0.0,0.0,0.0,0.0,0.0,0.0,0.0,0.0,0.0,0.0,0.0,0.0,0.0,0.0,0.0,0.0,0.0,0.0,0.0,0.0,0.0,0.0,0.0,0.0,0.0,0.0,0.0,0.0,0.0,0.0,0.0,0.0,0.0,0.0,0.0,0.0,0.0,0.0,0.0,0.0,0.0,0.0,0.0,0.0,0.0,0.0,0.0,0.0,0.0,0.0,0.0,0.0,0.0,0.0,0.0,0.0,0.0,0.0,0.0,0.0,0.0,0.0,0.0,0.0,0.0,0.0,0.0,0.0,0.0,0.0,0.0,0.0,0.0,0.0,0.0,0.0,0.0,0.0,0.0,0.4449,0.4136,0.3778,0.3379,0.2022,0.1992,0.0,0.0,0.0,0.0,0.0,0.0,0.0,0.0,0.0,0.0,0.0,0.0,0.0,0.0,0.0,0.0,0.0,0.0,0.0,0.0,0.0,0.0,0.0,0.0,0.0,0.0,0.0,0.0,0.0,0.0,0.0,0.0,0.0,0.0,0.0,0.0,0.0,0.0,0.0,0.0,0.0,0.0,0.0,0.0,0.0,0.0,0.0,0.0,0.0,0.0,0.0,0.0,0.0,0.0,0.0,0.0,0.0,0.0,0.0,0.0,0.0,0.0,0.0,0.0,0.0,0.0,0.0,0.0,0.0,0.0,0.0,0.0,0.0,0.0,0.0,0.0,0.0,0.0,0.0,0.0,0.0,0.0,0.0,0.0,0.0,0.0,0.0,0.0,0.0,0.0,0.0,0.0,0.0,0.0,0.0,0.0,0.0,0.0,0.0,0.0,0.0,0.0,0.0,0.0,0.0,0.0,0.0,0.0,0.3915,0.4482,0.4552,0.4599,0.4604,0.2494,0.1775,0.0,0.0,0.0,0.0,0.0,0.0,0.0,0.0,0.0,0.0,0.0,0.0,0.0,0.0,0.0,0.0,0.0,0.0,0.0,0.0,0.0,0.0,0.0,0.0,0.0,0.0,0.0,0.0,0.0,0.0,0.0,0.0,0.0,0.0,0.0,0.0,0.0,0.0,0.0,0.0,0.0,0.0,0.0,0.0,0.0,0.0,0.0,0.0,0.0,0.0,0.0,0.0,0.0,0.0,0.0,0.0,0.0,0.0,0.0,0.0,0.0,0.0,0.0,0.0,0.0,0.0,0.0,0.0,0.0,0.0,0.0,0.0,0.0,0.0,0.0,0.0,0.0,0.0,0.0,0.0,0.0,0.0,0.0,0.0,0.0,0.0,0.0,0.0,0.0,0.0,0.0,0.0,0.0,0.0,0.0,0.0,0.0,0.0,0.0,0.0,0.0,0.0,0.0,0.0,0.0,0.0,0.0,0.0,0.3257,0.449,0.4622,0.4666,0.4582,0.3795,0.2464,0.0,0.0,0.0,0.0,0.0,0.0,0.0,0.0,0.0,0.0,0.0,0.0,0.0,0.0,0.0,0.0,0.0,0.0,0.0,0.0,0.0,0.0,0.0,0.0,0.0,0.0,0.0,0.0,0.0,0.0,0.0,0.0,0.0,0.0,0.0,0.0,0.0,0.0,0.0,0.0,0.0,0.0,0.0,0.0,0.0,0.0,0.0,0.0,0.0,0.0,0.0,0.0,0.0,0.0,0.0,0.0,0.0,0.0,0.0,0.0,0.0,0.0,0.0,0.0,0.0,0.0,0.0,0.0,0.0,0.0,0.0,0.0,0.0,0.0,0.0,0.0,0.0,0.0,0.0,0.0,0.0,0.0,0.0,0.0,0.0,0.0,0.0,0.0,0.0,0.0,0.0,0.0,0.0,0.0,0.0,0.0,0.0,0.0,0.0,0.0,0.0,0.0,0.0,0.0,0.0,0.0,0.0,0.0,0.4297,0.465,0.4629,0.4629,0.4664,0.4533,0.4244,0.0,0.0,0.0,0.0,0.0,0.0,0.0,0.0,0.0,0.0,0.0,0.0,0.0,0.0,0.0,0.0,0.0,0.0,0.0,0.0,0.0,0.0,0.0,0.0,0.0,0.0,0.0,0.0,0.0,0.0,0.0,0.0,0.0,0.0,0.0,0.0,0.0,0.0,0.0,0.0,0.0,0.0,0.0,0.0,0.0,0.0,0.0,0.0,0.2319,0.0,0.0,0.0,0.0,0.0,0.0,0.0,0.0,0.0,0.0,0.0,0.0,0.0,0.0,0.0,0.0,0.0,0.0,0.0,0.0,0.0,0.0,0.0,0.0,0.0,0.0,0.0,0.0,0.0,0.0,0.0,0.0,0.0,0.0,0.0,0.0,0.0,0.0,0.0,0.0,0.0,0.0,0.0,0.0,0.0,0.0,0.0,0.0,0.0,0.0,0.0,0.0,0.0,0.0,0.0,0.0,0.0,0.0,0.0,0.4702,0.4704,0.4704,0.4718,0.4797,0.4827,0.484,0.0,0.0,0.0,0.0,0.0,0.0,0.0,0.0,0.0,0.0,0.0,0.0,0.0,0.0,0.0,0.0,0.0,0.0,0.0,0.0,0.0,0.0,0.0,0.0,0.0,0.0,0.0,0.0,0.0,0.0,0.0,0.0,0.0,0.0,0.0,0.0,0.0,0.0,0.0,0.0,0.0,0.0,0.0,0.0,0.0,0.0,0.0,0.0,0.0,0.0,0.0,0.0,0.0,0.0,0.0,0.0,0.0,0.0,0.0,0.0,0.0,0.0,0.0,0.0,0.0,0.0,0.0,0.0,0.0,0.0,0.0,0.0,0.0,0.0,0.0,0.0,0.0,0.0,0.0,0.0,0.0,0.0,0.0,0.0,0.0,0.0,0.0,0.0,0.0,0.0,0.0,0.0,0.0,0.0,0.0,0.0,0.0,0.0,0.0,0.0,0.0,0.0,0.0,0.0,0.0,0.0,0.0,0.4109,0.4773,0.473,0.4765,0.4822,0.4912,0.4917,0.4906,0.4886,0.0,0.0,0.0,0.0,0.0,0.0,0.0,0.0,0.0,0.0,0.0,0.0,0.0,0.0,0.0,0.0,0.0,0.0,0.0,0.0,0.0,0.0,0.0,0.0,0.0,0.0,0.0,0.0,0.0,0.0,0.0,0.0,0.0,0.0,0.0,0.0,0.0,0.0,0.0,0.0,0.0,0.0,0.0,0.0,0.0,0.0,0.0,0.0,0.1506,0.0,0.0,0.0,0.0,0.0,0.0,0.0,0.0,0.0,0.0,0.0,0.0,0.0,0.0,0.0,0.0,0.0,0.0,0.0,0.0,0.0,0.0,0.0,0.0,0.0,0.0,0.0,0.0,0.0,0.0,0.0,0.0,0.0,0.0,0.0,0.0,0.0,0.0,0.0,0.0,0.0,0.0,0.0,0.0,0.0,0.0,0.0,0.0,0.0,0.0,0.0,0.0,0.0,0.0,0.0,0.0,0.4265,0.4642,0.4789,0.4798,0.4785,0.4822,0.4911,0.4944,0.4988,0.4981,0.0,0.0,0.0,0.0,0.0,0.0,0.0,0.0,0.0,0.0,0.0,0.0,0.0,0.0,0.0,0.0,0.0,0.0,0.0,0.0,0.0,0.0,0.0,0.0,0.0,0.0,0.0,0.0,0.0,0.0,0.0,0.0,0.0,0.0,0.0,0.0,0.0,0.0,0.0,0.0,0.0,0.0,0.0,0.0,0.0,0.0,0.0,0.0,0.0,0.213,0.0,0.0,0.0,0.0,0.0,0.0,0.0,0.0,0.0,0.0,0.0,0.0,0.0,0.0,0.0,0.0,0.0,0.0,0.0,0.0,0.0,0.0,0.0,0.0,0.0,0.0,0.0,0.0,0.0,0.0,0.0,0.0,0.0,0.0,0.0,0.0,0.0,0.0,0.0,0.0,0.0,0.0,0.0,0.0,0.0,0.0,0.0,0.0,0.0,0.0,0.0,0.0,0.0,0.0,0.0,0.333,0.4308,0.4798,0.4749,0.4798,0.4855,0.4944,0.4941,0.4974,0.0,0.0,0.0,0.0,0.0,0.0,0.0,0.0,0.0,0.0,0.0,0.0,0.0,0.0,0.0,0.0,0.0,0.0,0.0,0.0,0.0,0.0,0.0,0.0,0.0,0.0,0.0,0.0,0.0,0.0,0.0,0.0,0.0,0.0,0.0,0.0,0.0,0.0,0.0,0.0,0.0741,0.0418,0.1558,0.0,0.0,0.0,0.0,0.0,0.0,0.2609,0.2549,0.0,0.0,0.0,0.0,0.0,0.0,0.0,0.0,0.0,0.0,0.0,0.0,0.0,0.0,0.0,0.0,0.0,0.0,0.0,0.0,0.0,0.0,0.0,0.0,0.0,0.0,0.0,0.0,0.0,0.0,0.0,0.0,0.0,0.0,0.0,0.0,0.0,0.0,0.0,0.0,0.0,0.0,0.0,0.0,0.0,0.0,0.0,0.0,0.0,0.0,0.0,0.0,0.0,0.0,0.0,0.2196,0.3887,0.4758,0.4697,0.4761,0.4866,0.4972,0.4913,0.4966,0.0,0.0,0.0,0.0,0.0,0.0,0.0,0.0,0.0,0.0,0.0,0.0,0.0,0.0,0.0,0.0,0.0,0.0,0.0,0.0,0.0,0.0,0.0,0.0,0.0,0.0,0.0,0.0,0.0,0.0,0.0,0.0,0.0,0.0,0.0,0.0,0.0,0.0,0.0,0.0,0.0,0.1303,0.3041,0.2978,0.0,0.0,0.0,0.0,0.3009,0.3221,0.0,0.0,0.0,0.0,0.0,0.0,0.0,0.0,0.0,0.0,0.0,0.0,0.0,0.0,0.0,0.0,0.0,0.0,0.0,0.0,0.0,0.0,0.0,0.0,0.0,0.0,0.0,0.0,0.0,0.0,0.0,0.0,0.0,0.0,0.0,0.0,0.0,0.0,0.0,0.0,0.0,0.0,0.0,0.0,0.0,0.0,0.0,0.0,0.0,0.0,0.0,0.0,0.0,0.0,0.0,0.0,0.2192,0.3807,0.4641,0.4692,0.4767,0.4826,0.4919,0.4914,0.4944,0.0,0.0,0.0,0.0,0.0,0.0,0.0,0.0,0.0,0.0,0.0,0.0,0.0,0.0,0.0,0.0,0.0,0.0,0.0,0.0,0.0,0.0,0.0,0.0,0.0,0.0,0.0,0.0,0.0,0.0,0.0,0.0,0.0,0.0,0.0,0.0,0.0,0.0,0.0,0.0,0.0,0.3007,0.3264,0.3259,0.2999,0.0,0.0,0.0,0.3196,0.2965,0.0,0.0,0.0,0.0,0.0,0.0,0.0,0.0,0.0,0.0,0.0,0.0,0.0,0.0,0.0,0.0,0.0,0.0,0.0,0.0,0.0,0.0,0.0,0.0,0.0,0.0,0.0,0.0,0.0,0.0,0.0,0.0,0.0,0.0,0.0,0.0,0.0,0.0,0.0,0.0,0.0,0.0,0.0,0.0,0.0,0.0,0.0,0.0,0.0,0.0,0.0,0.0,0.0,0.0,0.0,0.2594,0.2377,0.3894,0.4697,0.4692,0.4763,0.4824,0.4894,0.4855,0.4917,0.0,0.0,0.0,0.0,0.0,0.0,0.0,0.0,0.0,0.0,0.0,0.0,0.0,0.0,0.0,0.0,0.0,0.0,0.0,0.0,0.0,0.0,0.0,0.0,0.0,0.0,0.0,0.0,0.0,0.0,0.0,0.0,0.0,0.0,0.0,0.0,0.0,0.0,0.0,0.0,0.0,0.0,0.3251,0.3298,0.0,0.0,0.0,0.308,0.3272,0.0,0.0,0.0,0.0,0.0,0.0,0.0,0.0,0.0,0.0,0.0,0.0,0.0,0.0,0.0,0.0,0.0,0.0,0.0,0.0,0.0,0.0,0.0,0.0,0.0,0.0,0.0,0.0,0.0,0.0,0.0,0.0,0.0,0.0,0.0,0.0,0.0,0.0,0.0,0.0,0.0,0.0,0.0,0.0,0.0,0.0,0.0,0.0,0.0,0.0,0.0,0.0,0.0,0.0,0.0,0.0,0.0,0.3055,0.4184,0.4763,0.4697,0.4763,0.4822,0.4868,0.4816,0.0,0.0,0.0,0.0,0.0,0.0,0.0,0.0,0.0,0.0,0.0,0.0,0.0,0.0,0.0,0.0,0.0,0.0,0.0,0.0,0.0,0.0,0.0,0.0,0.0,0.0,0.0,0.0,0.0,0.0,0.0,0.0,0.0,0.0,0.0,0.0,0.0,0.0,0.0,0.0,0.0,0.0,0.2804,0.3378,0.3448,0.3611,0.0,0.0,0.3491,0.4035,0.366,0.3298,0.0,0.0,0.0,0.0,0.0,0.0,0.0,0.0,0.0,0.0,0.0,0.0,0.0,0.0,0.0,0.0,0.0,0.0,0.0,0.0,0.0,0.0,0.0,0.0,0.0,0.0,0.0,0.0,0.0,0.0,0.0,0.0,0.0,0.0,0.0,0.0,0.0,0.0,0.0,0.0,0.0,0.0,0.0,0.0,0.0,0.0,0.0,0.0,0.0,0.0,0.0,0.0,0.0,0.0,0.0,0.4645,0.4734,0.4765,0.4697,0.4765,0.4791,0.4795,0.4789,0.4831,0.0,0.0,0.0,0.0,0.0,0.0,0.0,0.0,0.0,0.0,0.0,0.0,0.0,0.0,0.0,0.0,0.0,0.0,0.0,0.0,0.0,0.0,0.0,0.0,0.0,0.0,0.0,0.0,0.0,0.0,0.0,0.0,0.0,0.0,0.0,0.0,0.0,0.0,0.0,0.0,0.0,0.2898,0.3755,0.3858,0.4467,0.0,0.0,0.4003,0.6056,0.4639,0.3298,0.3298,0.0,0.0,0.0,0.0,0.0,0.0,0.0,0.0,0.0,0.0,0.0,0.0,0.0,0.0,0.0,0.0,0.0,0.0,0.0,0.0,0.0,0.0,0.0,0.0,0.0,0.0,0.0,0.0,0.0,0.0,0.0,0.0,0.0,0.0,0.0,0.0,0.0,0.0,0.0,0.0,0.0,0.0,0.0,0.0,0.0,0.0,0.0,0.0,0.0,0.0,0.0,0.0,0.0,0.2816,0.4751,0.4789,0.4798,0.4763,0.4798,0.4789,0.4789,0.4789,0.4844,0.0,0.0,0.0,0.0,0.0,0.0,0.0,0.0,0.0,0.0,0.0,0.0,0.0,0.0,0.0,0.0,0.0,0.0,0.0,0.0,0.0,0.0,0.0,0.0,0.0,0.0,0.0,0.0,0.0,0.0,0.0,0.0,0.0,0.0,0.0,0.0,0.0,0.0,0.0,0.0,0.0,0.3528,0.3851,0.5307,0.0,0.0,0.588,0.5141,0.4645,0.3864,0.3298,0.3298,0.3062,0.0,0.0,0.0,0.0,0.0,0.0,0.0,0.0,0.0,0.0,0.0,0.0,0.0,0.0,0.0,0.0,0.0,0.0,0.0,0.0,0.0,0.0,0.0,0.0,0.0,0.0,0.0,0.0,0.0,0.0,0.0,0.0,0.0,0.0,0.0,0.0,0.0,0.0,0.0,0.0,0.0,0.0,0.0,0.0,0.0,0.0,0.0,0.0,0.0,0.0,0.0,0.0,0.1813,0.4056,0.4535,0.4789,0.4789,0.4789,0.4789,0.4789,0.4814,0.4889,0.0,0.0,0.0,0.0,0.0,0.0,0.0,0.0,0.0,0.0,0.0,0.0,0.0,0.0,0.0,0.0,0.0,0.0,0.0,0.0,0.0,0.0,0.0,0.0,0.0,0.0,0.0,0.0,0.0,0.0,0.0,0.0,0.0,0.0,0.0,0.0,0.0,0.0,0.0,0.0,0.0,0.5082,0.5127,0.6709,0.7583,0.6727,0.659,0.6068,0.4525,0.3831,0.3427,0.3332,0.0,0.0,0.0,0.0,0.0,0.0,0.0,0.0,0.0,0.0,0.0,0.0,0.0,0.0,0.0,0.0,0.0,0.0,0.0,0.0,0.0,0.0,0.0,0.0,0.0,0.0,0.0,0.0,0.0,0.0,0.0,0.0,0.0,0.0,0.0,0.0,0.0,0.0,0.0,0.0,0.0,0.0,0.0,0.0,0.0,0.0,0.0,0.0,0.0,0.0,0.0,0.0,0.0,0.0,0.2503,0.404,0.4789,0.4789,0.4789,0.4789,0.4793,0.4856,0.4895,0.4897,0.0,0.0,0.0,0.0,0.0,0.0,0.0,0.0,0.0,0.0,0.0,0.0,0.0,0.0,0.0,0.0,0.0,0.0,0.0,0.0,0.0,0.0,0.0,0.0,0.0,0.0,0.0,0.0,0.0,0.0,0.0,0.0,0.0,0.0,0.0,0.0,0.0,0.0,0.0,0.6164,0.7801,0.7764,0.7854,0.7598,0.674,0.6616,0.6591,0.6482,0.5001,0.3758,0.0,0.0,0.0,0.0,0.0,0.0,0.0,0.0,0.0,0.0,0.0,0.0,0.0,0.0,0.0,0.0,0.0,0.0,0.0,0.0,0.0,0.0,0.0,0.0,0.0,0.0,0.0,0.2117,0.128,0.0,0.0,0.0,0.0,0.0,0.0,0.0,0.0,0.0,0.0,0.0,0.5259,0.4766,0.0,0.0,0.0,0.0,0.0,0.0,0.0,0.0,0.0,0.0,0.0,0.0,0.4003,0.4023,0.4519,0.4789,0.4789,0.4789,0.4818,0.4856,0.4882,0.491,0.493,0.0,0.0,0.0,0.0,0.0,0.0,0.0,0.0,0.0,0.0,0.0,0.0,0.0,0.0,0.0,0.0,0.0,0.0,0.0,0.0,0.0,0.0,0.0,0.0,0.0,0.0,0.0,0.0,0.0,0.0,0.0,0.0,0.0,0.0,0.0,0.0,0.0,0.4399,0.6317,0.7338,0.7906,0.7906,0.7906,0.768,0.0,0.0,0.0,0.0,0.0,0.0,0.0,0.0,0.0,0.0,0.0,0.0,0.0,0.0,0.733,0.5576,0.5246,0.4628,0.2599,0.0,0.0,0.0,0.0,0.0,0.0,0.0,0.0,0.0,0.0,0.0,0.0,0.0,0.0,0.454,0.0,0.2639,0.0,0.0,0.0,0.0,0.0,0.0,0.0,0.0,0.5342,0.5542,0.6014,0.5518,0.5296,0.0,0.5027,0.3737,0.0,0.0,0.0,0.0,0.0,0.0,0.0,0.0,0.4789,0.4789,0.4789,0.4789,0.4789,0.4789,0.4824,0.4909,0.492,0.4976,0.504,0.4368,0.3289,0.0,0.0,0.0,0.0,0.0,0.0,0.0,0.0,0.0,0.0,0.0,0.0,0.0,0.0,0.0,0.0,0.0,0.0,0.0,0.0,0.0,0.0,0.0,0.0,0.0,0.0,0.0,0.0,0.0,0.0,0.0,0.0,0.0,0.3496,0.4554,0.5945,0.7674,0.7906,0.7906,0.7906,0.0,0.0,0.0,0.0,0.0,0.0,0.0,0.5478,0.7161,0.7709,0.7906,0.7906,0.6241,0.5568,0.7551,0.0,0.0,0.7906,0.7768,0.6978,0.4872,0.5722,0.6219,0.4372,0.537,0.659,0.0,0.0,0.0,0.0,0.0,0.0,0.0,0.0,0.6331,0.7075,0.0,0.6422,0.0,0.0,0.0,0.0,0.0,0.6799,0.0,0.0,0.685,0.6702,0.6719,0.669,0.6707,0.6681,0.5988,0.5261,0.4525,0.3048,0.0,0.0,0.0,0.0,0.0,0.0,0.4789,0.4789,0.4789,0.4789,0.4789,0.4789,0.4826,0.4911,0.4965,0.5031,0.5097,0.5087,0.508,0.502,0.1953,0.0,0.0,0.0,0.0,0.0,0.0,0.0,0.0,0.0,0.0,0.0,0.0,0.0,0.0,0.0,0.0,0.0,0.0,0.0,0.0,0.0052,0.0,0.0,0.0,0.0,0.0,0.0,0.0,0.0,0.0,0.0,0.4152,0.6277,0.7906,0.7899,0.0,0.0,0.0,0.0,0.7906,0.7885,0.7906,0.7746,0.7287,0.7569,0.7583,0.6807,0.0,0.0,0.7906,0.7884,0.7817,0.7906,0.7906,0.7906,0.7906,0.7524,0.7063,0.6608,0.6859,0.7066,0.6718,0.6558,0.6629,0.9216,0.0,0.0,0.0,0.0,0.7526,0.781,0.8558,0.8327,0.8124,0.7884,0.7503,0.0,0.0,0.0,0.0,0.0,0.0,0.6804,0.6888,0.677,0.6994,0.7459,0.6943,0.6972,0.7442,0.6749,0.6016,0.5313,0.4865,0.4388,0.3916,0.0,0.0,0.0,0.0,0.4749,0.4789,0.4789,0.4789,0.4789,0.4789,0.486,0.497,0.5036,0.5069,0.5096,0.5101,0.509,0.5073,0.4159,0.0,0.0,0.0,0.0,0.0,0.0,0.0,0.0,0.0,0.0,0.0,0.0,0.0,0.0,0.0,0.0,0.0,0.0,0.0,0.3011,0.1287,0.0,0.0,0.0,0.0,0.0,0.0,0.0,0.0,0.0,0.0,0.7167,0.77,0.7906,0.0,0.0,0.7906,0.7906,0.7906,0.7906,0.7906,0.0,0.0,0.0,0.7812,0.7805,0.756,0.7753,0.7906,0.7906,0.7906,0.7906,0.7906,0.7906,0.7906,0.7885,0.7523,0.7074,0.6757,0.7189,0.7635,0.7545,0.7284,0.6934,1.1127,1.0337,0.9165,0.8934,0.9257,0.8865,0.915,0.9875,0.9473,0.906,0.8686,0.8686,0.8244,0.7493,0.7218,0.0,0.0,0.0,0.7633,0.7502,0.7532,0.7815,0.8192,0.779,0.7798,0.8192,0.7476,0.6914,0.6489,0.6176,0.5833,0.5395,0.0,0.0,0.4728,0.4677,0.4704,0.4757,0.4759,0.4773,0.4789,0.4822,0.4874,0.4989,0.504,0.5068,0.5098,0.5098,0.5102,0.5105,0.5096,0.416,0.0,0.0,0.0,0.0,0.0,0.0,0.0,0.0,0.0,0.0,0.0,0.0548,0.0,0.0,0.0,0.0,0.0,0.124,0.4229,0.2857,0.0,0.0,0.0,0.0,0.0,0.0,0.0,0.4476,0.4274,0.5334,0.8441,0.8553,0.8293,0.8302,0.8075,0.7906,0.7906,0.0,0.7949,0.8068,0.7992,0.7906,0.7906,0.7906,0.7906,0.7906,0.7906,0.7906,0.7906,0.7906,0.7906,0.7906,0.7906,0.7906,0.7906,0.7672,0.7417,0.7187,0.7536,0.7885,0.7906,0.7672,0.7402,1.2876,1.2729,1.0952,1.0144,1.0054,1.0039,1.0054,1.0064,1.0054,1.0024,0.9965,0.997,0.9599,0.898,0.8981,0.0,0.8297,0.9117,0.9239,0.884,0.8912,0.8959,0.8965,0.8897,0.8919,0.8874,0.8209,0.7883,0.7843,0.7143,0.6804,0.6764,0.539,0.4715,0.4757,0.4777,0.4807,0.4892,0.4827,0.4784,0.4789,0.4878,0.4931,0.4986,0.5,0.503,0.5095,0.5095,0.5099,0.5099,0.5094,0.5098,0.5,0.0,0.0,0.0,0.0,0.0,0.0,0.0,0.0,0.0,0.0,0.0,0.0,0.0,0.0,0.0,0.0218,0.0,0.428,0.4513,0.0,0.0,0.0,0.4349,0.3994,0.4482,0.4851,0.4838,0.0,0.0,0.8563,0.0,0.8919,0.8919,0.8364,0.7999,0.7977,0.8005,0.8089,0.8387,0.8176,0.7963,0.7928,0.7906,0.7906,0.7906,0.7906,0.7906,0.7906,0.7906,0.7906,0.7906,0.7906,0.7906,0.7906,0.7885,0.7906,0.7863,0.7892,0.7906,0.7899,0.7863,0.7856,1.3555,1.354,1.3065,1.2284,1.1341,1.1346,1.1341,1.1341,1.1341,1.1062,1.0598,1.0583,1.0249,0.9683,0.9762,0.974,0.9644,1.0001,1.0113,0.9967,0.96,0.9439,0.9412,0.9064,0.8919,0.8897,0.8722,0.836,0.7844,0.7638,0.7261,0.6724,0.6347,0.6203,0.6266,0.6274,0.6302,0.638,0.5862,0.5349,0.4824,0.486,0.4914,0.4925,0.4969,0.4999,0.5007,0.5074,0.5097,0.5098,0.51,0.5093,0.5059,0.1875,0.0,0.0,0.0,0.0,0.0,0.0,0.0,0.0,0.0,0.1355,0.4559,0.0,0.2634,0.0,0.2077,0.3794,0.4625,0.4584,0.0,0.0,0.4437,0.4457,0.4386,0.6441,0.7846,0.7853,0.7863,0.8117,0.8812,0.8919,0.8919,0.8891,0.8755,0.865,0.8678,0.8655,0.8702,0.8765,0.8724,0.8462,0.7998,0.7906,0.7906,0.7906,0.7906,0.7906,0.7906,0.7906,0.7906,0.7906,0.7906,0.7906,0.7906,0.7906,0.7906,0.7906,0.7906,0.7906,0.7906,0.7906,0.7906,1.4244,1.4229,1.3929,1.3376,1.2658,1.2373,1.225,1.2224,1.1925,1.1595,1.1251,1.1256,1.1047,1.0743,1.082,1.0686,1.044,1.0744,1.0725,1.0431,1.0318,1.0098,0.9776,0.9519,0.9213,0.8919,0.8919,0.8693,0.8304,0.8282,0.809,0.7679,0.7679,0.7698,0.7712,0.7132,0.6862,0.6941,0.6658,0.6337,0.5921,0.5573,0.5394,0.5421,0.5168,0.5005,0.4998,0.5063,0.5088,0.5089,0.5094,0.5098,0.5059,0.3301,0.1582,0.0,0.0,0.0,0.0,0.0,0.0,0.0,0.0,0.0,0.0,0.0,0.4063,0.2305,0.3675,0.4679,0.4779,0.4704,0.4597,0.4511,0.5673,0.6457,0.6444,0.7909,0.8919,0.8919,0.8919,0.8919,0.8919,0.8919,0.8919,0.8919,0.8919,0.8919,0.8919,0.8919,0.9111,0.9755,0.9321,0.8667,0.8005,0.7906,0.8005,0.824,0.8102,0.7906,0.7906,0.7906,0.7906,0.7906,0.7906,0.7906,0.7906,0.7906,0.7906,0.7906,0.7906,0.7906,0.7906,0.7906,0.7906,1.4917,1.4871,1.4303,1.4049,1.3991,1.3331,1.2999,1.2891,1.222,1.1876,1.1816,1.1816,1.1816,1.1816,1.1816,1.1491,1.0947,1.1346,1.1245,1.0759,1.1016,1.0824,1.0255,1.018,0.9743,0.9061,0.9027,0.8999,0.8919,0.8919,0.8919,0.8919,0.8919,0.8919,0.8857,0.7751,0.7168,0.7137,0.7271,0.7341,0.7288,0.6631,0.6202,0.6061,0.5472,0.5104,0.5004,0.5039,0.5102,0.5079,0.5105,0.5097,0.5097,0.5098,0.3789,0.0,0.0645,0.0,0.0,0.0,0.0,0.0,0.0,0.0,0.0,0.4941,0.4789,0.4789,0.5175,0.5422,0.5422,0.5436,0.5344,0.5264,0.7441,0.8989,0.8983,0.9006,0.8983,0.9011,0.9011,0.9006,0.9033,0.8994,0.9011,0.9038,0.8946,0.9174,0.9507,0.9653,1.0128,1.1231,1.0138,0.9091,0.8308,0.8068,0.8249,0.8714,0.8447,0.7998,0.7906,0.7906,0.7906,0.7906,0.7941,0.7991,0.8019,0.797,0.7906,0.7906,0.7906,0.7906,0.7906,0.7906,0.7906,1.5604,1.5604,1.547,1.5439,1.5365,1.4706,1.4122,1.357,1.2894,1.231,1.1805,1.1816,1.1816,1.1816,1.1816,1.1719,1.161,1.1705,1.1785,1.1876,1.1553,1.1474,1.1512,1.1102,1.0521,0.9821,0.9787,0.9495,0.8919,0.8919,0.8919,0.8919,0.8919,0.8919,0.8902,0.0,0.0,0.0,0.7768,0.7581,0.7319,0.7571,0.7169,0.6069,0.5927,0.0,0.4953,0.4978,0.5028,0.5016,0.507,0.0,0.0,0.0,0.0,0.0,0.0,0.0,0.0,0.0,0.0,0.0,0.5076,0.5603,0.6895,0.5685,0.4789,0.4864,0.7189,0.878,0.8776,0.878,0.8766,0.876,0.9199,0.9542,0.9542,0.9524,0.9542,0.9546,0.9542,0.9542,0.9525,0.956,0.9534,0.95,0.9164,0.9926,1.2207,1.2403,1.2617,1.2837,1.1594,1.0207,0.8909,0.8818,0.8961,0.8858,0.8829,0.8584,0.8206,0.7936,0.7906,0.7928,0.8116,0.8399,0.8626,0.8273,0.7928,0.7906,0.7914,0.7906,0.7906,0.7906,0.7906,1.5814,0.0,1.5814,1.5814,0.0,1.5439,1.5095,1.4721,1.372,1.3092,1.2781,1.2781,1.2613,1.2284,1.2295,1.2181,1.2008,1.2133,1.2336,1.2582,1.2477,1.2323,1.2089,1.1804,1.1275,1.0531,1.0176,0.9804,0.9444,0.9078,0.8919,0.8919,0.8919,0.8919,0.8919,0.9038,0.9004,0.8779,0.8662,0.8571,0.8504,0.8747,0.8379,0.7283,0.0,0.0,0.0,0.0,0.0,0.0,0.0,0.0,0.0,0.0,0.0,0.5098,0.5098,0.5098,0.5098,0.5089,0.5842,0.7525,0.763,0.7967,0.8778,0.7123,0.6366,0.7173,0.8776,0.9698,0.9698,0.9698,0.9698,0.9698,0.9698,0.9698,0.9717,0.9806,0.9832,0.9736,0.9698,0.9698,0.9698,0.9698,0.9698,0.9691,0.9487,1.0461,1.3207,1.3614,1.3405,1.3396,1.2837,1.2,1.1306,1.1127,1.1076,1.1127,1.1127,1.099,1.0668,0.9101,0.7976,0.8315,0.8534,0.8714,0.8812,0.8478,0.8135,0.8171,0.8282,0.8383,0.8364,0.8142,0.8027,1.5889,1.5814,1.5814,1.5814,1.5814,1.5814,1.5814,1.5724,0.0,0.0,0.0,1.3797,1.3483,1.2969,1.2861,1.2637,1.2386,1.2479,1.2703,1.2997,1.3226,1.3033,1.25,1.2508,1.2068,1.1299,1.0707,1.0261,0.999,0.9393,0.9015,0.8919,0.8919,0.8919,0.8908,0.8999,0.9179,0.9399,0.9461,0.9517,0.9653,0.9691,0.9309,0.8531,0.7231,0.6462,0.63,0.5735,0.5411,0.5425,0.5426,0.531,0.5115,0.5099,0.5098,0.5098,0.5098,0.5352,0.5957,0.6035,0.7246,1.0117,1.0228,1.0172,1.0104,0.8689,0.8333,0.9649,0.976,0.9782,0.976,0.9786,0.976,0.9767,0.9764,0.9767,0.984,1.0603,1.0844,0.9974,0.9732,0.9698,0.972,1.0323,1.0249,0.9919,1.0339,1.1365,1.3711,1.392,1.347,1.3404,1.3244,1.3295,1.3345,1.3227,1.3396,1.3142,1.3227,1.3396,1.295,1.0904,0.9135,0.8788,0.8914,0.8897,0.8886,0.8684,0.8511,0.8498,0.8702,0.8919,0.8858,0.8472,0.8289,1.6278,1.5814,1.5814,1.5814,1.5814,1.5814,1.5814,1.5754,1.499,1.4333,1.3797,1.3797,1.3737,1.3645,1.3074,1.2894,1.303,1.251,1.253,0.0,1.304,1.3123,1.3235,1.3244,1.2854,1.2162,1.2009,1.1292,1.0109,0.9889,0.9546,0.8982,0.8919,0.8919,0.8919,0.893,0.9011,0.9154,0.9491,0.9617,0.953,0.9641,0.9335,0.8528,0.8281,0.7834,0.7146,0.703,0.7013,0.7039,0.6745,0.6117,0.5174,0.5156,0.5097,0.5098,0.5098,0.6406,0.9316,0.957,0.9785,1.0234,1.0247,1.0172,1.011,0.9865,0.9808,1.0031,1.0018,1.0029,1.0029,1.0039,1.0034,1.0037,1.0046,1.0027,1.0094,1.2511,1.3179,1.0632,0.9828,0.9813,1.0227,1.21,1.2572,1.0851,1.1911,1.3906,1.4203,1.4123,1.3734,1.3479,1.3396,1.3396,1.3396,1.3396,1.3396,1.3396,1.3396,1.3396,1.3396,1.2748,1.1479,0.9393,0.918,0.901,0.8953,0.8869,0.8801,0.8795,0.8869,0.8919,0.8919,0.8778,0.8749,1.6532,1.6263,1.5948,1.5814,1.5814,1.5814,1.5814,1.5784,1.5484,1.517,1.4901,1.4872,1.4677,1.4288,1.3658,1.3276,1.3169,1.2499,1.2481,1.2986,1.3004,1.3138,1.3388,1.3396,1.3244,1.2888,1.2483,1.1722,1.0649,1.0203,0.9624,0.8965,0.8919,0.8919,0.8919,0.8919,0.8936,0.9001,0.9169,0.9349,0.9478,0.9629,0.9515,0.9166,0.8758,0.8332,0.795,0.7522,0.7313,0.7345,0.757,0.7309,0.6543,0.7309,0.7809,0.783,0.7882,0.8613,1.0176,1.0312,1.0312,1.0312,1.0272,1.0226,1.0223,1.0135,1.0094,1.0094,1.0094,1.0094,1.0094,1.0094,1.0094,1.0094,1.0094,1.0094,1.0346,1.2252,1.3541,1.2858,1.1954,1.1686,1.2569,1.3737,1.4126,1.265,1.3778,1.4488,1.4488,1.4356,1.4169,1.4005,1.3684,1.343,1.3413,1.3396,1.3396,1.3396,1.3396,1.3396,1.3396,1.3405,1.2803,1.164,1.0873,1.0081,0.942,0.8995,0.8925,0.8919,0.8919,0.8919,0.8919,0.8919,0.8919,1.6965,1.6636,1.6368,1.6144,1.5994,1.5844,1.5814,1.5814,1.5799,1.5814,1.5814,1.5814,1.5514,1.499,1.4333,1.3794,1.3378,1.2731,1.2655,1.2977,1.3004,1.3122,1.3371,1.3396,1.3396,1.3345,1.2812,1.2145,1.1374,1.0616,0.9777,0.8999,0.8919,0.8919,0.8919,0.8919,0.8919,0.8919,0.8919,0.9068,0.9434,0.9613,0.9698,0.9661,0.9103,0.8776,0.8743,0.8172,0.7846,0.7909,0.8421,0.8557,0.8253,0.9386,1.0094,1.011,1.0191,1.027,1.0293,1.0312,1.0312,1.0312,1.0312,1.0312,1.0293,1.02,1.016,1.0139,1.0147,1.013,1.0108,1.0094,1.0094,1.0094,1.0094,1.0094,1.0269,1.1947,1.3719,1.4811,1.4025,1.3788,1.4766,1.4877,1.4558,1.4417,1.4488,1.4488,1.4488,1.4488,1.4488,1.4399,1.4005,1.3723,1.3628,1.3669,1.3692,1.3646,1.3669,1.3705,1.3715,1.3677,1.3644,1.3397,1.2891,1.203,1.0747,0.958,0.934,0.9548,1.0186,1.0343,1.024,0.9377,0.897,1.7787,1.686,1.728,1.716,1.6577,1.6054,1.5844,1.5829,1.5814,1.5814,1.5814,1.5814,1.5784,1.5619,1.499,1.4444,1.4014,1.3405,1.3052,1.2982,1.3004,1.3147,1.3371,1.3396,1.3396,1.3379,1.3295,1.2846,1.2094,1.1316,1.029,0.9049,0.8919,0.8919,0.8919,0.8919,0.8919,0.8919,0.8919,0.9026,0.9321,0.9581,0.9698,0.9698,0.9625,0.9588,0.9551,0.9522,0.9527,0.9637,0.9613,0.9703,0.984,1.0017,1.0094,1.0096,1.0117,1.0166,1.0273,1.0312,1.0312,1.0312,1.0312,1.0312,1.0312,1.0293,1.0293,1.0273,1.0293,1.0212,1.0124,1.0106,1.0117,1.0121,1.01,1.0094,1.0652,1.3,1.5038,1.5138,1.4942,1.5041,1.5129,1.5117,1.4957,1.4619,1.4581,1.4556,1.4488,1.4488,1.4488,1.4488,1.4399,1.4356,1.4332,1.4399,1.4301,1.435,1.4381,1.4313,1.4275,1.4301,1.4375,1.4151,1.4192,1.3796,1.3117,1.1734,1.0011,1.1,1.2185,1.3593,1.286,1.1005,0.9536,1.8371,1.7861,1.7758,1.7548,1.7219,1.6607,1.6323,1.6323,1.5949,1.5814,1.5814,1.5814,1.5814,1.5754,1.5095,1.4502,1.394,1.327,1.2792,1.2568,1.2693,1.2915,1.3156,1.3337,1.3396,1.3396,1.3396,1.3032,1.2212,1.1062,1.0142,0.9551,0.9128,0.8919,0.8919,0.8919,0.8919,0.8919,0.8919,0.9001,0.9187,0.9399,0.956,0.9593,0.9667,0.9698,0.9698,0.9698,0.9739,0.9834,0.9857,0.985,0.986,1.0004,1.0094,1.0094,1.0094,1.0128,1.0194,1.0209,1.0266,1.0293,1.0312,1.0312,1.0312,1.0312,1.0312,1.0312,1.0312,1.027,1.0215,1.0234,1.0207,1.02,1.0163,1.0867,1.3,1.4308,1.5195,1.5195,1.5195,1.5195,1.5195,1.5195,1.5117,1.4927,1.4898,1.4822,1.4589,1.4488,1.4488,1.4488,1.4488,1.4488,1.4488,1.4488,1.4488,1.4488,1.4488,1.4488,1.4488,1.4488,1.4482,1.4488,1.4488,1.4488,1.4348,1.366,1.2515,1.2859,1.3203,1.4393,1.4094,1.2739,1.1748,1.8867,1.8612,1.7983,1.7833,1.7908,1.7264,1.6876,1.6667,1.6219,1.5964,1.5814,1.5814,1.5814,1.5739,1.5275,1.4643,1.3895,1.3404,1.2899,1.248,1.2626,1.2843,1.3112,1.3286,1.3396,1.3396,1.3396,1.3015,1.2212,1.0978,1.021,0.9939,0.9281,0.8919,0.8919,0.8919,0.8919,0.8919,0.893,0.9011,0.9109,0.9326,0.9461,0.9508,0.9625,0.9698,0.9698,0.9698,0.9743,0.9791,0.9854,0.9847,0.9828,0.9971,1.0061,1.0092,1.0094,1.0094,1.0094,1.0141,1.0202,1.0273,1.0291,1.0271,1.0293,1.0312,1.0312,1.0312,1.0312,1.0312,1.0312,1.0312,1.0312,1.0332,1.0885,1.2665,1.4828,1.5246,1.5245,1.5212,1.5195,1.5195,1.5195,1.5195,1.518,1.5174,1.5174,1.5111,1.4762,1.4603,1.4488,1.4488,1.4488,1.4488,1.4488,1.4488,1.4488,1.4488,1.4488,1.4488,1.4488,1.4488,1.4488,1.4488,1.4488,1.4488,1.4488,1.4298,1.417,1.3429,1.3668,1.4488,1.4411,1.3909,1.3719,1.9286,1.8657,1.7983,1.8132,1.8595,1.7953,1.7278,1.6756,1.6651,1.6338,1.5844,1.5814,1.5799,1.5813,1.5723,1.517,1.4274,1.4098,1.3644,1.2971,1.295,1.3121,1.3379,1.3396,1.3396,1.3396,1.3396,1.3041,1.2322,1.1458,1.0697,1.0024,0.9275,0.8919,0.8919,0.8925,0.8919,0.8925,0.9033,0.9093,0.9129,0.935,0.9496,0.9513,0.9644,0.9698,0.9698,0.9698,0.9721,0.9788,0.9801,0.9878,1.0046,0.9981,0.9986,1.0078,1.0094,1.0094,1.0094,1.0104,1.0155,1.0267,1.0251,1.0221,1.027,1.0293,1.0312,1.0312,1.0312,1.0312,1.0312,1.0312,1.0312,1.0527,1.3184,1.4863,1.5312,1.5371,1.5332,1.5236,1.5207,1.5195,1.5195,1.5195,1.5195,1.5195,1.5195,1.5171,1.5068,1.4762,1.4587,1.4549,1.4556,1.4529,1.4505,1.4488,1.4488,1.4488,1.4488,1.4488,1.4488,1.4488,1.4493,1.4493,1.4488,1.4488,1.4488,1.4469,1.4433,1.4163,1.4108,1.4488,1.4488,1.4488,1.4325,1.9573,1.9333,1.9076,1.9121,1.9241,1.8627,1.7951,1.7324,1.6875,1.6353,1.5874,1.5814,1.5912,1.6108,1.5899,1.5346,1.4606,1.4311,1.3813,1.3172,1.3034,1.3049,1.3147,1.332,1.3396,1.3396,1.3396,1.3278,1.288,1.1729,1.0984,1.0538,0.9484,0.8919,0.8908,0.8995,0.9021,0.9026,0.9154,0.9218,0.9255,0.9403,0.95,0.9508,0.9625,0.9698,0.9698,0.9698,0.9725,0.9788,0.9791,0.989,1.0068,1.0038,1.0048,1.009,1.0094,1.0094,1.0094,1.0094,1.0122,1.0161,1.0202,1.0175,1.0205,1.0254,1.0312,1.0312,1.0312,1.0312,1.0312,1.0312,1.0312,1.0742,1.3301,1.541,1.541,1.541,1.5388,1.5319,1.5274,1.5195,1.5198,1.5195,1.5195,1.5195,1.5195,1.5195,1.5183,1.5026,1.491,1.4927,1.4954,1.4954,1.4954,1.4653,1.4493,1.4488,1.4488,1.4517,1.4523,1.4556,1.4578,1.4581,1.4554,1.4488,1.4488,1.4528,1.4516,1.4488,1.4488,1.4488,1.4488,1.4488,1.4488,1.9723,1.9723,1.9723,1.9723,1.9648,1.9226,1.8642,1.7997,1.7533,1.6876,1.6204,1.6084,1.6109,1.6126,1.5913,1.5644,1.5241,1.4768,1.4132,1.3499,1.3372,1.3246,1.318,1.3303,1.3396,1.3396,1.3396,1.3396,1.3261,1.2118,1.1383,1.1018,0.984,0.9111,0.897,0.8978,0.9042,0.9126,0.9228,0.9308,0.9367,0.9482,0.9559,0.9585,0.9649,0.9698,0.9698,0.9698,0.9725,0.9768,0.9777,0.9893,1.0072,1.0094,1.0094,1.0094,1.0094,1.0094,1.0094,1.0094,1.0094,1.0096,1.013,1.0139,1.0113,1.0182,1.0233,1.024,1.0293,1.0312,1.0312,1.0312,1.0312,1.0723,1.3359,1.5352,1.541,1.541,1.541,1.5391,1.5337,1.525,1.5193,1.5198,1.5195,1.5195,1.5195,1.5195,1.5195,1.5195,1.5195,1.5192,1.5171,1.5162,1.5127,1.491,1.4803,1.4789,1.4733,1.4688,1.4616,1.464,1.4678,1.4678,1.4611,1.4545,1.4516,1.4556,1.455,1.4522,1.4488,1.4488,1.4488,1.4488,1.4488,1.9723,1.9723,1.9723,1.9723,1.9708,1.9648,1.9303,1.8672,1.8597,1.7788,1.6667,1.6636,1.6338,1.5932,1.5842,1.5939,1.6059,1.5531,1.4825,1.4192,1.4015,1.3776,1.3489,1.3422,1.3396,1.3396,1.3396,1.3396,1.3328,1.2575,1.1857,1.113,1.0352,0.9591,0.8953,0.8976,0.8995,0.9126,0.9242,0.9376,0.9504,0.9621,0.9687,0.9691,0.9698,0.9698,0.9698,0.9698,0.9706,0.9699,0.9768,0.9893,1.0044,1.0084,1.0094,1.0094,1.0094,1.0094,1.0094,1.0094,1.0094,1.0096,1.01,1.0262,1.0739,1.0364,1.0126,1.0132,1.0554,1.0664,1.0762,1.084,1.0664,1.0645,1.334,1.5312,1.541,1.541,1.541,1.541,1.5391,1.5352,1.525,1.5226,1.5231,1.521,1.5195,1.5195,1.5195,1.5195,1.5195,1.5195,1.5195,1.5195,1.5195,1.5186,1.518,1.5168,1.5101,1.5026,1.4862,1.4835,1.4961,1.4954,1.4812,1.4738,1.4685,1.4714,1.467,1.4653,1.4592,1.4528,1.4488,1.4488,1.4488,1.9723,1.9723,1.9723,1.9723,1.9723,1.9723,1.9316,1.8732,1.8702,1.7953,1.686,1.6696,1.6502,1.6146,1.5912,1.6109,1.6578,1.6171,1.5798,1.5419,1.4718,1.4275,1.4089,1.3625,1.3396,1.3396,1.3396,1.3396,1.3278,1.2677,1.2145,1.1739,1.0633,0.9939,0.9664,0.9275,0.9093,0.9245,0.9372,0.9508,0.9625,0.9679,0.9698,0.9698,0.9698,0.9698,0.9698,0.9698,0.9698,0.9698,0.9714,0.9768,0.9835,0.9989,1.009,1.0094,1.0094,1.0094,1.0094,1.0113,1.0152,1.0094,1.0094,1.1365,1.2901,1.1459,1.0325,1.05,1.2158,1.3712,1.3789,1.3809,1.2793,1.0605,1.332,1.541,1.541,1.541,1.541,1.541,1.541,1.5391,1.5352,1.5352,1.5284,1.5223,1.5215,1.5212,1.5195,1.5195,1.5195,1.5195,1.5195,1.5195,1.5195,1.5195,1.5195,1.5195,1.5186,1.5183,1.504,1.4996,1.513,1.5168,1.5015,1.4931,1.4906,1.4854,1.4834,1.4798,1.4748,1.4653,1.4539,1.4488,1.4488,1.9723,1.9723,1.9723,1.9723,1.9723,1.9723,1.9483,1.9106,1.9076,1.8311,1.7264,1.7085,1.6698,1.6176,1.5899,1.6108,1.6567,1.6517,1.6537,1.6382,1.529,1.467,1.4435,1.376,1.3396,1.3396,1.3396,1.3396,1.3379,1.2948,1.2583,1.2128,1.1316,1.0707,1.0386,0.9788,0.9495,0.9597,0.9514,0.9496,0.9609,0.9679,0.9698,0.9698,0.9698,0.9698,0.9698,0.9698,0.9698,0.9698,0.9698,0.9698,0.9721,0.9863,0.9984,1.0082,1.0094,1.0094,1.0133,1.0536,1.0498,1.0229,1.0094,1.1594,1.3959,1.2901,1.2077,1.2404,1.3835,1.5229,1.526,1.5293,1.4277,1.2539,1.4062,1.5332,1.541,1.541,1.541,1.541,1.541,1.541,1.541,1.541,1.5371,1.5279,1.5278,1.5238,1.5226,1.5195,1.5201,1.5201,1.5195,1.5195,1.5195,1.5195,1.5195,1.5195,1.5192,1.5192,1.513,1.5117,1.5195,1.5195,1.5104,1.5094,1.5054,1.5018,1.4966,1.4938,1.4902,1.4785,1.4663,1.4522,1.4488,1.9723,1.9723,1.9723,1.9723,1.9723,1.9723,1.9678,1.9678,1.9663,1.8927,1.7938,1.7637,1.6997,1.6083,1.5858,1.6011,1.6299,1.6567,1.6872,1.6724,1.578,1.4825,1.4266,1.3676,1.3413,1.3396,1.3396,1.3396,1.3396,1.3312,1.3066,1.2474,1.2212,1.1908,1.1164,1.0453,1.0094,1.0042,0.967,0.9492,0.9553,0.9739,0.9753,0.9717,0.9698,0.9698,0.9698,0.9698,0.9698,0.9698,0.9698,0.9698,0.9698,0.9706,0.9828,1.0072,1.0094,1.0094,1.0327,1.1154,1.1579,1.1019,1.1056,1.1632,1.4478,1.4808,1.4519,1.458,1.5003,1.5198,1.5202,1.5212,1.508,1.5312,1.5234,1.541,1.541,1.541,1.541,1.541,1.541,1.541,1.541,1.541,1.5391,1.5391,1.5391,1.532,1.5274,1.525,1.524,1.524,1.5243,1.5195,1.5195,1.5195,1.5234,1.55,1.5712,1.6138,1.5465,1.5195,1.5195,1.5195,1.5195,1.5195,1.5183,1.5121,1.5111,1.5104,1.5026,1.491,1.4794,1.4663,1.462,1.9723,1.9723,1.9723,1.9723,1.9723,1.9723,1.9723,1.9723,1.9723,1.9214,1.8463,1.7923,1.7234,1.6443,1.5979,1.5983,1.6246,1.6394,1.676,1.7006,1.5792,1.4592,1.3835,1.3515,1.3396,1.3396,1.3396,1.3396,1.3396,1.3396,1.3295,1.3091,1.2575,1.2246,1.1874,1.1214,1.061,1.0267,1.0189,0.9894,0.9708,1.0252,1.026,0.9735,0.9735,0.9753,0.9717,0.9698,0.9698,0.9698,0.9698,0.9698,0.9698,0.9702,0.9815,1.0027,1.0109,1.0094,1.0404,1.156,1.2736,1.3808,1.35,1.425,1.5,1.5195,1.5195,1.5195,1.5195,1.5195,1.5195,1.5195,1.5265,1.5371,1.5391,1.5391,1.541,1.541,1.541,1.541,1.541,1.541,1.541,1.541,1.541,1.541,1.541,1.5391,1.5332,1.5336,1.5344,1.5328,1.5318,1.5243,1.5195,1.5195,1.5365,1.5769,1.65,1.7692,1.6481,1.5195,1.5195,1.5195,1.5195,1.5195,1.5195,1.5174,1.5192,1.5368,1.5719,1.583,1.5159,1.4853,1.486,1.9723,1.9723,1.9723,1.9723,1.9723,1.9723,1.9723,1.9723,1.9708,1.9333,1.8672,1.7983,1.7324,1.6682,1.6084,1.5884,1.608,1.6246,1.6528,1.6597,1.563,1.4506,1.3657,1.3396,1.3396,1.3396,1.3396,1.3396,1.3396,1.3396,1.3396,1.3312,1.2982,1.2762,1.2711,1.2,1.1443,1.113,1.0927,1.0608,1.0468,1.0946,1.1077,1.0683,1.0539,1.0502,1.0925,1.0851,1.0451,0.9919,0.9698,0.9698,0.9698,0.9698,0.9786,0.9941,1.0037,1.0094,1.0404,1.1716,1.3412,1.4772,1.5195,1.5195,1.5195,1.5195,1.5195,1.5195,1.5195,1.5195,1.5195,1.5195,1.5231,1.5293,1.5329,1.533,1.541,1.541,1.541,1.541,1.541,1.541,1.541,1.541,1.541,1.541,1.541,1.541,1.541,1.543,1.5702,1.5982,1.5956,1.592,1.6673,1.6976,1.7238,1.7459,1.7577,1.8808,1.7404,1.5712,1.5522,1.5541,1.5349,1.533,1.5599,1.5734,1.5772,1.6058,1.6519,1.6442,1.5741,1.5743,1.5668,1.9723,1.9723,1.9723,1.9723,1.9723,1.9723,1.9723,1.9723,1.9723,1.9393,1.8777,1.8042,1.7399,1.6756,1.6232,1.5841,1.5842,1.6179,1.6235,1.607,1.5418,1.4556,1.3743,1.3439,1.3413,1.3396,1.3396,1.3396,1.3396,1.3396,1.3396,1.3379,1.3362,1.3379,1.3193,1.2701,1.2422,1.2103,1.1763,1.1481,1.1475,1.1769,1.1923,1.1746,1.1452,1.1746,1.226,1.2205,1.1406,1.0047,0.9812,0.9717,0.9698,0.9698,1.0129,1.0516,1.091,1.0937,1.0909,1.2432,1.3601,1.4904,1.5195,1.5195,1.5195,1.5195,1.5195,1.5195,1.5195,1.5195,1.5195,1.5195,1.5207,1.5228,1.5221,1.5261,1.5335,1.5391,1.541,1.541,1.541,1.541,1.541,1.541,1.541,1.541,1.541,1.541,1.541,1.541,1.625,1.733,1.7117,1.6754,1.7846,1.8983,1.9348,1.9629,1.9373,1.9519,1.8096,1.6808,1.6327,1.6231,1.7058,1.7077,1.6673,1.6712,1.6407,1.683,1.735,1.6904,1.6353,1.694,1.7138,1.9723,1.9723,1.9723,1.9723,1.9723,1.9723,1.9723,1.9723,1.9723,1.9603,1.9226,1.8222,1.7639,1.7414,1.6545,1.6053,1.5856,1.612,1.6144,1.5773,1.5351,1.4828,1.4188,1.376,1.343,1.3396,1.3396,1.3396,1.3396,1.3396,1.3396,1.3396,1.3396,1.3396,1.3362,1.3289,1.2938,1.248,1.2475,1.2281,1.202,1.2557,1.2709,1.2297,1.2076,1.2297,1.2627,1.2384,1.193,1.1384,1.0543,1.0084,0.9919,0.9937,1.0961,1.2605,1.3271,1.3424,1.364,1.4015,1.4734,1.5058,1.5195,1.5195,1.5195,1.5195,1.5195,1.5195,1.5195,1.5195,1.5195,1.5195,1.5195,1.5195,1.5195,1.5196,1.5244,1.5352,1.541,1.541,1.541,1.541,1.541,1.541,1.541,1.541,1.5566,1.5488,1.5664,1.5898,1.6953,1.8477,1.8691,1.8379,1.8516,1.957,2.0032,2.0339,2.03,2.0231,1.8808,1.8365,1.8077,1.8519,1.9346,1.8981,1.8096,1.6865,1.6423,1.7292,1.8119,1.7753,1.7615,1.8173,1.8596,1.9723,1.9723,1.9723,1.9723,1.9723,1.9723,1.9723,1.9723,1.9723,1.9723,1.9423,1.8281,1.7713,1.761,1.6606,1.5956,1.5927,1.615,1.6378,1.6277,1.5928,1.5419,1.492,1.4276,1.3785,1.3481,1.3396,1.3396,1.3396,1.3396,1.3396,1.3396,1.3396,1.3396,1.3413,1.3524,1.3332,1.3099,1.3225,1.3181,1.3022,1.3353,1.3679,1.329,1.3227,1.3393,1.3618,1.3435,1.3264,1.3007,1.237,1.153,1.1149,1.153,1.2847,1.4035,1.4488,1.4488,1.4571,1.4902,1.5157,1.5192,1.5192,1.5195,1.5195,1.5195,1.5195,1.5195,1.5195,1.5195,1.5195,1.5195,1.5195,1.5195,1.5195,1.5195,1.522,1.5332,1.541,1.541,1.541,1.541,1.541,1.5879,1.6953,1.7598,1.8203,1.8184,1.8359,1.8555,1.8594,1.9531,2.0059,2.0078,1.9648,1.9902,2.0254,2.0383,2.0296,2.0288,1.9731,1.9788,2.0038,2.0192,2.0096,2.0173,1.9269,1.7923,1.7327,1.8519,1.9192,1.8846,1.8827,1.9231,1.9519,1.9723,1.9723,1.9723,1.9729,1.9782,1.9744,1.9762,1.98,1.9726,1.9747,1.9589,1.8474,1.8057,1.7588,1.6742,1.6135,1.6039,1.6163,1.6522,1.6986,1.6377,1.5882,1.5391,1.474,1.403,1.3464,1.3396,1.3396,1.3396,1.3396,1.3396,1.3396,1.3396,1.3396,1.3429,1.3542,1.3559,1.3496,1.3722,1.3908,1.3977,1.4113,1.4235,1.4263,1.4268,1.4268,1.4328,1.4304,1.4378,1.4488,1.4488,1.376,1.3227,1.3576,1.4488,1.4488,1.4488,1.4488,1.455,1.4821,1.5061,1.5162,1.5156,1.5171,1.5177,1.5195,1.5195,1.5195,1.5195,1.5195,1.5195,1.5195,1.5195,1.5195,1.5195,1.5195,1.5314,1.5589,1.6309,1.541,1.5547,1.5644,1.6445,1.7187,1.8555,1.9727,2.0254,2.0605,2.0605,2.0527,2.0176,2.0039,2.041,2.0566,2.0215,2.0098,2.0469,2.0453,2.0347,2.0323,2.0315,2.0288,2.0288,2.0288,2.0269,2.0288,2.0288,1.9481,1.9385,2.025,2.0115,1.9635,1.9808,2.0231,2.0288,1.9723,1.9723,1.9723,1.9892,2.0124,1.9856,1.9909,2.0122,1.9856,1.9909,2.007,1.9425,1.8716,1.8222,1.7813,1.7228,1.6678,1.6541,1.6735,1.7145,1.6655,1.612,1.5647,1.4994,1.4182,1.3574,1.3396,1.3396,1.3396,1.3396,1.3396,1.3396,1.3396,1.3396,1.3438,1.3534,1.3607,1.3684,1.3948,1.4149,1.4227,1.4356,1.4441,1.4488,1.4488,1.4488,1.4488,1.4488,1.4488,1.4488,1.4488,1.4323,1.4071,1.431,1.4469,1.4488,1.4488,1.4488,1.4533,1.4565,1.4853,1.5048,1.5089,1.5066,1.5156,1.5195,1.5195,1.5195,1.5195,1.5195,1.5195,1.5195,1.5195,1.5195,1.5519,1.5558,1.6015,1.7247,1.804,1.6562,1.6211,1.6406,1.7656,1.8594,1.9414,2.0117,2.0371,2.0605,2.0605,2.0605,2.0488,2.0449,2.0547,2.0586,2.0508,2.0469,2.0566,2.0527,2.0441,2.0363,2.0334,2.0312,2.0288,2.0288,2.0288,2.0288,2.0288,2.0288,2.0288,2.0288,2.0288,2.0308,2.0288,2.0288,2.0288,1.9723,1.9723,1.9723,1.9945,2.0229,2.0122,2.0261,2.0582,2.021,2.0244,2.0295,1.9795,1.9124,1.863,1.8103,1.7574,1.7122,1.6926,1.7097,1.7358,1.7176,1.6702,1.612,1.5392,1.4673,1.4056,1.3642,1.3396,1.3396,1.3396,1.3396,1.3396,1.3396,1.3396,1.3429,1.3542,1.3638,1.3773,1.4024,1.4257,1.4326,1.4483,1.4482,1.4488,1.4488,1.4488,1.4488,1.4488,1.4488,1.4488,1.4488,1.4488,1.4488,1.4488,1.4488,1.4488,1.4488,1.4488,1.4488,1.4499,1.4687,1.4976,1.5015,1.5084,1.5168,1.5195,1.5195,1.5195,1.5195,1.5195,1.5195,1.5195,1.5195,1.5541,1.6577,1.7577,1.8115,1.9404,1.8901,1.7715,1.6758,1.7324,1.9531,2.0215,2.0469,2.0605,2.0605,2.0605,2.0605,2.0605,2.0605,2.0605,2.0605,2.0605,2.0605,2.0605,2.0605,2.0566,2.0547,2.0449,2.0412,2.0383,2.0336,2.0288,2.0288,2.0288,2.0288,2.0288,2.0288,2.0327,2.0423,2.0481,2.0346,2.0288,2.0288,1.9723,1.9723,1.9723,1.9945,2.0263,2.0282,2.055,2.0862,2.06,2.0699,2.0975,2.0289,1.9685,1.9095,1.8363,1.7679,1.7329,1.7256,1.7439,1.7692,1.7698,1.7371,1.6671,1.596,1.5155,1.4368,1.3726,1.3396,1.3396,1.3396,1.3396,1.3396,1.3396,1.3396,1.3421,1.3502,1.3671,1.3849,1.4031,1.4245,1.4441,1.4488,1.4488,1.4488,1.4488,1.4488,1.4488,1.4488,1.4488,1.4488,1.4488,1.4488,1.4488,1.4488,1.4488,1.4488,1.4488,1.4488,1.4488,1.4493,1.4614,1.4917,1.5045,1.5136,1.5192,1.5195,1.5195,1.5195,1.5195,1.5195,1.5195,1.5195,1.5195,1.5846,1.8,2.0173,1.9904,2.0187,2.0218,1.8984,1.748,1.8086,2.0176,2.0605,2.0605,2.0605,2.0605,2.0605,2.0605,2.0605,2.0605,2.0605,2.0605,2.0605,2.0605,2.0605,2.0605,2.0586,2.0586,2.0547,2.0508,2.0492,2.042,2.033,2.0288,2.0288,2.0288,2.0288,2.0288,2.0385,2.0577,2.0615,2.0442,2.0327,2.0288,1.9723,1.9723,1.9723,1.9945,2.0263,2.0314,2.0583,2.0975,2.0943,2.1166,2.1521,2.133,2.0872,2.0094,1.8602,1.7759,1.7461,1.7368,1.7514,1.7777,1.7766,1.7456,1.6722,1.5944,1.5341,1.4639,1.3853,1.3447,1.3396,1.3396,1.3396,1.3396,1.3396,1.3396,1.3405,1.3438,1.3485,1.3648,1.3863,1.4143,1.4411,1.4482,1.4488,1.4488,1.4488,1.4488,1.4488,1.4488,1.4488,1.4488,1.4488,1.4488,1.4488,1.4488,1.4488,1.4488,1.4488,1.4488,1.4488,1.4493,1.4603,1.485,1.4971,1.503,1.513,1.5195,1.5195,1.5195,1.5195,1.5577,1.5731,1.55,1.5327,1.6442,1.8462,1.9942,2.0288,2.0296,2.0391,2.0391,1.8926,1.9297,2.0605,2.0605,2.0605,2.0605,2.0605,2.0605,2.0605,2.0605,2.0605,2.0605,2.0605,2.0605,2.0605,2.0605,2.0605,2.0605,2.0605,2.0605,2.0566,2.0527,2.0466,2.0393,2.035,2.0319,2.0288,2.0288,2.0288,2.0615,2.1062,2.0889,2.0519,2.0462,2.0692,1.9723,1.9723,1.9723,1.9929,2.0314,2.0566,2.0927,2.1275,2.1353,2.1583,2.1884,2.1688,2.135,2.0614,1.9183,1.841,1.8141,1.7756,1.7647,1.7766,1.7766,1.7625,1.7264,1.657,1.5832,1.5095,1.4377,1.3768,1.3574,1.3413,1.3396,1.3396,1.3396,1.3396,1.3396,1.3396,1.3486,1.3678,1.399,1.4257,1.435,1.4441,1.4488,1.4488,1.4488,1.4488,1.4488,1.4488,1.4488,1.4488,1.4488,1.4488,1.4488,1.4488,1.4488,1.4488,1.4488,1.4488,1.4488,1.4505,1.4666,1.4863,1.4988,1.5127,1.5183,1.5269,1.5269,1.5195,1.5195,1.5981,1.7538,1.8058,1.8096,1.8677,1.9288,1.9673,2.0288,2.0296,2.0337,2.0435,2.0508,2.0566,2.0605,2.0605,2.0605,2.0605,2.0605,2.0605,2.0605,2.0605,2.0605,2.0605,2.0605,2.0605,2.0605,2.0605,2.0605,2.0605,2.0605,2.0605,2.0605,2.0566,2.0664,2.0605,2.0532,2.0463,2.0438,2.0596,2.0885,2.1254,2.1639,2.1908,2.2154,2.1908,2.2293,1.9856,1.9839,1.9747,1.9874,2.0195,2.0764,2.1166,2.143,2.1705,2.1957,2.2152,2.1926,2.1585,2.0972,1.9833,1.9036,1.8826,1.8138,1.7867,1.7789,1.7789,1.7772,1.749,1.701,1.6384,1.5832,1.4817,1.4242,1.3828,1.3515,1.3396,1.3396,1.3396,1.3396,1.3396,1.3413,1.3462,1.3625,1.3931,1.4134,1.4238,1.4405,1.447,1.4488,1.4488,1.4488,1.4488,1.4488,1.4488,1.4488,1.4488,1.4488,1.4488,1.4488,1.4488,1.4488,1.4488,1.4592,1.4668,1.4757,1.479,1.4933,1.507,1.5194,1.5263,1.5404,1.625,1.6788,1.6846,1.8135,1.95,2.0096,1.9846,1.975,2.0135,2.025,2.0288,2.0292,2.0296,2.0374,2.0469,2.0566,2.0605,2.0605,2.0605,2.0605,2.0605,2.0605,2.0605,2.0605,2.0605,2.0605,2.0605,2.0605,2.0605,2.0605,2.0605,2.0605,2.0605,2.0762,2.084,2.1035,2.1211,2.1074,2.1309,2.1985,2.2763,2.2122,2.1615,2.2596,2.3462,2.3962,2.4135,2.3716,2.3601,2.0263,2.0229,1.9874,1.9747,1.9854,2.0649,2.1023,2.1166,2.1901,2.224,2.2296,2.222,2.1818,2.116,2.0399,1.9575,1.8905,1.8138,1.7901,1.7822,1.7789,1.7789,1.7591,1.7196,1.6671,1.6333,1.546,1.4783,1.4327,1.3946,1.365,1.3396,1.3447,1.3413,1.3438,1.3479,1.3543,1.3611,1.369,1.3877,1.4129,1.4362,1.4482,1.4488,1.4488,1.4488,1.4488,1.4488,1.4488,1.4488,1.4488,1.4488,1.4488,1.4488,1.4488,1.4488,1.4488,1.4645,1.4816,1.5,1.5117,1.5168,1.526,1.5308,1.5228,1.6696,1.7984,1.9096,1.8923,1.9385,2.0115,2.0288,2.0288,2.0288,2.0288,2.0288,2.0288,2.0288,2.0319,2.0353,2.041,2.0508,2.0605,2.0605,2.0605,2.0605,2.0605,2.0605,2.0605,2.0605,2.0605,2.0605,2.0605,2.0605,2.0605,2.0605,2.0605,2.0605,2.0605,2.0937,2.1269,2.1523,2.2461,2.3281,2.3887,2.4492,2.4737,2.3929,2.3685,2.4586,2.5154,2.5,2.4981,2.462,2.4601,2.0731,2.0731,2.0549,2.033,2.0108,2.0991,2.1228,2.115,2.1915,2.2313,2.2313,2.2279,2.2158,2.1718,2.1075,2.0302,1.9553,1.8809,1.829,1.7901,1.7789,1.7789,1.7648,1.749,1.7151,1.6688,1.6028,1.5554,1.5155,1.4742,1.4428,1.4157,1.3743,1.3513,1.3501,1.3605,1.3718,1.3688,1.3581,1.3667,1.4116,1.4387,1.4488,1.4488,1.4488,1.4488,1.4488,1.4488,1.4488,1.4488,1.4488,1.4488,1.4488,1.4488,1.4488,1.4488,1.4488,1.4614,1.4859,1.5041,1.5192,1.5349,1.5615,1.5868,1.5673,1.6792,1.8446,1.9577,2.0288,2.0288,2.0288,2.0288,2.0288,2.0288,2.0288,2.0288,2.0288,2.0288,2.0296,2.0322,2.0375,2.0449,2.0527,2.0605,2.0605,2.0605,2.0605,2.0605,2.0605,2.0605,2.0605,2.0605,2.0605,2.0605,2.0605,2.0605,2.0684,2.0879,2.0996,2.1738,2.2617,2.3769,2.4687,2.5566,2.5703,2.541,2.5254,2.5293,2.5306,2.5269,2.5274,2.525,2.5269,2.5308,2.5308,2.1166,2.1197,2.1338,2.1039,2.0633,2.129,2.1461,2.1337,2.1959,2.2313,2.2313,2.2313,2.2313,2.2107,2.1498,2.094,2.0179,1.9367,1.8691,1.8239,1.7969,1.7822,1.7789,1.7715,1.749,1.7044,1.6716,1.6326,1.5944,1.5714,1.5274,1.4783,1.4319,1.4076,1.3542,1.3716,1.3842,1.3813,1.3749,1.3933,1.4483,1.4502,1.475,1.4732,1.4689,1.4488,1.4488,1.4488,1.4488,1.4488,1.4488,1.4488,1.4488,1.4488,1.4488,1.4488,1.4488,1.4488,1.4675,1.5432,1.5625,1.5423,1.633,1.6657,1.7003,1.7426,1.8446,1.9981,2.0288,2.0288,2.0288,2.0288,2.0288,2.0288,2.0288,2.0288,2.0288,2.0288,2.0288,2.0308,2.0356,2.0385,2.0547,2.0664,2.0879,2.0801,2.0605,2.0605,2.0605,2.0605,2.0605,2.0605,2.0605,2.0605,2.0605,2.1816,2.2949,2.3144,2.332,2.3672,2.4551,2.5449,2.5703,2.5703,2.5703,2.5703,2.5625,2.5527,2.5404,2.5293,2.5298,2.5308,2.5308,2.5308,2.5308,2.1598,2.1643,2.2063,2.1751,2.1102,2.143,2.1582,2.1598,2.2077,2.2313,2.2313,2.2313,2.2313,2.2158,2.1613,2.1241,2.0767,1.965,1.8888,1.8657,1.8053,1.785,1.7789,1.7766,1.7715,1.7597,1.7219,1.6841,1.6654,1.6255,1.5832,1.5578,1.524,1.4711,1.3565,1.3556,1.3706,1.3885,1.3955,1.447,1.5173,1.5208,1.5588,1.5215,1.5038,1.4818,1.453,1.4506,1.4488,1.4488,1.4488,1.4488,1.4488,1.4488,1.4488,1.4488,1.4488,1.4488,1.4613,1.6464,1.6646,1.618,1.7365,1.8042,1.9115,1.9081,1.8523,2.0173,2.0288,2.0288,2.0288,2.0288,2.0288,2.0288,2.0288,2.0288,2.0288,2.0288,2.0288,2.0288,2.0312,2.0369,2.0563,2.0762,2.1094,2.1055,2.0723,2.0625,2.0723,2.0762,2.082,2.1465,2.1543,2.1582,2.2109,2.4043,2.5156,2.5352,2.5254,2.5156,2.5195,2.5547,2.5703,2.5703,2.5703,2.5703,2.5703,2.5684,2.5515,2.5329,2.5308,2.5308,2.5308,2.5308,2.5308,2.2061,2.2092,2.2223,2.2137,2.1901,2.2005,2.1899,2.1718,2.2077,2.2313,2.2313,2.2313,2.2313,2.2178,2.204,2.1651,2.1055,2.0251,1.9507,1.8843,1.8155,1.7884,1.7789,1.7789,1.7789,1.7749,1.7479,1.7388,1.7439,1.6971,1.6661,1.6407,1.5859,1.5165,1.4486,1.4239,1.423,1.47,1.469,1.4939,1.6303,1.6998,1.6977,1.5912,1.5606,1.5221,1.475,1.4744,1.4763,1.4708,1.4714,1.464,1.4543,1.4488,1.4488,1.4512,1.453,1.4488,1.489,1.6143,1.7685,1.8045,1.8451,1.9123,1.9962,1.9846,1.9908,2.0077,2.0269,2.0288,2.0288,2.0288,2.0288,2.0288,2.0288,2.0288,2.0288,2.0288,2.0288,2.0288,2.0312,2.2028,2.2779,2.265,2.2773,2.248,2.2246,2.1387,2.1211,2.1191,2.1269,2.248,2.2988,2.2949,2.3535,2.4922,2.5605,2.5527,2.5527,2.5527,2.5625,2.5703,2.5703,2.5703,2.5703,2.5703,2.5684,2.5657,2.5503,2.5383,2.5321,2.5308,2.5308,2.5308,2.5308,2.2313,2.2313,2.2313,2.2313,2.2313,2.2313,2.212,2.1928,2.218,2.2313,2.2313,2.2313,2.2313,2.2313,2.2245,2.2127,2.1481,2.0454,1.9883,1.9147,1.8205,1.789,1.7789,1.7805,1.7789,1.7789,1.7789,1.7766,1.7732,1.7772,1.7495,1.6982,1.635,1.5918,1.5416,1.5216,1.5126,1.5544,1.5621,1.6039,1.7305,1.806,1.8262,1.7025,1.6255,1.5845,1.5533,1.5423,1.546,1.5356,1.5264,1.5025,1.4763,1.4524,1.4506,1.453,1.571,1.5967,1.6733,1.71,1.8591,1.9398,1.9459,1.9707,2.0161,2.0135,2.0173,2.0269,2.0288,2.0288,2.0288,2.0288,2.0288,2.0288,2.0519,2.0538,2.0692,2.0731,2.0962,2.0885,2.0897,2.2862,2.4701,2.492,2.4805,2.4336,2.3848,2.2871,2.2051,2.2266,2.2383,2.3301,2.3691,2.3262,2.3828,2.5195,2.5684,2.5684,2.5703,2.5703,2.5703,2.5703,2.5703,2.5703,2.5703,2.5684,2.5684,2.5599,2.5482,2.5372,2.5322,2.5308,2.5308,2.5308,2.5308,2.2313,2.2313,2.2313,2.2313,2.2313,2.2313,2.2282,2.2282,2.2296,2.2313,2.2313,2.2313,2.2313,2.2313,2.2313,2.2262,2.1958,2.0741,2.0268,1.9642,1.8662,1.8222,1.7918,1.7867,1.7817,1.7789,1.7789,1.7789,1.7789,1.7789,1.7749,1.758,1.7016,1.672,1.6482,1.6303,1.6229,1.6419,1.651,1.7053,1.8151,1.8801,1.8629,1.7722,1.7117,1.675,1.6652,1.6883,1.6908,1.6835,1.6707,1.5863,1.5184,1.4616,1.4579,1.5521,1.7755,1.8379,1.8709,1.8856,1.8981,1.9515,1.9766,2.0022,2.0218,2.0288,2.0288,2.0288,2.0288,2.0288,2.0288,2.0288,2.0288,2.0538,2.0885,2.1077,2.1308,2.1538,2.1865,2.1808,2.1423,2.2658,2.4625,2.5368,2.5468,2.5195,2.4707,2.4648,2.4062,2.4355,2.4414,2.4316,2.4316,2.334,2.4121,2.5469,2.5703,2.5703,2.5703,2.5703,2.5703,2.5703,2.5703,2.5703,2.5703,2.5684,2.5684,2.5605,2.5471,2.5398,2.5313,2.5308,2.5308,2.5308,2.5308,2.2313,2.2313,2.2313,2.2313,2.2313,2.2313,2.2313,2.2313,2.2313,2.2313,2.2313,2.2313,2.2313,2.2313,2.2313,2.2313,2.1938,2.1431,2.1008,2.0247,1.9266,1.8775,1.8403,1.8115,1.7901,1.7789,1.7789,1.7789,1.7789,1.7789,1.7789,1.7698,1.7495,1.7439,1.7381,1.7328,1.7263,1.7203,1.7165,1.7811,1.8548,1.915,1.8812,1.8243,1.8243,1.7821,1.7385,1.7587,1.7495,1.7128,1.6963,1.6462,1.6376,1.6266,1.6468,1.7865,1.8893,1.9224,1.9279,1.9279,1.9279,1.9369,1.9694,2.006,2.0225,2.0288,2.0288,2.0288,2.0288,2.0288,2.0288,2.0288,2.0731,2.1327,2.1981,2.2923,2.3135,2.3212,2.35,2.3385,2.2981,2.3269,2.5135,2.5313,2.5376,2.5409,2.5421,2.5444,2.552,2.5628,2.5644,2.543,2.5176,2.4277,2.4551,2.5703,2.5703,2.5703,2.5703,2.5703,2.5703,2.5703,2.5703,2.5703,2.5703,2.5703,2.5703,2.5605,2.5547,2.5379,2.5303,2.5293,2.5293,2.5313,2.5303,2.2313,2.2313,2.2313,2.2313,2.2313,2.2313,2.2313,2.2313,2.2313,2.2313,2.2313,2.2313,2.2313,2.2313,2.2313,2.2296,2.2226,2.1546,2.1123,2.0801,1.9925,1.9266,1.8792,1.8471,1.8115,1.7952,1.7805,1.7789,1.7811,1.78,1.7789,1.7789,1.7789,1.7872,1.7881,1.7885,1.8014,1.7977,1.8041,1.8416,1.8848,1.9279,1.8948,1.8783,1.9143,1.8555,1.8005,1.8181,1.8052,1.7869,1.7851,1.7851,1.7851,1.7906,1.7997,1.9058,1.9187,1.9279,1.9279,1.9279,1.9279,1.9354,1.956,1.9888,2.0158,2.0288,2.0288,2.0288,2.0288,2.0288,2.0288,2.0442,2.1365,2.2269,2.3654,2.5058,2.5173,2.5173,2.5173,2.5154,2.5077,2.5019,2.5308,2.5308,2.5298,2.5335,2.5357,2.5346,2.545,2.5572,2.5664,2.5586,2.5605,2.5371,2.5703,2.5703,2.5703,2.5703,2.5703,2.5703,2.5703,2.5703,2.5703,2.5703,2.5703,2.5703,2.5703,2.5703,2.5633,2.5476,2.5383,2.5383,2.5376,2.535,2.5344,2.2313,2.2313,2.2313,2.2313,2.2313,2.2313,2.2313,2.2313,2.2313,2.2313,2.2313,2.2313,2.2313,2.2313,2.2313,2.2313,2.2175,2.1701,2.1478,2.1254,2.0517,1.9875,1.9469,1.8995,1.8763,1.8239,1.7946,1.8048,1.7873,1.7883,1.7905,1.7856,1.7916,1.804,1.8208,1.8229,1.8374,1.8628,1.8641,1.885,1.9097,1.9279,1.9279,1.9242,1.9279,1.9168,1.9187,1.9242,1.9279,1.926,1.9224,1.9113,1.9077,1.9058,1.9187,1.9224,1.9279,1.9279,1.9279,1.9279,1.9279,1.9279,1.9309,1.9619,1.9882,2.0229,2.0285,2.0288,2.0288,2.0288,2.0288,2.1615,2.2808,2.3538,2.4615,2.5308,2.5308,2.5308,2.5308,2.5308,2.5308,2.5308,2.5308,2.5308,2.5308,2.5308,2.5308,2.5308,2.5379,2.5509,2.5625,2.5684,2.5703,2.5703,2.5703,2.5703,2.5703,2.5703,2.5703,2.5703,2.5703,2.5703,2.5703,2.5703,2.5703,2.5703,2.5703,2.5703,2.5684,2.5634,2.5551,2.5515,2.5508,2.5644,2.545,2.2313,2.2313,2.2313,2.2313,2.2313,2.2313,2.2313,2.2313,2.2313,2.2313,2.2313,2.2313,2.2313,2.2313,2.2313,2.2313,2.2195,2.2057,2.204,2.1769,2.1194,2.072,2.045,1.9925,1.9608,1.9355,1.8973,1.8523,1.8372,1.8265,1.826,1.844,1.851,1.8656,1.8737,1.8747,1.8937,1.9334,1.9333,1.9365,1.9515,1.937,1.9279,1.9279,1.9279,1.9279,1.9279,1.9279,1.9279,1.9279,1.9279,1.926,1.9279,1.9279,1.9279,1.9279,1.9279,1.9279,1.9279,1.9279,1.9279,1.9279,1.9301,1.9383,1.9619,2.0041,2.0253,2.0277,2.0288,2.0288,2.0846,2.2558,2.4077,2.475,2.5308,2.5308,2.5308,2.5308,2.5308,2.5308,2.5308,2.5308,2.5308,2.5308,2.5308,2.5308,2.5308,2.5303,2.533,2.5438,2.557,2.5644,2.5684,2.5703,2.5703,2.5703,2.5703,2.5703,2.5703,2.5703,2.5703,2.5703,2.5703,2.5703,2.5703,2.5703,2.5703,2.5703,2.5684,2.5684,2.584,2.584,2.6211,2.6426,2.5977,2.2313,2.2313,2.2313,2.2313,2.2313,2.2313,2.2313,2.2313,2.2313,2.2313,2.2313,2.2313,2.2313,2.2313,2.2313,2.2313,2.2313,2.2296,2.2229,2.209,2.1904,2.1481,2.1109,2.0754,2.0251,1.9993,1.9838,1.9487,1.9176,1.9444,1.9631,1.9609,1.9637,1.9668,1.9735,1.9836,1.9893,2.0261,2.0143,2.021,2.016,1.9837,1.937,1.9279,1.9297,1.9297,1.9279,1.9279,1.9279,1.9279,1.9279,1.9279,1.9279,1.9279,1.9279,1.9279,1.9279,1.9279,1.9279,1.9279,1.9279,1.9279,1.9279,1.9354,1.9372,1.9749,2.0026,2.0079,2.0269,2.0308,2.1192,2.2673,2.4173,2.5154,2.5308,2.5308,2.5308,2.5308,2.5308,2.5308,2.5308,2.5308,2.5308,2.5308,2.5339,2.552,2.549,2.5469,2.5469,2.543,2.5547,2.5625,2.5684,2.5703,2.5703,2.5703,2.5703,2.5703,2.5703,2.5703,2.5703,2.5703,2.5703,2.5703,2.5703,2.5703,2.5703,2.5703,2.5703,2.5684,2.5957,2.6211,2.6777,2.7598,2.7734,2.2313,2.2313,2.2313,2.2313,2.2313,2.2313,2.2313,2.2313,2.2313,2.2313,2.2313,2.2313,2.2313,2.2313,2.2313,2.2313,2.2313,2.2313,2.2313,2.2313,2.2262,2.1921,2.1617,2.1326,2.0889,2.0616,2.0489,2.0448,2.033,2.0562,2.0759,2.1029,2.1143,2.1167,2.1385,2.1424,2.1316,2.1359,2.1402,2.1585,2.1133,2.048,2.0013,1.9719,1.9407,1.937,1.9389,1.9334,1.9334,1.9279,1.9279,1.9279,1.9279,1.9279,1.9279,1.9279,1.9279,1.9279,1.9279,1.9279,1.9279,1.9279,1.9279,1.9452,1.9569,1.9726,2.002,2.0651,2.0847,2.1327,2.2231,2.2942,2.4442,2.5308,2.5308,2.5308,2.5308,2.5308,2.5308,2.5308,2.5308,2.5308,2.5308,2.5308,2.5406,2.5597,2.5684,2.5703,2.5664,2.5605,2.5625,2.5664,2.5684,2.5703,2.5703,2.5703,2.5703,2.5703,2.5703,2.5703,2.5703,2.5703,2.5703,2.5703,2.5703,2.5703,2.5703,2.5703,2.5703,2.6094,2.5859,2.6465,2.8809,2.957,3.0137,2.2313,2.2313,2.2313,2.2313,2.233,2.2313,2.2313,2.2313,2.2313,2.2313,2.2313,2.2313,2.2313,2.2313,2.2313,2.2313,2.2313,2.2313,2.2313,2.2313,2.2313,2.2178,2.2043,2.1854,2.1549,2.1352,2.1204,2.1156,2.1326,2.1391,2.1477,2.1735,2.1735,2.1744,2.1752,2.1843,2.1989,2.2106,2.2088,2.2088,2.1978,2.1537,2.1445,2.0858,1.9995,1.9995,1.9913,1.9583,1.9389,1.9279,1.9279,1.9279,1.9279,1.9279,1.9279,1.9279,1.9279,1.9279,1.9279,1.9462,1.9536,1.9279,1.9591,2.0582,2.0619,2.059,2.1399,2.2924,2.3268,2.3712,2.4365,2.4365,2.5308,2.5308,2.5308,2.5308,2.5308,2.5308,2.5308,2.5308,2.5308,2.5308,2.5308,2.5308,2.5298,2.5479,2.5597,2.5605,2.5625,2.5664,2.5684,2.5723,2.5723,2.5703,2.5703,2.5703,2.5703,2.5703,2.5703,2.5703,2.5703,2.5703,2.5703,2.5703,2.5703,2.5703,2.5703,2.5703,2.6777,2.709,2.6152,2.668,2.9336,3.0918,3.0918]}]]